<?xml version="1.0" encoding="UTF-8" standalone="no" ?>
<gpx xmlns="http://www.topografix.com/GPX/1/1" xmlns:xsi="http://www.w3.org/2001/XMLSchema-instance" xsi:schemaLocation="http://www.topografix.com/GPX/1/1 http://www.topografix.com/GPX/1/1/gpx.xsd" version="1.1" creator="VisuGPX - https://www.visugpx.com">
  <metadata>
    <name>13211101-verdon étape 1 raid Verdon du 17 au 21 mai 2021 st André des Alpes Rougon</name>
    <desc><![CDATA[Belle premiere journée. A noter en dessous des Cadières de Brandis une propriété privée sur un sentier PR. Les gens achètent des parcelles de forets aux mairies. Personne sur place, le sentier est encore en parfait état. On passe... ]]></desc>
  </metadata>
  <trk>
    <name><![CDATA[13211101-verdon étape 1 st André des Alpes Rougon]]></name>
    <extensions>
      <line xmlns="http://www.topografix.com/GPX/gpx_style/0/2">
        <color>0000FF</color>
        <width>4</width>
      </line>
    </extensions>
    <trkseg>
      <trkpt lat="43.96097" lon="6.50658">
        <ele>885</ele>
        <time>2022-06-09T17:11:39Z</time>
      </trkpt>
      <trkpt lat="43.96102" lon="6.50666">
        <ele>885</ele>
        <time>2022-06-09T17:11:41Z</time>
      </trkpt>
      <trkpt lat="43.96101" lon="6.50662">
        <ele>885</ele>
        <time>2022-06-09T17:11:41Z</time>
      </trkpt>
      <trkpt lat="43.96097" lon="6.50661">
        <ele>885</ele>
        <time>2022-06-09T17:11:42Z</time>
      </trkpt>
      <trkpt lat="43.96081" lon="6.50669">
        <ele>884</ele>
        <time>2022-06-09T17:11:46Z</time>
      </trkpt>
      <trkpt lat="43.96075" lon="6.50669">
        <ele>884</ele>
        <time>2022-06-09T17:11:48Z</time>
      </trkpt>
      <trkpt lat="43.96071" lon="6.50665">
        <ele>884</ele>
        <time>2022-06-09T17:11:49Z</time>
      </trkpt>
      <trkpt lat="43.96067" lon="6.50646">
        <ele>885</ele>
        <time>2022-06-09T17:11:52Z</time>
      </trkpt>
      <trkpt lat="43.96049" lon="6.50634">
        <ele>885</ele>
        <time>2022-06-09T17:11:57Z</time>
      </trkpt>
      <trkpt lat="43.96033" lon="6.50629">
        <ele>885</ele>
        <time>2022-06-09T17:12:01Z</time>
      </trkpt>
      <trkpt lat="43.95994" lon="6.50626">
        <ele>885</ele>
        <time>2022-06-09T17:12:10Z</time>
      </trkpt>
      <trkpt lat="43.95965" lon="6.50617">
        <ele>884</ele>
        <time>2022-06-09T17:12:17Z</time>
      </trkpt>
      <trkpt lat="43.95916" lon="6.50615">
        <ele>882</ele>
        <time>2022-06-09T17:12:28Z</time>
      </trkpt>
      <trkpt lat="43.95885" lon="6.5062">
        <ele>884</ele>
        <time>2022-06-09T17:12:36Z</time>
      </trkpt>
      <trkpt lat="43.95847" lon="6.50631">
        <ele>885</ele>
        <time>2022-06-09T17:12:45Z</time>
      </trkpt>
      <trkpt lat="43.95836" lon="6.50628">
        <ele>886</ele>
        <time>2022-06-09T17:12:47Z</time>
      </trkpt>
      <trkpt lat="43.95824" lon="6.50616">
        <ele>889</ele>
        <time>2022-06-09T17:12:51Z</time>
      </trkpt>
      <trkpt lat="43.95813" lon="6.50614">
        <ele>891</ele>
        <time>2022-06-09T17:12:53Z</time>
      </trkpt>
      <trkpt lat="43.95807" lon="6.50617">
        <ele>891</ele>
        <time>2022-06-09T17:12:55Z</time>
      </trkpt>
      <trkpt lat="43.95795" lon="6.50638">
        <ele>891</ele>
        <time>2022-06-09T17:12:59Z</time>
      </trkpt>
      <trkpt lat="43.95775" lon="6.50659">
        <ele>893</ele>
        <time>2022-06-09T17:13:05Z</time>
      </trkpt>
      <trkpt lat="43.95754" lon="6.50674">
        <ele>894</ele>
        <time>2022-06-09T17:13:11Z</time>
      </trkpt>
      <trkpt lat="43.95728" lon="6.50685">
        <ele>897</ele>
        <time>2022-06-09T17:13:17Z</time>
      </trkpt>
      <trkpt lat="43.957" lon="6.50688">
        <ele>902</ele>
        <time>2022-06-09T17:13:24Z</time>
      </trkpt>
      <trkpt lat="43.95657" lon="6.50709">
        <ele>906</ele>
        <time>2022-06-09T17:13:34Z</time>
      </trkpt>
      <trkpt lat="43.95642" lon="6.50721">
        <ele>907</ele>
        <time>2022-06-09T17:13:38Z</time>
      </trkpt>
      <trkpt lat="43.95609" lon="6.50732">
        <ele>914</ele>
        <time>2022-06-09T17:13:46Z</time>
      </trkpt>
      <trkpt lat="43.95598" lon="6.50741">
        <ele>915</ele>
        <time>2022-06-09T17:13:49Z</time>
      </trkpt>
      <trkpt lat="43.95578" lon="6.5077">
        <ele>913</ele>
        <time>2022-06-09T17:13:56Z</time>
      </trkpt>
      <trkpt lat="43.95559" lon="6.50788">
        <ele>913</ele>
        <time>2022-06-09T17:14:01Z</time>
      </trkpt>
      <trkpt lat="43.95545" lon="6.50797">
        <ele>915</ele>
        <time>2022-06-09T17:14:05Z</time>
      </trkpt>
      <trkpt lat="43.95539" lon="6.50806">
        <ele>914</ele>
        <time>2022-06-09T17:14:07Z</time>
      </trkpt>
      <trkpt lat="43.95528" lon="6.50812">
        <ele>915</ele>
        <time>2022-06-09T17:14:10Z</time>
      </trkpt>
      <trkpt lat="43.95516" lon="6.50824">
        <ele>914</ele>
        <time>2022-06-09T17:14:13Z</time>
      </trkpt>
      <trkpt lat="43.95459" lon="6.50847">
        <ele>917</ele>
        <time>2022-06-09T17:14:27Z</time>
      </trkpt>
      <trkpt lat="43.9545" lon="6.50842">
        <ele>920</ele>
        <time>2022-06-09T17:14:29Z</time>
      </trkpt>
      <trkpt lat="43.95447" lon="6.50843">
        <ele>920</ele>
        <time>2022-06-09T17:14:30Z</time>
      </trkpt>
      <trkpt lat="43.95448" lon="6.50845">
        <ele>919</ele>
        <time>2022-06-09T17:14:30Z</time>
      </trkpt>
      <trkpt lat="43.95445" lon="6.5084">
        <ele>921</ele>
        <time>2022-06-09T17:14:32Z</time>
      </trkpt>
      <trkpt lat="43.95443" lon="6.50823">
        <ele>927</ele>
        <time>2022-06-09T17:14:34Z</time>
      </trkpt>
      <trkpt lat="43.95434" lon="6.50809">
        <ele>932</ele>
        <time>2022-06-09T17:14:38Z</time>
      </trkpt>
      <trkpt lat="43.95423" lon="6.50802">
        <ele>935</ele>
        <time>2022-06-09T17:14:40Z</time>
      </trkpt>
      <trkpt lat="43.95415" lon="6.50801">
        <ele>936</ele>
        <time>2022-06-09T17:14:42Z</time>
      </trkpt>
      <trkpt lat="43.95403" lon="6.50808">
        <ele>936</ele>
        <time>2022-06-09T17:14:45Z</time>
      </trkpt>
      <trkpt lat="43.95398" lon="6.50828">
        <ele>932</ele>
        <time>2022-06-09T17:14:49Z</time>
      </trkpt>
      <trkpt lat="43.95389" lon="6.50846">
        <ele>929</ele>
        <time>2022-06-09T17:14:53Z</time>
      </trkpt>
      <trkpt lat="43.95347" lon="6.50871">
        <ele>932</ele>
        <time>2022-06-09T17:15:03Z</time>
      </trkpt>
      <trkpt lat="43.9534" lon="6.50869">
        <ele>934</ele>
        <time>2022-06-09T17:15:05Z</time>
      </trkpt>
      <trkpt lat="43.95338" lon="6.50858">
        <ele>937</ele>
        <time>2022-06-09T17:15:07Z</time>
      </trkpt>
      <trkpt lat="43.95341" lon="6.5085">
        <ele>938</ele>
        <time>2022-06-09T17:15:08Z</time>
      </trkpt>
      <trkpt lat="43.95349" lon="6.50842">
        <ele>938</ele>
        <time>2022-06-09T17:15:11Z</time>
      </trkpt>
      <trkpt lat="43.95362" lon="6.50815">
        <ele>941</ele>
        <time>2022-06-09T17:15:16Z</time>
      </trkpt>
      <trkpt lat="43.95364" lon="6.50798">
        <ele>943</ele>
        <time>2022-06-09T17:15:19Z</time>
      </trkpt>
      <trkpt lat="43.9536" lon="6.5079">
        <ele>945</ele>
        <time>2022-06-09T17:15:21Z</time>
      </trkpt>
      <trkpt lat="43.95356" lon="6.5079">
        <ele>946</ele>
        <time>2022-06-09T17:15:22Z</time>
      </trkpt>
      <trkpt lat="43.95347" lon="6.50799">
        <ele>946</ele>
        <time>2022-06-09T17:15:24Z</time>
      </trkpt>
      <trkpt lat="43.95324" lon="6.50848">
        <ele>942</ele>
        <time>2022-06-09T17:15:34Z</time>
      </trkpt>
      <trkpt lat="43.95313" lon="6.50859">
        <ele>942</ele>
        <time>2022-06-09T17:15:37Z</time>
      </trkpt>
      <trkpt lat="43.95306" lon="6.5086">
        <ele>943</ele>
        <time>2022-06-09T17:15:39Z</time>
      </trkpt>
      <trkpt lat="43.95302" lon="6.50847">
        <ele>947</ele>
        <time>2022-06-09T17:15:41Z</time>
      </trkpt>
      <trkpt lat="43.95315" lon="6.50823">
        <ele>948</ele>
        <time>2022-06-09T17:15:46Z</time>
      </trkpt>
      <trkpt lat="43.95318" lon="6.50813">
        <ele>949</ele>
        <time>2022-06-09T17:15:48Z</time>
      </trkpt>
      <trkpt lat="43.95318" lon="6.50801">
        <ele>950</ele>
        <time>2022-06-09T17:15:50Z</time>
      </trkpt>
      <trkpt lat="43.95314" lon="6.50793">
        <ele>952</ele>
        <time>2022-06-09T17:15:52Z</time>
      </trkpt>
      <trkpt lat="43.95307" lon="6.50788">
        <ele>954</ele>
        <time>2022-06-09T17:15:54Z</time>
      </trkpt>
      <trkpt lat="43.95299" lon="6.50786">
        <ele>955</ele>
        <time>2022-06-09T17:15:55Z</time>
      </trkpt>
      <trkpt lat="43.95288" lon="6.50787">
        <ele>957</ele>
        <time>2022-06-09T17:15:58Z</time>
      </trkpt>
      <trkpt lat="43.95269" lon="6.50797">
        <ele>960</ele>
        <time>2022-06-09T17:16:03Z</time>
      </trkpt>
      <trkpt lat="43.95263" lon="6.50804">
        <ele>961</ele>
        <time>2022-06-09T17:16:05Z</time>
      </trkpt>
      <trkpt lat="43.95252" lon="6.50845">
        <ele>958</ele>
        <time>2022-06-09T17:16:12Z</time>
      </trkpt>
      <trkpt lat="43.95245" lon="6.50848">
        <ele>958</ele>
        <time>2022-06-09T17:16:14Z</time>
      </trkpt>
      <trkpt lat="43.9524" lon="6.50844">
        <ele>960</ele>
        <time>2022-06-09T17:16:15Z</time>
      </trkpt>
      <trkpt lat="43.95239" lon="6.50825">
        <ele>964</ele>
        <time>2022-06-09T17:16:18Z</time>
      </trkpt>
      <trkpt lat="43.95242" lon="6.5081">
        <ele>964</ele>
        <time>2022-06-09T17:16:21Z</time>
      </trkpt>
      <trkpt lat="43.95244" lon="6.50772">
        <ele>967</ele>
        <time>2022-06-09T17:16:27Z</time>
      </trkpt>
      <trkpt lat="43.95255" lon="6.50734">
        <ele>969</ele>
        <time>2022-06-09T17:16:34Z</time>
      </trkpt>
      <trkpt lat="43.95268" lon="6.50712">
        <ele>972</ele>
        <time>2022-06-09T17:16:39Z</time>
      </trkpt>
      <trkpt lat="43.95269" lon="6.50701">
        <ele>974</ele>
        <time>2022-06-09T17:16:41Z</time>
      </trkpt>
      <trkpt lat="43.95265" lon="6.50697">
        <ele>975</ele>
        <time>2022-06-09T17:16:42Z</time>
      </trkpt>
      <trkpt lat="43.95257" lon="6.50699">
        <ele>976</ele>
        <time>2022-06-09T17:16:44Z</time>
      </trkpt>
      <trkpt lat="43.95245" lon="6.5071">
        <ele>976</ele>
        <time>2022-06-09T17:16:47Z</time>
      </trkpt>
      <trkpt lat="43.95222" lon="6.50749">
        <ele>973</ele>
        <time>2022-06-09T17:16:56Z</time>
      </trkpt>
      <trkpt lat="43.95197" lon="6.50772">
        <ele>976</ele>
        <time>2022-06-09T17:17:03Z</time>
      </trkpt>
      <trkpt lat="43.95161" lon="6.50822">
        <ele>977</ele>
        <time>2022-06-09T17:17:15Z</time>
      </trkpt>
      <trkpt lat="43.95138" lon="6.50836">
        <ele>977</ele>
        <time>2022-06-09T17:17:20Z</time>
      </trkpt>
      <trkpt lat="43.95133" lon="6.50836">
        <ele>977</ele>
        <time>2022-06-09T17:17:22Z</time>
      </trkpt>
      <trkpt lat="43.95121" lon="6.5083">
        <ele>979</ele>
        <time>2022-06-09T17:17:25Z</time>
      </trkpt>
      <trkpt lat="43.9509" lon="6.50807">
        <ele>985</ele>
        <time>2022-06-09T17:17:33Z</time>
      </trkpt>
      <trkpt lat="43.95079" lon="6.50804">
        <ele>987</ele>
        <time>2022-06-09T17:17:35Z</time>
      </trkpt>
      <trkpt lat="43.95065" lon="6.50804">
        <ele>988</ele>
        <time>2022-06-09T17:17:39Z</time>
      </trkpt>
      <trkpt lat="43.95032" lon="6.50781">
        <ele>996</ele>
        <time>2022-06-09T17:17:47Z</time>
      </trkpt>
      <trkpt lat="43.95027" lon="6.50779">
        <ele>997</ele>
        <time>2022-06-09T17:17:48Z</time>
      </trkpt>
      <trkpt lat="43.95009" lon="6.50779">
        <ele>998</ele>
        <time>2022-06-09T17:17:53Z</time>
      </trkpt>
      <trkpt lat="43.94998" lon="6.50771">
        <ele>1002</ele>
        <time>2022-06-09T17:17:56Z</time>
      </trkpt>
      <trkpt lat="43.94994" lon="6.50765">
        <ele>1005</ele>
        <time>2022-06-09T17:17:57Z</time>
      </trkpt>
      <trkpt lat="43.94999" lon="6.50759">
        <ele>1005</ele>
        <time>2022-06-09T17:17:58Z</time>
      </trkpt>
      <trkpt lat="43.95039" lon="6.50756">
        <ele>1001</ele>
        <time>2022-06-09T17:18:08Z</time>
      </trkpt>
      <trkpt lat="43.95071" lon="6.50749">
        <ele>1000</ele>
        <time>2022-06-09T17:18:15Z</time>
      </trkpt>
      <trkpt lat="43.95084" lon="6.50743">
        <ele>1000</ele>
        <time>2022-06-09T17:18:19Z</time>
      </trkpt>
      <trkpt lat="43.95113" lon="6.50699">
        <ele>1008</ele>
        <time>2022-06-09T17:18:29Z</time>
      </trkpt>
      <trkpt lat="43.95168" lon="6.50665">
        <ele>1005</ele>
        <time>2022-06-09T17:18:43Z</time>
      </trkpt>
      <trkpt lat="43.95174" lon="6.50652">
        <ele>1007</ele>
        <time>2022-06-09T17:18:45Z</time>
      </trkpt>
      <trkpt lat="43.95171" lon="6.50642">
        <ele>1011</ele>
        <time>2022-06-09T17:18:47Z</time>
      </trkpt>
      <trkpt lat="43.95162" lon="6.50643">
        <ele>1013</ele>
        <time>2022-06-09T17:18:49Z</time>
      </trkpt>
      <trkpt lat="43.95155" lon="6.50652">
        <ele>1012</ele>
        <time>2022-06-09T17:18:51Z</time>
      </trkpt>
      <trkpt lat="43.95142" lon="6.5066">
        <ele>1013</ele>
        <time>2022-06-09T17:18:55Z</time>
      </trkpt>
      <trkpt lat="43.9513" lon="6.50658">
        <ele>1016</ele>
        <time>2022-06-09T17:18:58Z</time>
      </trkpt>
      <trkpt lat="43.9511" lon="6.50665">
        <ele>1018</ele>
        <time>2022-06-09T17:19:02Z</time>
      </trkpt>
      <trkpt lat="43.95075" lon="6.50672">
        <ele>1024</ele>
        <time>2022-06-09T17:19:11Z</time>
      </trkpt>
      <trkpt lat="43.95062" lon="6.50672">
        <ele>1027</ele>
        <time>2022-06-09T17:19:14Z</time>
      </trkpt>
      <trkpt lat="43.95058" lon="6.50684">
        <ele>1023</ele>
        <time>2022-06-09T17:19:16Z</time>
      </trkpt>
      <trkpt lat="43.95052" lon="6.5069">
        <ele>1022</ele>
        <time>2022-06-09T17:19:18Z</time>
      </trkpt>
      <trkpt lat="43.95044" lon="6.50693">
        <ele>1023</ele>
        <time>2022-06-09T17:19:20Z</time>
      </trkpt>
      <trkpt lat="43.95025" lon="6.50691">
        <ele>1027</ele>
        <time>2022-06-09T17:19:24Z</time>
      </trkpt>
      <trkpt lat="43.95015" lon="6.50686">
        <ele>1030</ele>
        <time>2022-06-09T17:19:27Z</time>
      </trkpt>
      <trkpt lat="43.95" lon="6.50686">
        <ele>1033</ele>
        <time>2022-06-09T17:19:30Z</time>
      </trkpt>
      <trkpt lat="43.94986" lon="6.50692">
        <ele>1033</ele>
        <time>2022-06-09T17:19:33Z</time>
      </trkpt>
      <trkpt lat="43.94965" lon="6.50709">
        <ele>1031</ele>
        <time>2022-06-09T17:19:39Z</time>
      </trkpt>
      <trkpt lat="43.94955" lon="6.50709">
        <ele>1033</ele>
        <time>2022-06-09T17:19:41Z</time>
      </trkpt>
      <trkpt lat="43.94943" lon="6.50714">
        <ele>1034</ele>
        <time>2022-06-09T17:19:44Z</time>
      </trkpt>
      <trkpt lat="43.94905" lon="6.50739">
        <ele>1036</ele>
        <time>2022-06-09T17:19:54Z</time>
      </trkpt>
      <trkpt lat="43.949" lon="6.50738">
        <ele>1038</ele>
        <time>2022-06-09T17:19:55Z</time>
      </trkpt>
      <trkpt lat="43.94895" lon="6.50731">
        <ele>1041</ele>
        <time>2022-06-09T17:19:57Z</time>
      </trkpt>
      <trkpt lat="43.94897" lon="6.50721">
        <ele>1042</ele>
        <time>2022-06-09T17:19:59Z</time>
      </trkpt>
      <trkpt lat="43.94903" lon="6.50715">
        <ele>1042</ele>
        <time>2022-06-09T17:20:01Z</time>
      </trkpt>
      <trkpt lat="43.9492" lon="6.50706">
        <ele>1040</ele>
        <time>2022-06-09T17:20:05Z</time>
      </trkpt>
      <trkpt lat="43.9493" lon="6.50696">
        <ele>1041</ele>
        <time>2022-06-09T17:20:08Z</time>
      </trkpt>
      <trkpt lat="43.94941" lon="6.50679">
        <ele>1044</ele>
        <time>2022-06-09T17:20:11Z</time>
      </trkpt>
      <trkpt lat="43.9496" lon="6.50665">
        <ele>1046</ele>
        <time>2022-06-09T17:20:17Z</time>
      </trkpt>
      <trkpt lat="43.94964" lon="6.50654">
        <ele>1049</ele>
        <time>2022-06-09T17:20:19Z</time>
      </trkpt>
      <trkpt lat="43.94963" lon="6.50646">
        <ele>1051</ele>
        <time>2022-06-09T17:20:20Z</time>
      </trkpt>
      <trkpt lat="43.94959" lon="6.50644">
        <ele>1052</ele>
        <time>2022-06-09T17:20:21Z</time>
      </trkpt>
      <trkpt lat="43.94952" lon="6.50647">
        <ele>1052</ele>
        <time>2022-06-09T17:20:23Z</time>
      </trkpt>
      <trkpt lat="43.94946" lon="6.50653">
        <ele>1051</ele>
        <time>2022-06-09T17:20:24Z</time>
      </trkpt>
      <trkpt lat="43.94933" lon="6.50657">
        <ele>1051</ele>
        <time>2022-06-09T17:20:27Z</time>
      </trkpt>
      <trkpt lat="43.94907" lon="6.50651">
        <ele>1056</ele>
        <time>2022-06-09T17:20:34Z</time>
      </trkpt>
      <trkpt lat="43.94894" lon="6.50653">
        <ele>1059</ele>
        <time>2022-06-09T17:20:37Z</time>
      </trkpt>
      <trkpt lat="43.94887" lon="6.50659">
        <ele>1058</ele>
        <time>2022-06-09T17:20:39Z</time>
      </trkpt>
      <trkpt lat="43.94881" lon="6.50669">
        <ele>1057</ele>
        <time>2022-06-09T17:20:41Z</time>
      </trkpt>
      <trkpt lat="43.94866" lon="6.5068">
        <ele>1058</ele>
        <time>2022-06-09T17:20:45Z</time>
      </trkpt>
      <trkpt lat="43.94836" lon="6.50694">
        <ele>1061</ele>
        <time>2022-06-09T17:20:52Z</time>
      </trkpt>
      <trkpt lat="43.9479" lon="6.50738">
        <ele>1061</ele>
        <time>2022-06-09T17:21:05Z</time>
      </trkpt>
      <trkpt lat="43.9477" lon="6.5075">
        <ele>1060</ele>
        <time>2022-06-09T17:21:10Z</time>
      </trkpt>
      <trkpt lat="43.94754" lon="6.50751">
        <ele>1062</ele>
        <time>2022-06-09T17:21:14Z</time>
      </trkpt>
      <trkpt lat="43.94732" lon="6.5074">
        <ele>1064</ele>
        <time>2022-06-09T17:21:19Z</time>
      </trkpt>
      <trkpt lat="43.94718" lon="6.50739">
        <ele>1063</ele>
        <time>2022-06-09T17:21:23Z</time>
      </trkpt>
      <trkpt lat="43.94691" lon="6.50723">
        <ele>1066</ele>
        <time>2022-06-09T17:21:30Z</time>
      </trkpt>
      <trkpt lat="43.94656" lon="6.50707">
        <ele>1069</ele>
        <time>2022-06-09T17:21:38Z</time>
      </trkpt>
      <trkpt lat="43.94649" lon="6.50708">
        <ele>1068</ele>
        <time>2022-06-09T17:21:40Z</time>
      </trkpt>
      <trkpt lat="43.94616" lon="6.50701">
        <ele>1068</ele>
        <time>2022-06-09T17:21:48Z</time>
      </trkpt>
      <trkpt lat="43.94596" lon="6.50694">
        <ele>1069</ele>
        <time>2022-06-09T17:21:52Z</time>
      </trkpt>
      <trkpt lat="43.94543" lon="6.50661">
        <ele>1072</ele>
        <time>2022-06-09T17:22:06Z</time>
      </trkpt>
      <trkpt lat="43.94533" lon="6.5065">
        <ele>1074</ele>
        <time>2022-06-09T17:22:09Z</time>
      </trkpt>
      <trkpt lat="43.94524" lon="6.50647">
        <ele>1073</ele>
        <time>2022-06-09T17:22:11Z</time>
      </trkpt>
      <trkpt lat="43.94512" lon="6.50639">
        <ele>1073</ele>
        <time>2022-06-09T17:22:14Z</time>
      </trkpt>
      <trkpt lat="43.94486" lon="6.50613">
        <ele>1075</ele>
        <time>2022-06-09T17:22:22Z</time>
      </trkpt>
      <trkpt lat="43.94446" lon="6.50584">
        <ele>1076</ele>
        <time>2022-06-09T17:22:32Z</time>
      </trkpt>
      <trkpt lat="43.9441" lon="6.50549">
        <ele>1080</ele>
        <time>2022-06-09T17:22:43Z</time>
      </trkpt>
      <trkpt lat="43.94397" lon="6.50533">
        <ele>1083</ele>
        <time>2022-06-09T17:22:47Z</time>
      </trkpt>
      <trkpt lat="43.94373" lon="6.50512">
        <ele>1086</ele>
        <time>2022-06-09T17:22:53Z</time>
      </trkpt>
      <trkpt lat="43.94331" lon="6.50487">
        <ele>1087</ele>
        <time>2022-06-09T17:23:04Z</time>
      </trkpt>
      <trkpt lat="43.94317" lon="6.50481">
        <ele>1088</ele>
        <time>2022-06-09T17:23:07Z</time>
      </trkpt>
      <trkpt lat="43.943" lon="6.50468">
        <ele>1091</ele>
        <time>2022-06-09T17:23:12Z</time>
      </trkpt>
      <trkpt lat="43.94288" lon="6.50464">
        <ele>1092</ele>
        <time>2022-06-09T17:23:15Z</time>
      </trkpt>
      <trkpt lat="43.9427" lon="6.50466">
        <ele>1091</ele>
        <time>2022-06-09T17:23:19Z</time>
      </trkpt>
      <trkpt lat="43.94203" lon="6.50459">
        <ele>1091</ele>
        <time>2022-06-09T17:23:35Z</time>
      </trkpt>
      <trkpt lat="43.94144" lon="6.5043">
        <ele>1096</ele>
        <time>2022-06-09T17:23:49Z</time>
      </trkpt>
      <trkpt lat="43.9412" lon="6.50422">
        <ele>1096</ele>
        <time>2022-06-09T17:23:55Z</time>
      </trkpt>
      <trkpt lat="43.94075" lon="6.50386">
        <ele>1099</ele>
        <time>2022-06-09T17:24:07Z</time>
      </trkpt>
      <trkpt lat="43.94032" lon="6.50362">
        <ele>1100</ele>
        <time>2022-06-09T17:24:18Z</time>
      </trkpt>
      <trkpt lat="43.9402" lon="6.50353">
        <ele>1101</ele>
        <time>2022-06-09T17:24:21Z</time>
      </trkpt>
      <trkpt lat="43.93974" lon="6.5034">
        <ele>1105</ele>
        <time>2022-06-09T17:24:32Z</time>
      </trkpt>
      <trkpt lat="43.93961" lon="6.5033">
        <ele>1108</ele>
        <time>2022-06-09T17:24:36Z</time>
      </trkpt>
      <trkpt lat="43.9395" lon="6.50325">
        <ele>1109</ele>
        <time>2022-06-09T17:24:38Z</time>
      </trkpt>
      <trkpt lat="43.93946" lon="6.50315">
        <ele>1111</ele>
        <time>2022-06-09T17:24:40Z</time>
      </trkpt>
      <trkpt lat="43.93948" lon="6.50309">
        <ele>1112</ele>
        <time>2022-06-09T17:24:41Z</time>
      </trkpt>
      <trkpt lat="43.93951" lon="6.50308">
        <ele>1112</ele>
        <time>2022-06-09T17:24:42Z</time>
      </trkpt>
      <trkpt lat="43.93966" lon="6.50319">
        <ele>1109</ele>
        <time>2022-06-09T17:24:46Z</time>
      </trkpt>
      <trkpt lat="43.93984" lon="6.50317">
        <ele>1108</ele>
        <time>2022-06-09T17:24:50Z</time>
      </trkpt>
      <trkpt lat="43.93999" lon="6.5031">
        <ele>1108</ele>
        <time>2022-06-09T17:24:54Z</time>
      </trkpt>
      <trkpt lat="43.94011" lon="6.503">
        <ele>1109</ele>
        <time>2022-06-09T17:24:57Z</time>
      </trkpt>
      <trkpt lat="43.94031" lon="6.50273">
        <ele>1112</ele>
        <time>2022-06-09T17:25:04Z</time>
      </trkpt>
      <trkpt lat="43.94043" lon="6.50249">
        <ele>1113</ele>
        <time>2022-06-09T17:25:09Z</time>
      </trkpt>
      <trkpt lat="43.94045" lon="6.5024">
        <ele>1114</ele>
        <time>2022-06-09T17:25:10Z</time>
      </trkpt>
      <trkpt lat="43.94043" lon="6.50227">
        <ele>1115</ele>
        <time>2022-06-09T17:25:12Z</time>
      </trkpt>
      <trkpt lat="43.94036" lon="6.50218">
        <ele>1118</ele>
        <time>2022-06-09T17:25:15Z</time>
      </trkpt>
      <trkpt lat="43.94032" lon="6.50217">
        <ele>1118</ele>
        <time>2022-06-09T17:25:16Z</time>
      </trkpt>
      <trkpt lat="43.94028" lon="6.50217">
        <ele>1119</ele>
        <time>2022-06-09T17:25:17Z</time>
      </trkpt>
      <trkpt lat="43.94016" lon="6.50226">
        <ele>1120</ele>
        <time>2022-06-09T17:25:20Z</time>
      </trkpt>
      <trkpt lat="43.93991" lon="6.50239">
        <ele>1120</ele>
        <time>2022-06-09T17:25:26Z</time>
      </trkpt>
      <trkpt lat="43.93981" lon="6.50241">
        <ele>1120</ele>
        <time>2022-06-09T17:25:28Z</time>
      </trkpt>
      <trkpt lat="43.93977" lon="6.50236">
        <ele>1122</ele>
        <time>2022-06-09T17:25:30Z</time>
      </trkpt>
      <trkpt lat="43.93979" lon="6.50227">
        <ele>1123</ele>
        <time>2022-06-09T17:25:31Z</time>
      </trkpt>
      <trkpt lat="43.93991" lon="6.50213">
        <ele>1125</ele>
        <time>2022-06-09T17:25:35Z</time>
      </trkpt>
      <trkpt lat="43.94014" lon="6.50174">
        <ele>1128</ele>
        <time>2022-06-09T17:25:43Z</time>
      </trkpt>
      <trkpt lat="43.94026" lon="6.50148">
        <ele>1129</ele>
        <time>2022-06-09T17:25:49Z</time>
      </trkpt>
      <trkpt lat="43.94028" lon="6.50131">
        <ele>1131</ele>
        <time>2022-06-09T17:25:51Z</time>
      </trkpt>
      <trkpt lat="43.94024" lon="6.50133">
        <ele>1132</ele>
        <time>2022-06-09T17:25:52Z</time>
      </trkpt>
      <trkpt lat="43.94001" lon="6.50162">
        <ele>1133</ele>
        <time>2022-06-09T17:26:00Z</time>
      </trkpt>
      <trkpt lat="43.93991" lon="6.50168">
        <ele>1132</ele>
        <time>2022-06-09T17:26:02Z</time>
      </trkpt>
      <trkpt lat="43.93971" lon="6.50159">
        <ele>1135</ele>
        <time>2022-06-09T17:26:07Z</time>
      </trkpt>
      <trkpt lat="43.9395" lon="6.50158">
        <ele>1137</ele>
        <time>2022-06-09T17:26:12Z</time>
      </trkpt>
      <trkpt lat="43.93946" lon="6.50149">
        <ele>1139</ele>
        <time>2022-06-09T17:26:14Z</time>
      </trkpt>
      <trkpt lat="43.93949" lon="6.50143">
        <ele>1141</ele>
        <time>2022-06-09T17:26:15Z</time>
      </trkpt>
      <trkpt lat="43.93955" lon="6.50141">
        <ele>1141</ele>
        <time>2022-06-09T17:26:16Z</time>
      </trkpt>
      <trkpt lat="43.93968" lon="6.50144">
        <ele>1139</ele>
        <time>2022-06-09T17:26:20Z</time>
      </trkpt>
      <trkpt lat="43.93982" lon="6.50144">
        <ele>1138</ele>
        <time>2022-06-09T17:26:23Z</time>
      </trkpt>
      <trkpt lat="43.93991" lon="6.5013">
        <ele>1140</ele>
        <time>2022-06-09T17:26:26Z</time>
      </trkpt>
      <trkpt lat="43.93999" lon="6.50107">
        <ele>1144</ele>
        <time>2022-06-09T17:26:30Z</time>
      </trkpt>
      <trkpt lat="43.94007" lon="6.50094">
        <ele>1144</ele>
        <time>2022-06-09T17:26:33Z</time>
      </trkpt>
      <trkpt lat="43.94018" lon="6.50047">
        <ele>1147</ele>
        <time>2022-06-09T17:26:41Z</time>
      </trkpt>
      <trkpt lat="43.94024" lon="6.49997">
        <ele>1151</ele>
        <time>2022-06-09T17:26:50Z</time>
      </trkpt>
      <trkpt lat="43.94033" lon="6.49962">
        <ele>1152</ele>
        <time>2022-06-09T17:26:56Z</time>
      </trkpt>
      <trkpt lat="43.94044" lon="6.49932">
        <ele>1152</ele>
        <time>2022-06-09T17:27:02Z</time>
      </trkpt>
      <trkpt lat="43.94045" lon="6.49922">
        <ele>1152</ele>
        <time>2022-06-09T17:27:04Z</time>
      </trkpt>
      <trkpt lat="43.9404" lon="6.49915">
        <ele>1154</ele>
        <time>2022-06-09T17:27:05Z</time>
      </trkpt>
      <trkpt lat="43.94031" lon="6.49917">
        <ele>1157</ele>
        <time>2022-06-09T17:27:07Z</time>
      </trkpt>
      <trkpt lat="43.94013" lon="6.4995">
        <ele>1159</ele>
        <time>2022-06-09T17:27:14Z</time>
      </trkpt>
      <trkpt lat="43.94005" lon="6.4996">
        <ele>1160</ele>
        <time>2022-06-09T17:27:17Z</time>
      </trkpt>
      <trkpt lat="43.93989" lon="6.49969">
        <ele>1162</ele>
        <time>2022-06-09T17:27:21Z</time>
      </trkpt>
      <trkpt lat="43.93953" lon="6.4997">
        <ele>1165</ele>
        <time>2022-06-09T17:27:29Z</time>
      </trkpt>
      <trkpt lat="43.9394" lon="6.49964">
        <ele>1167</ele>
        <time>2022-06-09T17:27:32Z</time>
      </trkpt>
      <trkpt lat="43.93922" lon="6.49945">
        <ele>1170</ele>
        <time>2022-06-09T17:27:38Z</time>
      </trkpt>
      <trkpt lat="43.93882" lon="6.49912">
        <ele>1175</ele>
        <time>2022-06-09T17:27:49Z</time>
      </trkpt>
      <trkpt lat="43.93874" lon="6.49896">
        <ele>1176</ele>
        <time>2022-06-09T17:27:52Z</time>
      </trkpt>
      <trkpt lat="43.93872" lon="6.4988">
        <ele>1177</ele>
        <time>2022-06-09T17:27:55Z</time>
      </trkpt>
      <trkpt lat="43.93874" lon="6.4986">
        <ele>1178</ele>
        <time>2022-06-09T17:27:58Z</time>
      </trkpt>
      <trkpt lat="43.93882" lon="6.49839">
        <ele>1177</ele>
        <time>2022-06-09T17:28:02Z</time>
      </trkpt>
      <trkpt lat="43.93889" lon="6.49805">
        <ele>1173</ele>
        <time>2022-06-09T17:28:08Z</time>
      </trkpt>
      <trkpt lat="43.93888" lon="6.49788">
        <ele>1172</ele>
        <time>2022-06-09T17:28:11Z</time>
      </trkpt>
      <trkpt lat="43.93883" lon="6.49778">
        <ele>1172</ele>
        <time>2022-06-09T17:28:13Z</time>
      </trkpt>
      <trkpt lat="43.93865" lon="6.49768">
        <ele>1173</ele>
        <time>2022-06-09T17:28:17Z</time>
      </trkpt>
      <trkpt lat="43.93854" lon="6.49769">
        <ele>1175</ele>
        <time>2022-06-09T17:28:20Z</time>
      </trkpt>
      <trkpt lat="43.93847" lon="6.49774">
        <ele>1176</ele>
        <time>2022-06-09T17:28:22Z</time>
      </trkpt>
      <trkpt lat="43.93813" lon="6.49785">
        <ele>1182</ele>
        <time>2022-06-09T17:28:30Z</time>
      </trkpt>
      <trkpt lat="43.93797" lon="6.49785">
        <ele>1184</ele>
        <time>2022-06-09T17:28:34Z</time>
      </trkpt>
      <trkpt lat="43.93781" lon="6.4978">
        <ele>1185</ele>
        <time>2022-06-09T17:28:38Z</time>
      </trkpt>
      <trkpt lat="43.93776" lon="6.49781">
        <ele>1185</ele>
        <time>2022-06-09T17:28:39Z</time>
      </trkpt>
      <trkpt lat="43.9377" lon="6.49775">
        <ele>1185</ele>
        <time>2022-06-09T17:28:40Z</time>
      </trkpt>
      <trkpt lat="43.93767" lon="6.49775">
        <ele>1185</ele>
        <time>2022-06-09T17:28:41Z</time>
      </trkpt>
      <trkpt lat="43.93759" lon="6.49781">
        <ele>1187</ele>
        <time>2022-06-09T17:28:43Z</time>
      </trkpt>
      <trkpt lat="43.93758" lon="6.49792">
        <ele>1189</ele>
        <time>2022-06-09T17:28:45Z</time>
      </trkpt>
      <trkpt lat="43.9376" lon="6.49799">
        <ele>1190</ele>
        <time>2022-06-09T17:28:46Z</time>
      </trkpt>
      <trkpt lat="43.93765" lon="6.49803">
        <ele>1190</ele>
        <time>2022-06-09T17:28:48Z</time>
      </trkpt>
      <trkpt lat="43.93776" lon="6.49802">
        <ele>1189</ele>
        <time>2022-06-09T17:28:50Z</time>
      </trkpt>
      <trkpt lat="43.93787" lon="6.49807">
        <ele>1188</ele>
        <time>2022-06-09T17:28:53Z</time>
      </trkpt>
      <trkpt lat="43.93793" lon="6.49816">
        <ele>1189</ele>
        <time>2022-06-09T17:28:55Z</time>
      </trkpt>
      <trkpt lat="43.93796" lon="6.49826">
        <ele>1190</ele>
        <time>2022-06-09T17:28:57Z</time>
      </trkpt>
      <trkpt lat="43.93795" lon="6.49837">
        <ele>1191</ele>
        <time>2022-06-09T17:28:59Z</time>
      </trkpt>
      <trkpt lat="43.93785" lon="6.49856">
        <ele>1191</ele>
        <time>2022-06-09T17:29:03Z</time>
      </trkpt>
      <trkpt lat="43.9376" lon="6.49874">
        <ele>1194</ele>
        <time>2022-06-09T17:29:09Z</time>
      </trkpt>
      <trkpt lat="43.93746" lon="6.4988">
        <ele>1196</ele>
        <time>2022-06-09T17:29:13Z</time>
      </trkpt>
      <trkpt lat="43.93702" lon="6.49907">
        <ele>1203</ele>
        <time>2022-06-09T17:29:24Z</time>
      </trkpt>
      <trkpt lat="43.93688" lon="6.49921">
        <ele>1204</ele>
        <time>2022-06-09T17:29:28Z</time>
      </trkpt>
      <trkpt lat="43.93641" lon="6.49946">
        <ele>1210</ele>
        <time>2022-06-09T17:29:40Z</time>
      </trkpt>
      <trkpt lat="43.93605" lon="6.49983">
        <ele>1212</ele>
        <time>2022-06-09T17:29:50Z</time>
      </trkpt>
      <trkpt lat="43.93601" lon="6.49984">
        <ele>1212</ele>
        <time>2022-06-09T17:29:51Z</time>
      </trkpt>
      <trkpt lat="43.93595" lon="6.49981">
        <ele>1214</ele>
        <time>2022-06-09T17:29:53Z</time>
      </trkpt>
      <trkpt lat="43.93597" lon="6.49968">
        <ele>1216</ele>
        <time>2022-06-09T17:29:55Z</time>
      </trkpt>
      <trkpt lat="43.93607" lon="6.49956">
        <ele>1216</ele>
        <time>2022-06-09T17:29:58Z</time>
      </trkpt>
      <trkpt lat="43.93629" lon="6.4991">
        <ele>1218</ele>
        <time>2022-06-09T17:30:07Z</time>
      </trkpt>
      <trkpt lat="43.93635" lon="6.49904">
        <ele>1216</ele>
        <time>2022-06-09T17:30:09Z</time>
      </trkpt>
      <trkpt lat="43.9366" lon="6.49859">
        <ele>1213</ele>
        <time>2022-06-09T17:30:19Z</time>
      </trkpt>
      <trkpt lat="43.9366" lon="6.49848">
        <ele>1213</ele>
        <time>2022-06-09T17:30:20Z</time>
      </trkpt>
      <trkpt lat="43.93654" lon="6.4984">
        <ele>1215</ele>
        <time>2022-06-09T17:30:22Z</time>
      </trkpt>
      <trkpt lat="43.93648" lon="6.49842">
        <ele>1216</ele>
        <time>2022-06-09T17:30:24Z</time>
      </trkpt>
      <trkpt lat="43.93641" lon="6.49863">
        <ele>1216</ele>
        <time>2022-06-09T17:30:28Z</time>
      </trkpt>
      <trkpt lat="43.93631" lon="6.49876">
        <ele>1218</ele>
        <time>2022-06-09T17:30:31Z</time>
      </trkpt>
      <trkpt lat="43.93622" lon="6.49883">
        <ele>1220</ele>
        <time>2022-06-09T17:30:33Z</time>
      </trkpt>
      <trkpt lat="43.936" lon="6.49891">
        <ele>1224</ele>
        <time>2022-06-09T17:30:39Z</time>
      </trkpt>
      <trkpt lat="43.93584" lon="6.499">
        <ele>1227</ele>
        <time>2022-06-09T17:30:43Z</time>
      </trkpt>
      <trkpt lat="43.93576" lon="6.4991">
        <ele>1229</ele>
        <time>2022-06-09T17:30:45Z</time>
      </trkpt>
      <trkpt lat="43.93559" lon="6.49922">
        <ele>1232</ele>
        <time>2022-06-09T17:30:50Z</time>
      </trkpt>
      <trkpt lat="43.93544" lon="6.49945">
        <ele>1231</ele>
        <time>2022-06-09T17:30:55Z</time>
      </trkpt>
      <trkpt lat="43.93525" lon="6.49963">
        <ele>1231</ele>
        <time>2022-06-09T17:31:00Z</time>
      </trkpt>
      <trkpt lat="43.935" lon="6.49976">
        <ele>1234</ele>
        <time>2022-06-09T17:31:06Z</time>
      </trkpt>
      <trkpt lat="43.93456" lon="6.50012">
        <ele>1243</ele>
        <time>2022-06-09T17:31:18Z</time>
      </trkpt>
      <trkpt lat="43.93438" lon="6.50041">
        <ele>1247</ele>
        <time>2022-06-09T17:31:25Z</time>
      </trkpt>
      <trkpt lat="43.93434" lon="6.50043">
        <ele>1248</ele>
        <time>2022-06-09T17:31:26Z</time>
      </trkpt>
      <trkpt lat="43.93428" lon="6.50042">
        <ele>1249</ele>
        <time>2022-06-09T17:31:27Z</time>
      </trkpt>
      <trkpt lat="43.93425" lon="6.50031">
        <ele>1251</ele>
        <time>2022-06-09T17:31:29Z</time>
      </trkpt>
      <trkpt lat="43.93444" lon="6.49985">
        <ele>1247</ele>
        <time>2022-06-09T17:31:38Z</time>
      </trkpt>
      <trkpt lat="43.93461" lon="6.49958">
        <ele>1245</ele>
        <time>2022-06-09T17:31:44Z</time>
      </trkpt>
      <trkpt lat="43.93464" lon="6.49939">
        <ele>1246</ele>
        <time>2022-06-09T17:31:47Z</time>
      </trkpt>
      <trkpt lat="43.93457" lon="6.49912">
        <ele>1248</ele>
        <time>2022-06-09T17:31:52Z</time>
      </trkpt>
      <trkpt lat="43.93447" lon="6.49904">
        <ele>1248</ele>
        <time>2022-06-09T17:31:55Z</time>
      </trkpt>
      <trkpt lat="43.93431" lon="6.49901">
        <ele>1250</ele>
        <time>2022-06-09T17:31:59Z</time>
      </trkpt>
      <trkpt lat="43.93418" lon="6.49908">
        <ele>1253</ele>
        <time>2022-06-09T17:32:02Z</time>
      </trkpt>
      <trkpt lat="43.93396" lon="6.49943">
        <ele>1258</ele>
        <time>2022-06-09T17:32:10Z</time>
      </trkpt>
      <trkpt lat="43.93388" lon="6.4998">
        <ele>1261</ele>
        <time>2022-06-09T17:32:16Z</time>
      </trkpt>
      <trkpt lat="43.93353" lon="6.50095">
        <ele>1269</ele>
        <time>2022-06-09T17:32:37Z</time>
      </trkpt>
      <trkpt lat="43.93352" lon="6.50107">
        <ele>1269</ele>
        <time>2022-06-09T17:32:39Z</time>
      </trkpt>
      <trkpt lat="43.93356" lon="6.50121">
        <ele>1269</ele>
        <time>2022-06-09T17:32:42Z</time>
      </trkpt>
      <trkpt lat="43.93357" lon="6.50139">
        <ele>1270</ele>
        <time>2022-06-09T17:32:45Z</time>
      </trkpt>
      <trkpt lat="43.93375" lon="6.50166">
        <ele>1268</ele>
        <time>2022-06-09T17:32:51Z</time>
      </trkpt>
      <trkpt lat="43.93377" lon="6.50174">
        <ele>1268</ele>
        <time>2022-06-09T17:32:52Z</time>
      </trkpt>
      <trkpt lat="43.93374" lon="6.50181">
        <ele>1270</ele>
        <time>2022-06-09T17:32:54Z</time>
      </trkpt>
      <trkpt lat="43.93369" lon="6.50183">
        <ele>1271</ele>
        <time>2022-06-09T17:32:55Z</time>
      </trkpt>
      <trkpt lat="43.93363" lon="6.50182">
        <ele>1272</ele>
        <time>2022-06-09T17:32:56Z</time>
      </trkpt>
      <trkpt lat="43.93336" lon="6.50167">
        <ele>1276</ele>
        <time>2022-06-09T17:33:03Z</time>
      </trkpt>
      <trkpt lat="43.93302" lon="6.50174">
        <ele>1284</ele>
        <time>2022-06-09T17:33:11Z</time>
      </trkpt>
      <trkpt lat="43.93292" lon="6.50171">
        <ele>1286</ele>
        <time>2022-06-09T17:33:14Z</time>
      </trkpt>
      <trkpt lat="43.93286" lon="6.50165">
        <ele>1287</ele>
        <time>2022-06-09T17:33:15Z</time>
      </trkpt>
      <trkpt lat="43.93277" lon="6.50148">
        <ele>1288</ele>
        <time>2022-06-09T17:33:19Z</time>
      </trkpt>
      <trkpt lat="43.93273" lon="6.50127">
        <ele>1288</ele>
        <time>2022-06-09T17:33:23Z</time>
      </trkpt>
      <trkpt lat="43.93274" lon="6.50112">
        <ele>1288</ele>
        <time>2022-06-09T17:33:25Z</time>
      </trkpt>
      <trkpt lat="43.93286" lon="6.50063">
        <ele>1285</ele>
        <time>2022-06-09T17:33:34Z</time>
      </trkpt>
      <trkpt lat="43.93284" lon="6.50039">
        <ele>1286</ele>
        <time>2022-06-09T17:33:38Z</time>
      </trkpt>
      <trkpt lat="43.93275" lon="6.50019">
        <ele>1288</ele>
        <time>2022-06-09T17:33:42Z</time>
      </trkpt>
      <trkpt lat="43.93245" lon="6.49987">
        <ele>1291</ele>
        <time>2022-06-09T17:33:51Z</time>
      </trkpt>
      <trkpt lat="43.93231" lon="6.49965">
        <ele>1286</ele>
        <time>2022-06-09T17:33:56Z</time>
      </trkpt>
      <trkpt lat="43.93221" lon="6.49944">
        <ele>1281</ele>
        <time>2022-06-09T17:34:00Z</time>
      </trkpt>
      <trkpt lat="43.93219" lon="6.49941">
        <ele>1280</ele>
        <time>2022-06-09T17:34:01Z</time>
      </trkpt>
      <trkpt lat="43.93216" lon="6.49941">
        <ele>1280</ele>
        <time>2022-06-09T17:34:01Z</time>
      </trkpt>
      <trkpt lat="43.93211" lon="6.49951">
        <ele>1280</ele>
        <time>2022-06-09T17:34:03Z</time>
      </trkpt>
      <trkpt lat="43.9322" lon="6.49965">
        <ele>1284</ele>
        <time>2022-06-09T17:34:06Z</time>
      </trkpt>
      <trkpt lat="43.93226" lon="6.49988">
        <ele>1288</ele>
        <time>2022-06-09T17:34:11Z</time>
      </trkpt>
      <trkpt lat="43.93218" lon="6.5004">
        <ele>1290</ele>
        <time>2022-06-09T17:34:20Z</time>
      </trkpt>
      <trkpt lat="43.93213" lon="6.5005">
        <ele>1291</ele>
        <time>2022-06-09T17:34:22Z</time>
      </trkpt>
      <trkpt lat="43.93199" lon="6.50109">
        <ele>1296</ele>
        <time>2022-06-09T17:34:32Z</time>
      </trkpt>
      <trkpt lat="43.93199" lon="6.50153">
        <ele>1302</ele>
        <time>2022-06-09T17:34:39Z</time>
      </trkpt>
      <trkpt lat="43.93194" lon="6.50158">
        <ele>1304</ele>
        <time>2022-06-09T17:34:41Z</time>
      </trkpt>
      <trkpt lat="43.93188" lon="6.50157">
        <ele>1304</ele>
        <time>2022-06-09T17:34:42Z</time>
      </trkpt>
      <trkpt lat="43.93178" lon="6.5012">
        <ele>1300</ele>
        <time>2022-06-09T17:34:49Z</time>
      </trkpt>
      <trkpt lat="43.93172" lon="6.50116">
        <ele>1299</ele>
        <time>2022-06-09T17:34:50Z</time>
      </trkpt>
      <trkpt lat="43.93162" lon="6.50119">
        <ele>1299</ele>
        <time>2022-06-09T17:34:53Z</time>
      </trkpt>
      <trkpt lat="43.93129" lon="6.50179">
        <ele>1300</ele>
        <time>2022-06-09T17:35:06Z</time>
      </trkpt>
      <trkpt lat="43.93101" lon="6.50222">
        <ele>1299</ele>
        <time>2022-06-09T17:35:15Z</time>
      </trkpt>
      <trkpt lat="43.93091" lon="6.50246">
        <ele>1301</ele>
        <time>2022-06-09T17:35:20Z</time>
      </trkpt>
      <trkpt lat="43.93082" lon="6.50281">
        <ele>1305</ele>
        <time>2022-06-09T17:35:26Z</time>
      </trkpt>
      <trkpt lat="43.93081" lon="6.50314">
        <ele>1311</ele>
        <time>2022-06-09T17:35:32Z</time>
      </trkpt>
      <trkpt lat="43.93074" lon="6.5035">
        <ele>1315</ele>
        <time>2022-06-09T17:35:38Z</time>
      </trkpt>
      <trkpt lat="43.93015" lon="6.50435">
        <ele>1312</ele>
        <time>2022-06-09T17:35:58Z</time>
      </trkpt>
      <trkpt lat="43.92949" lon="6.50497">
        <ele>1311</ele>
        <time>2022-06-09T17:36:16Z</time>
      </trkpt>
      <trkpt lat="43.92924" lon="6.50517">
        <ele>1310</ele>
        <time>2022-06-09T17:36:23Z</time>
      </trkpt>
      <trkpt lat="43.92895" lon="6.50529">
        <ele>1305</ele>
        <time>2022-06-09T17:36:30Z</time>
      </trkpt>
      <trkpt lat="43.92838" lon="6.50564">
        <ele>1298</ele>
        <time>2022-06-09T17:36:45Z</time>
      </trkpt>
      <trkpt lat="43.928" lon="6.50596">
        <ele>1297</ele>
        <time>2022-06-09T17:36:55Z</time>
      </trkpt>
      <trkpt lat="43.92788" lon="6.50609">
        <ele>1297</ele>
        <time>2022-06-09T17:36:59Z</time>
      </trkpt>
      <trkpt lat="43.92764" lon="6.50645">
        <ele>1300</ele>
        <time>2022-06-09T17:37:07Z</time>
      </trkpt>
      <trkpt lat="43.92748" lon="6.50656">
        <ele>1298</ele>
        <time>2022-06-09T17:37:11Z</time>
      </trkpt>
      <trkpt lat="43.9272" lon="6.50664">
        <ele>1295</ele>
        <time>2022-06-09T17:37:18Z</time>
      </trkpt>
      <trkpt lat="43.92689" lon="6.50684">
        <ele>1291</ele>
        <time>2022-06-09T17:37:26Z</time>
      </trkpt>
      <trkpt lat="43.92679" lon="6.50693">
        <ele>1290</ele>
        <time>2022-06-09T17:37:29Z</time>
      </trkpt>
      <trkpt lat="43.92672" lon="6.50707">
        <ele>1289</ele>
        <time>2022-06-09T17:37:32Z</time>
      </trkpt>
      <trkpt lat="43.92668" lon="6.50722">
        <ele>1289</ele>
        <time>2022-06-09T17:37:34Z</time>
      </trkpt>
      <trkpt lat="43.92662" lon="6.50777">
        <ele>1291</ele>
        <time>2022-06-09T17:37:44Z</time>
      </trkpt>
      <trkpt lat="43.92645" lon="6.50818">
        <ele>1291</ele>
        <time>2022-06-09T17:37:52Z</time>
      </trkpt>
      <trkpt lat="43.92615" lon="6.5084">
        <ele>1289</ele>
        <time>2022-06-09T17:37:59Z</time>
      </trkpt>
      <trkpt lat="43.92577" lon="6.50847">
        <ele>1285</ele>
        <time>2022-06-09T17:38:08Z</time>
      </trkpt>
      <trkpt lat="43.9257" lon="6.50853">
        <ele>1285</ele>
        <time>2022-06-09T17:38:10Z</time>
      </trkpt>
      <trkpt lat="43.9257" lon="6.50851">
        <ele>1285</ele>
        <time>2022-06-09T17:38:11Z</time>
      </trkpt>
      <trkpt lat="43.92547" lon="6.50863">
        <ele>1285</ele>
        <time>2022-06-09T17:38:16Z</time>
      </trkpt>
      <trkpt lat="43.92515" lon="6.50889">
        <ele>1285</ele>
        <time>2022-06-09T17:38:25Z</time>
      </trkpt>
      <trkpt lat="43.92496" lon="6.50888">
        <ele>1283</ele>
        <time>2022-06-09T17:38:29Z</time>
      </trkpt>
      <trkpt lat="43.92477" lon="6.50892">
        <ele>1281</ele>
        <time>2022-06-09T17:38:34Z</time>
      </trkpt>
      <trkpt lat="43.92445" lon="6.50912">
        <ele>1280</ele>
        <time>2022-06-09T17:38:42Z</time>
      </trkpt>
      <trkpt lat="43.92381" lon="6.50942">
        <ele>1281</ele>
        <time>2022-06-09T17:38:58Z</time>
      </trkpt>
      <trkpt lat="43.92347" lon="6.50953">
        <ele>1281</ele>
        <time>2022-06-09T17:39:06Z</time>
      </trkpt>
      <trkpt lat="43.92282" lon="6.50967">
        <ele>1281</ele>
        <time>2022-06-09T17:39:21Z</time>
      </trkpt>
      <trkpt lat="43.92263" lon="6.50977">
        <ele>1281</ele>
        <time>2022-06-09T17:39:26Z</time>
      </trkpt>
      <trkpt lat="43.92239" lon="6.51">
        <ele>1280</ele>
        <time>2022-06-09T17:39:33Z</time>
      </trkpt>
      <trkpt lat="43.92229" lon="6.50999">
        <ele>1280</ele>
        <time>2022-06-09T17:39:35Z</time>
      </trkpt>
      <trkpt lat="43.92203" lon="6.51003">
        <ele>1278</ele>
        <time>2022-06-09T17:39:41Z</time>
      </trkpt>
      <trkpt lat="43.92204" lon="6.51005">
        <ele>1278</ele>
        <time>2022-06-09T17:39:42Z</time>
      </trkpt>
      <trkpt lat="43.92198" lon="6.51002">
        <ele>1278</ele>
        <time>2022-06-09T17:39:43Z</time>
      </trkpt>
      <trkpt lat="43.92176" lon="6.51002">
        <ele>1277</ele>
        <time>2022-06-09T17:39:48Z</time>
      </trkpt>
      <trkpt lat="43.92158" lon="6.51006">
        <ele>1275</ele>
        <time>2022-06-09T17:39:53Z</time>
      </trkpt>
      <trkpt lat="43.92139" lon="6.51004">
        <ele>1273</ele>
        <time>2022-06-09T17:39:57Z</time>
      </trkpt>
      <trkpt lat="43.92131" lon="6.51">
        <ele>1273</ele>
        <time>2022-06-09T17:39:59Z</time>
      </trkpt>
      <trkpt lat="43.92106" lon="6.5098">
        <ele>1274</ele>
        <time>2022-06-09T17:40:06Z</time>
      </trkpt>
      <trkpt lat="43.92023" lon="6.50932">
        <ele>1274</ele>
        <time>2022-06-09T17:40:27Z</time>
      </trkpt>
      <trkpt lat="43.92017" lon="6.5093">
        <ele>1274</ele>
        <time>2022-06-09T17:40:28Z</time>
      </trkpt>
      <trkpt lat="43.91991" lon="6.50934">
        <ele>1273</ele>
        <time>2022-06-09T17:40:34Z</time>
      </trkpt>
      <trkpt lat="43.91983" lon="6.50932">
        <ele>1273</ele>
        <time>2022-06-09T17:40:36Z</time>
      </trkpt>
      <trkpt lat="43.91948" lon="6.50897">
        <ele>1275</ele>
        <time>2022-06-09T17:40:46Z</time>
      </trkpt>
      <trkpt lat="43.91923" lon="6.5089">
        <ele>1275</ele>
        <time>2022-06-09T17:40:52Z</time>
      </trkpt>
      <trkpt lat="43.9187" lon="6.5088">
        <ele>1274</ele>
        <time>2022-06-09T17:41:05Z</time>
      </trkpt>
      <trkpt lat="43.91839" lon="6.5088">
        <ele>1273</ele>
        <time>2022-06-09T17:41:12Z</time>
      </trkpt>
      <trkpt lat="43.91782" lon="6.50885">
        <ele>1271</ele>
        <time>2022-06-09T17:41:25Z</time>
      </trkpt>
      <trkpt lat="43.91747" lon="6.50884">
        <ele>1269</ele>
        <time>2022-06-09T17:41:34Z</time>
      </trkpt>
      <trkpt lat="43.91684" lon="6.50892">
        <ele>1263</ele>
        <time>2022-06-09T17:41:48Z</time>
      </trkpt>
      <trkpt lat="43.91662" lon="6.50892">
        <ele>1262</ele>
        <time>2022-06-09T17:41:54Z</time>
      </trkpt>
      <trkpt lat="43.91641" lon="6.50905">
        <ele>1262</ele>
        <time>2022-06-09T17:41:59Z</time>
      </trkpt>
      <trkpt lat="43.91616" lon="6.50928">
        <ele>1261</ele>
        <time>2022-06-09T17:42:06Z</time>
      </trkpt>
      <trkpt lat="43.91579" lon="6.50931">
        <ele>1262</ele>
        <time>2022-06-09T17:42:15Z</time>
      </trkpt>
      <trkpt lat="43.9156" lon="6.50936">
        <ele>1263</ele>
        <time>2022-06-09T17:42:19Z</time>
      </trkpt>
      <trkpt lat="43.91547" lon="6.50936">
        <ele>1263</ele>
        <time>2022-06-09T17:42:22Z</time>
      </trkpt>
      <trkpt lat="43.91512" lon="6.50923">
        <ele>1266</ele>
        <time>2022-06-09T17:42:31Z</time>
      </trkpt>
      <trkpt lat="43.91485" lon="6.50924">
        <ele>1266</ele>
        <time>2022-06-09T17:42:37Z</time>
      </trkpt>
      <trkpt lat="43.91476" lon="6.50927">
        <ele>1265</ele>
        <time>2022-06-09T17:42:39Z</time>
      </trkpt>
      <trkpt lat="43.91429" lon="6.50931">
        <ele>1263</ele>
        <time>2022-06-09T17:42:50Z</time>
      </trkpt>
      <trkpt lat="43.91412" lon="6.50935">
        <ele>1262</ele>
        <time>2022-06-09T17:42:54Z</time>
      </trkpt>
      <trkpt lat="43.91384" lon="6.50951">
        <ele>1258</ele>
        <time>2022-06-09T17:43:01Z</time>
      </trkpt>
      <trkpt lat="43.91356" lon="6.50955">
        <ele>1255</ele>
        <time>2022-06-09T17:43:08Z</time>
      </trkpt>
      <trkpt lat="43.91337" lon="6.50968">
        <ele>1251</ele>
        <time>2022-06-09T17:43:13Z</time>
      </trkpt>
      <trkpt lat="43.91324" lon="6.50969">
        <ele>1248</ele>
        <time>2022-06-09T17:43:16Z</time>
      </trkpt>
      <trkpt lat="43.91303" lon="6.50982">
        <ele>1240</ele>
        <time>2022-06-09T17:43:21Z</time>
      </trkpt>
      <trkpt lat="43.91295" lon="6.50982">
        <ele>1238</ele>
        <time>2022-06-09T17:43:23Z</time>
      </trkpt>
      <trkpt lat="43.91285" lon="6.50978">
        <ele>1236</ele>
        <time>2022-06-09T17:43:25Z</time>
      </trkpt>
      <trkpt lat="43.91273" lon="6.50955">
        <ele>1238</ele>
        <time>2022-06-09T17:43:30Z</time>
      </trkpt>
      <trkpt lat="43.91263" lon="6.50946">
        <ele>1237</ele>
        <time>2022-06-09T17:43:33Z</time>
      </trkpt>
      <trkpt lat="43.91251" lon="6.5094">
        <ele>1236</ele>
        <time>2022-06-09T17:43:36Z</time>
      </trkpt>
      <trkpt lat="43.91243" lon="6.50939">
        <ele>1233</ele>
        <time>2022-06-09T17:43:38Z</time>
      </trkpt>
      <trkpt lat="43.91225" lon="6.50926">
        <ele>1231</ele>
        <time>2022-06-09T17:43:43Z</time>
      </trkpt>
      <trkpt lat="43.91217" lon="6.50924">
        <ele>1229</ele>
        <time>2022-06-09T17:43:44Z</time>
      </trkpt>
      <trkpt lat="43.912" lon="6.5091">
        <ele>1226</ele>
        <time>2022-06-09T17:43:49Z</time>
      </trkpt>
      <trkpt lat="43.91184" lon="6.50903">
        <ele>1223</ele>
        <time>2022-06-09T17:43:53Z</time>
      </trkpt>
      <trkpt lat="43.91177" lon="6.50895">
        <ele>1222</ele>
        <time>2022-06-09T17:43:55Z</time>
      </trkpt>
      <trkpt lat="43.9117" lon="6.50891">
        <ele>1220</ele>
        <time>2022-06-09T17:43:57Z</time>
      </trkpt>
      <trkpt lat="43.91161" lon="6.50894">
        <ele>1220</ele>
        <time>2022-06-09T17:43:59Z</time>
      </trkpt>
      <trkpt lat="43.91157" lon="6.50888">
        <ele>1223</ele>
        <time>2022-06-09T17:44:00Z</time>
      </trkpt>
      <trkpt lat="43.9115" lon="6.50885">
        <ele>1225</ele>
        <time>2022-06-09T17:44:02Z</time>
      </trkpt>
      <trkpt lat="43.91152" lon="6.50885">
        <ele>1225</ele>
        <time>2022-06-09T17:44:03Z</time>
      </trkpt>
      <trkpt lat="43.91153" lon="6.50891">
        <ele>1223</ele>
        <time>2022-06-09T17:44:04Z</time>
      </trkpt>
      <trkpt lat="43.91151" lon="6.50904">
        <ele>1221</ele>
        <time>2022-06-09T17:44:06Z</time>
      </trkpt>
      <trkpt lat="43.91125" lon="6.50951">
        <ele>1220</ele>
        <time>2022-06-09T17:44:16Z</time>
      </trkpt>
      <trkpt lat="43.91118" lon="6.50974">
        <ele>1217</ele>
        <time>2022-06-09T17:44:20Z</time>
      </trkpt>
      <trkpt lat="43.91104" lon="6.51004">
        <ele>1216</ele>
        <time>2022-06-09T17:44:26Z</time>
      </trkpt>
      <trkpt lat="43.91091" lon="6.51058">
        <ele>1209</ele>
        <time>2022-06-09T17:44:36Z</time>
      </trkpt>
      <trkpt lat="43.91066" lon="6.51119">
        <ele>1207</ele>
        <time>2022-06-09T17:44:47Z</time>
      </trkpt>
      <trkpt lat="43.91061" lon="6.51141">
        <ele>1206</ele>
        <time>2022-06-09T17:44:51Z</time>
      </trkpt>
      <trkpt lat="43.91055" lon="6.51152">
        <ele>1207</ele>
        <time>2022-06-09T17:44:54Z</time>
      </trkpt>
      <trkpt lat="43.91051" lon="6.51195">
        <ele>1203</ele>
        <time>2022-06-09T17:45:01Z</time>
      </trkpt>
      <trkpt lat="43.91046" lon="6.51217">
        <ele>1202</ele>
        <time>2022-06-09T17:45:05Z</time>
      </trkpt>
      <trkpt lat="43.91022" lon="6.51269">
        <ele>1202</ele>
        <time>2022-06-09T17:45:15Z</time>
      </trkpt>
      <trkpt lat="43.9101" lon="6.51286">
        <ele>1202</ele>
        <time>2022-06-09T17:45:19Z</time>
      </trkpt>
      <trkpt lat="43.90989" lon="6.51308">
        <ele>1202</ele>
        <time>2022-06-09T17:45:25Z</time>
      </trkpt>
      <trkpt lat="43.90955" lon="6.51333">
        <ele>1208</ele>
        <time>2022-06-09T17:45:34Z</time>
      </trkpt>
      <trkpt lat="43.90948" lon="6.51359">
        <ele>1206</ele>
        <time>2022-06-09T17:45:39Z</time>
      </trkpt>
      <trkpt lat="43.90906" lon="6.51438">
        <ele>1205</ele>
        <time>2022-06-09T17:45:56Z</time>
      </trkpt>
      <trkpt lat="43.90888" lon="6.51461">
        <ele>1206</ele>
        <time>2022-06-09T17:46:01Z</time>
      </trkpt>
      <trkpt lat="43.90853" lon="6.51492">
        <ele>1210</ele>
        <time>2022-06-09T17:46:11Z</time>
      </trkpt>
      <trkpt lat="43.90841" lon="6.51508">
        <ele>1210</ele>
        <time>2022-06-09T17:46:15Z</time>
      </trkpt>
      <trkpt lat="43.90832" lon="6.51512">
        <ele>1211</ele>
        <time>2022-06-09T17:46:17Z</time>
      </trkpt>
      <trkpt lat="43.90822" lon="6.51522">
        <ele>1210</ele>
        <time>2022-06-09T17:46:20Z</time>
      </trkpt>
      <trkpt lat="43.90802" lon="6.51534">
        <ele>1210</ele>
        <time>2022-06-09T17:46:25Z</time>
      </trkpt>
      <trkpt lat="43.90766" lon="6.51564">
        <ele>1208</ele>
        <time>2022-06-09T17:46:35Z</time>
      </trkpt>
      <trkpt lat="43.90732" lon="6.51572">
        <ele>1209</ele>
        <time>2022-06-09T17:46:43Z</time>
      </trkpt>
      <trkpt lat="43.9067" lon="6.51598">
        <ele>1208</ele>
        <time>2022-06-09T17:46:58Z</time>
      </trkpt>
      <trkpt lat="43.9067" lon="6.51602">
        <ele>1207</ele>
        <time>2022-06-09T17:46:59Z</time>
      </trkpt>
      <trkpt lat="43.9065" lon="6.51606">
        <ele>1212</ele>
        <time>2022-06-09T17:47:03Z</time>
      </trkpt>
      <trkpt lat="43.90648" lon="6.5161">
        <ele>1212</ele>
        <time>2022-06-09T17:47:04Z</time>
      </trkpt>
      <trkpt lat="43.90646" lon="6.51643">
        <ele>1205</ele>
        <time>2022-06-09T17:47:10Z</time>
      </trkpt>
      <trkpt lat="43.9064" lon="6.51667">
        <ele>1202</ele>
        <time>2022-06-09T17:47:14Z</time>
      </trkpt>
      <trkpt lat="43.90641" lon="6.51689">
        <ele>1198</ele>
        <time>2022-06-09T17:47:18Z</time>
      </trkpt>
      <trkpt lat="43.90639" lon="6.51698">
        <ele>1197</ele>
        <time>2022-06-09T17:47:19Z</time>
      </trkpt>
      <trkpt lat="43.90632" lon="6.51707">
        <ele>1198</ele>
        <time>2022-06-09T17:47:22Z</time>
      </trkpt>
      <trkpt lat="43.90587" lon="6.51807">
        <ele>1192</ele>
        <time>2022-06-09T17:47:41Z</time>
      </trkpt>
      <trkpt lat="43.90544" lon="6.51918">
        <ele>1184</ele>
        <time>2022-06-09T17:48:03Z</time>
      </trkpt>
      <trkpt lat="43.90531" lon="6.51962">
        <ele>1182</ele>
        <time>2022-06-09T17:48:11Z</time>
      </trkpt>
      <trkpt lat="43.90521" lon="6.52024">
        <ele>1179</ele>
        <time>2022-06-09T17:48:21Z</time>
      </trkpt>
      <trkpt lat="43.90508" lon="6.52061">
        <ele>1178</ele>
        <time>2022-06-09T17:48:28Z</time>
      </trkpt>
      <trkpt lat="43.90507" lon="6.5209">
        <ele>1175</ele>
        <time>2022-06-09T17:48:33Z</time>
      </trkpt>
      <trkpt lat="43.90501" lon="6.52112">
        <ele>1173</ele>
        <time>2022-06-09T17:48:37Z</time>
      </trkpt>
      <trkpt lat="43.90491" lon="6.52129">
        <ele>1170</ele>
        <time>2022-06-09T17:48:41Z</time>
      </trkpt>
      <trkpt lat="43.90475" lon="6.52133">
        <ele>1169</ele>
        <time>2022-06-09T17:48:45Z</time>
      </trkpt>
      <trkpt lat="43.90441" lon="6.52171">
        <ele>1162</ele>
        <time>2022-06-09T17:48:55Z</time>
      </trkpt>
      <trkpt lat="43.9042" lon="6.52186">
        <ele>1160</ele>
        <time>2022-06-09T17:49:00Z</time>
      </trkpt>
      <trkpt lat="43.90419" lon="6.52189">
        <ele>1160</ele>
        <time>2022-06-09T17:49:01Z</time>
      </trkpt>
      <trkpt lat="43.90421" lon="6.52189">
        <ele>1160</ele>
        <time>2022-06-09T17:49:01Z</time>
      </trkpt>
      <trkpt lat="43.90414" lon="6.52191">
        <ele>1159</ele>
        <time>2022-06-09T17:49:03Z</time>
      </trkpt>
      <trkpt lat="43.9039" lon="6.52185">
        <ele>1152</ele>
        <time>2022-06-09T17:49:09Z</time>
      </trkpt>
      <trkpt lat="43.90383" lon="6.52186">
        <ele>1150</ele>
        <time>2022-06-09T17:49:10Z</time>
      </trkpt>
      <trkpt lat="43.90369" lon="6.52175">
        <ele>1147</ele>
        <time>2022-06-09T17:49:14Z</time>
      </trkpt>
      <trkpt lat="43.90366" lon="6.52166">
        <ele>1148</ele>
        <time>2022-06-09T17:49:16Z</time>
      </trkpt>
      <trkpt lat="43.90358" lon="6.52154">
        <ele>1147</ele>
        <time>2022-06-09T17:49:18Z</time>
      </trkpt>
      <trkpt lat="43.90348" lon="6.5213">
        <ele>1147</ele>
        <time>2022-06-09T17:49:23Z</time>
      </trkpt>
      <trkpt lat="43.90331" lon="6.52102">
        <ele>1145</ele>
        <time>2022-06-09T17:49:29Z</time>
      </trkpt>
      <trkpt lat="43.90324" lon="6.52083">
        <ele>1144</ele>
        <time>2022-06-09T17:49:33Z</time>
      </trkpt>
      <trkpt lat="43.90326" lon="6.52081">
        <ele>1145</ele>
        <time>2022-06-09T17:49:33Z</time>
      </trkpt>
      <trkpt lat="43.90324" lon="6.52081">
        <ele>1144</ele>
        <time>2022-06-09T17:49:34Z</time>
      </trkpt>
      <trkpt lat="43.90323" lon="6.52071">
        <ele>1145</ele>
        <time>2022-06-09T17:49:36Z</time>
      </trkpt>
      <trkpt lat="43.90293" lon="6.52013">
        <ele>1139</ele>
        <time>2022-06-09T17:49:48Z</time>
      </trkpt>
      <trkpt lat="43.90286" lon="6.52008">
        <ele>1137</ele>
        <time>2022-06-09T17:49:49Z</time>
      </trkpt>
      <trkpt lat="43.90276" lon="6.51993">
        <ele>1135</ele>
        <time>2022-06-09T17:49:53Z</time>
      </trkpt>
      <trkpt lat="43.90264" lon="6.51983">
        <ele>1132</ele>
        <time>2022-06-09T17:49:56Z</time>
      </trkpt>
      <trkpt lat="43.90248" lon="6.51959">
        <ele>1131</ele>
        <time>2022-06-09T17:50:02Z</time>
      </trkpt>
      <trkpt lat="43.90237" lon="6.51968">
        <ele>1127</ele>
        <time>2022-06-09T17:50:05Z</time>
      </trkpt>
      <trkpt lat="43.9022" lon="6.51972">
        <ele>1122</ele>
        <time>2022-06-09T17:50:09Z</time>
      </trkpt>
      <trkpt lat="43.90215" lon="6.5198">
        <ele>1119</ele>
        <time>2022-06-09T17:50:10Z</time>
      </trkpt>
      <trkpt lat="43.90233" lon="6.51995">
        <ele>1121</ele>
        <time>2022-06-09T17:50:15Z</time>
      </trkpt>
      <trkpt lat="43.9024" lon="6.52008">
        <ele>1120</ele>
        <time>2022-06-09T17:50:18Z</time>
      </trkpt>
      <trkpt lat="43.90239" lon="6.52021">
        <ele>1118</ele>
        <time>2022-06-09T17:50:20Z</time>
      </trkpt>
      <trkpt lat="43.90228" lon="6.52037">
        <ele>1113</ele>
        <time>2022-06-09T17:50:24Z</time>
      </trkpt>
      <trkpt lat="43.90228" lon="6.52045">
        <ele>1111</ele>
        <time>2022-06-09T17:50:25Z</time>
      </trkpt>
      <trkpt lat="43.90239" lon="6.52087">
        <ele>1107</ele>
        <time>2022-06-09T17:50:33Z</time>
      </trkpt>
      <trkpt lat="43.90239" lon="6.52121">
        <ele>1104</ele>
        <time>2022-06-09T17:50:39Z</time>
      </trkpt>
      <trkpt lat="43.90245" lon="6.52153">
        <ele>1103</ele>
        <time>2022-06-09T17:50:44Z</time>
      </trkpt>
      <trkpt lat="43.90243" lon="6.52165">
        <ele>1101</ele>
        <time>2022-06-09T17:50:46Z</time>
      </trkpt>
      <trkpt lat="43.90235" lon="6.52178">
        <ele>1098</ele>
        <time>2022-06-09T17:50:49Z</time>
      </trkpt>
      <trkpt lat="43.90219" lon="6.52191">
        <ele>1092</ele>
        <time>2022-06-09T17:50:53Z</time>
      </trkpt>
      <trkpt lat="43.90205" lon="6.52196">
        <ele>1087</ele>
        <time>2022-06-09T17:50:57Z</time>
      </trkpt>
      <trkpt lat="43.90197" lon="6.52204">
        <ele>1084</ele>
        <time>2022-06-09T17:50:59Z</time>
      </trkpt>
      <trkpt lat="43.90192" lon="6.52212">
        <ele>1082</ele>
        <time>2022-06-09T17:51:01Z</time>
      </trkpt>
      <trkpt lat="43.90188" lon="6.52228">
        <ele>1079</ele>
        <time>2022-06-09T17:51:04Z</time>
      </trkpt>
      <trkpt lat="43.90185" lon="6.52259">
        <ele>1076</ele>
        <time>2022-06-09T17:51:09Z</time>
      </trkpt>
      <trkpt lat="43.90178" lon="6.52281">
        <ele>1073</ele>
        <time>2022-06-09T17:51:13Z</time>
      </trkpt>
      <trkpt lat="43.90145" lon="6.52335">
        <ele>1064</ele>
        <time>2022-06-09T17:51:25Z</time>
      </trkpt>
      <trkpt lat="43.90136" lon="6.52346">
        <ele>1062</ele>
        <time>2022-06-09T17:51:28Z</time>
      </trkpt>
      <trkpt lat="43.90122" lon="6.52353">
        <ele>1060</ele>
        <time>2022-06-09T17:51:31Z</time>
      </trkpt>
      <trkpt lat="43.90114" lon="6.52352">
        <ele>1059</ele>
        <time>2022-06-09T17:51:33Z</time>
      </trkpt>
      <trkpt lat="43.90113" lon="6.5235">
        <ele>1059</ele>
        <time>2022-06-09T17:51:34Z</time>
      </trkpt>
      <trkpt lat="43.90115" lon="6.52345">
        <ele>1059</ele>
        <time>2022-06-09T17:51:35Z</time>
      </trkpt>
      <trkpt lat="43.90111" lon="6.52332">
        <ele>1059</ele>
        <time>2022-06-09T17:51:37Z</time>
      </trkpt>
      <trkpt lat="43.90109" lon="6.52311">
        <ele>1059</ele>
        <time>2022-06-09T17:51:40Z</time>
      </trkpt>
      <trkpt lat="43.90087" lon="6.52277">
        <ele>1056</ele>
        <time>2022-06-09T17:51:48Z</time>
      </trkpt>
      <trkpt lat="43.90073" lon="6.52273">
        <ele>1054</ele>
        <time>2022-06-09T17:51:51Z</time>
      </trkpt>
      <trkpt lat="43.90031" lon="6.52295">
        <ele>1048</ele>
        <time>2022-06-09T17:52:02Z</time>
      </trkpt>
      <trkpt lat="43.90022" lon="6.52293">
        <ele>1047</ele>
        <time>2022-06-09T17:52:04Z</time>
      </trkpt>
      <trkpt lat="43.89993" lon="6.52184">
        <ele>1051</ele>
        <time>2022-06-09T17:52:24Z</time>
      </trkpt>
      <trkpt lat="43.89983" lon="6.52122">
        <ele>1057</ele>
        <time>2022-06-09T17:52:34Z</time>
      </trkpt>
      <trkpt lat="43.89976" lon="6.52115">
        <ele>1056</ele>
        <time>2022-06-09T17:52:36Z</time>
      </trkpt>
      <trkpt lat="43.89949" lon="6.52099">
        <ele>1055</ele>
        <time>2022-06-09T17:52:43Z</time>
      </trkpt>
      <trkpt lat="43.89918" lon="6.5207">
        <ele>1055</ele>
        <time>2022-06-09T17:52:52Z</time>
      </trkpt>
      <trkpt lat="43.89903" lon="6.52047">
        <ele>1054</ele>
        <time>2022-06-09T17:52:57Z</time>
      </trkpt>
      <trkpt lat="43.89899" lon="6.52019">
        <ele>1055</ele>
        <time>2022-06-09T17:53:02Z</time>
      </trkpt>
      <trkpt lat="43.89911" lon="6.51963">
        <ele>1060</ele>
        <time>2022-06-09T17:53:12Z</time>
      </trkpt>
      <trkpt lat="43.89912" lon="6.51939">
        <ele>1061</ele>
        <time>2022-06-09T17:53:16Z</time>
      </trkpt>
      <trkpt lat="43.8992" lon="6.51902">
        <ele>1064</ele>
        <time>2022-06-09T17:53:22Z</time>
      </trkpt>
      <trkpt lat="43.89917" lon="6.51871">
        <ele>1064</ele>
        <time>2022-06-09T17:53:28Z</time>
      </trkpt>
      <trkpt lat="43.8991" lon="6.51838">
        <ele>1063</ele>
        <time>2022-06-09T17:53:33Z</time>
      </trkpt>
      <trkpt lat="43.8991" lon="6.51805">
        <ele>1064</ele>
        <time>2022-06-09T17:53:39Z</time>
      </trkpt>
      <trkpt lat="43.89914" lon="6.51773">
        <ele>1065</ele>
        <time>2022-06-09T17:53:44Z</time>
      </trkpt>
      <trkpt lat="43.8991" lon="6.51738">
        <ele>1068</ele>
        <time>2022-06-09T17:53:50Z</time>
      </trkpt>
      <trkpt lat="43.89877" lon="6.51728">
        <ele>1070</ele>
        <time>2022-06-09T17:53:58Z</time>
      </trkpt>
      <trkpt lat="43.8987" lon="6.51729">
        <ele>1070</ele>
        <time>2022-06-09T17:54:00Z</time>
      </trkpt>
      <trkpt lat="43.89865" lon="6.51735">
        <ele>1070</ele>
        <time>2022-06-09T17:54:01Z</time>
      </trkpt>
      <trkpt lat="43.89859" lon="6.51751">
        <ele>1067</ele>
        <time>2022-06-09T17:54:04Z</time>
      </trkpt>
      <trkpt lat="43.89854" lon="6.51756">
        <ele>1066</ele>
        <time>2022-06-09T17:54:06Z</time>
      </trkpt>
      <trkpt lat="43.89813" lon="6.51765">
        <ele>1068</ele>
        <time>2022-06-09T17:54:16Z</time>
      </trkpt>
      <trkpt lat="43.89803" lon="6.5177">
        <ele>1069</ele>
        <time>2022-06-09T17:54:18Z</time>
      </trkpt>
      <trkpt lat="43.8977" lon="6.51797">
        <ele>1066</ele>
        <time>2022-06-09T17:54:27Z</time>
      </trkpt>
      <trkpt lat="43.89746" lon="6.51803">
        <ele>1067</ele>
        <time>2022-06-09T17:54:33Z</time>
      </trkpt>
      <trkpt lat="43.89728" lon="6.51816">
        <ele>1061</ele>
        <time>2022-06-09T17:54:37Z</time>
      </trkpt>
      <trkpt lat="43.89722" lon="6.51817">
        <ele>1060</ele>
        <time>2022-06-09T17:54:39Z</time>
      </trkpt>
      <trkpt lat="43.89701" lon="6.51811">
        <ele>1061</ele>
        <time>2022-06-09T17:54:44Z</time>
      </trkpt>
      <trkpt lat="43.89687" lon="6.51801">
        <ele>1063</ele>
        <time>2022-06-09T17:54:48Z</time>
      </trkpt>
      <trkpt lat="43.89678" lon="6.51791">
        <ele>1066</ele>
        <time>2022-06-09T17:54:50Z</time>
      </trkpt>
      <trkpt lat="43.89664" lon="6.51764">
        <ele>1075</ele>
        <time>2022-06-09T17:54:56Z</time>
      </trkpt>
      <trkpt lat="43.89647" lon="6.51738">
        <ele>1079</ele>
        <time>2022-06-09T17:55:02Z</time>
      </trkpt>
      <trkpt lat="43.89597" lon="6.51681">
        <ele>1082</ele>
        <time>2022-06-09T17:55:17Z</time>
      </trkpt>
      <trkpt lat="43.89581" lon="6.51652">
        <ele>1087</ele>
        <time>2022-06-09T17:55:23Z</time>
      </trkpt>
      <trkpt lat="43.89567" lon="6.51635">
        <ele>1087</ele>
        <time>2022-06-09T17:55:27Z</time>
      </trkpt>
      <trkpt lat="43.89536" lon="6.51585">
        <ele>1090</ele>
        <time>2022-06-09T17:55:38Z</time>
      </trkpt>
      <trkpt lat="43.89519" lon="6.51566">
        <ele>1090</ele>
        <time>2022-06-09T17:55:44Z</time>
      </trkpt>
      <trkpt lat="43.895" lon="6.51535">
        <ele>1092</ele>
        <time>2022-06-09T17:55:50Z</time>
      </trkpt>
      <trkpt lat="43.89493" lon="6.51519">
        <ele>1093</ele>
        <time>2022-06-09T17:55:54Z</time>
      </trkpt>
      <trkpt lat="43.8949" lon="6.5149">
        <ele>1099</ele>
        <time>2022-06-09T17:55:58Z</time>
      </trkpt>
      <trkpt lat="43.89461" lon="6.51438">
        <ele>1099</ele>
        <time>2022-06-09T17:56:10Z</time>
      </trkpt>
      <trkpt lat="43.89442" lon="6.51393">
        <ele>1100</ele>
        <time>2022-06-09T17:56:18Z</time>
      </trkpt>
      <trkpt lat="43.89439" lon="6.51325">
        <ele>1109</ele>
        <time>2022-06-09T17:56:30Z</time>
      </trkpt>
      <trkpt lat="43.8943" lon="6.51295">
        <ele>1111</ele>
        <time>2022-06-09T17:56:35Z</time>
      </trkpt>
      <trkpt lat="43.89421" lon="6.51277">
        <ele>1112</ele>
        <time>2022-06-09T17:56:39Z</time>
      </trkpt>
      <trkpt lat="43.89399" lon="6.51245">
        <ele>1114</ele>
        <time>2022-06-09T17:56:46Z</time>
      </trkpt>
      <trkpt lat="43.89377" lon="6.51219">
        <ele>1115</ele>
        <time>2022-06-09T17:56:53Z</time>
      </trkpt>
      <trkpt lat="43.8936" lon="6.51193">
        <ele>1117</ele>
        <time>2022-06-09T17:56:59Z</time>
      </trkpt>
      <trkpt lat="43.89346" lon="6.51162">
        <ele>1120</ele>
        <time>2022-06-09T17:57:05Z</time>
      </trkpt>
      <trkpt lat="43.89334" lon="6.51121">
        <ele>1124</ele>
        <time>2022-06-09T17:57:13Z</time>
      </trkpt>
      <trkpt lat="43.89326" lon="6.51114">
        <ele>1124</ele>
        <time>2022-06-09T17:57:15Z</time>
      </trkpt>
      <trkpt lat="43.89316" lon="6.51111">
        <ele>1124</ele>
        <time>2022-06-09T17:57:17Z</time>
      </trkpt>
      <trkpt lat="43.89304" lon="6.51102">
        <ele>1123</ele>
        <time>2022-06-09T17:57:20Z</time>
      </trkpt>
      <trkpt lat="43.89285" lon="6.5108">
        <ele>1124</ele>
        <time>2022-06-09T17:57:26Z</time>
      </trkpt>
      <trkpt lat="43.89279" lon="6.51068">
        <ele>1125</ele>
        <time>2022-06-09T17:57:29Z</time>
      </trkpt>
      <trkpt lat="43.89267" lon="6.51058">
        <ele>1124</ele>
        <time>2022-06-09T17:57:32Z</time>
      </trkpt>
      <trkpt lat="43.89259" lon="6.51047">
        <ele>1124</ele>
        <time>2022-06-09T17:57:35Z</time>
      </trkpt>
      <trkpt lat="43.89262" lon="6.51042">
        <ele>1125</ele>
        <time>2022-06-09T17:57:36Z</time>
      </trkpt>
      <trkpt lat="43.89267" lon="6.51043">
        <ele>1126</ele>
        <time>2022-06-09T17:57:37Z</time>
      </trkpt>
      <trkpt lat="43.8928" lon="6.51038">
        <ele>1129</ele>
        <time>2022-06-09T17:57:40Z</time>
      </trkpt>
      <trkpt lat="43.89284" lon="6.51026">
        <ele>1131</ele>
        <time>2022-06-09T17:57:42Z</time>
      </trkpt>
      <trkpt lat="43.89283" lon="6.5101">
        <ele>1133</ele>
        <time>2022-06-09T17:57:45Z</time>
      </trkpt>
      <trkpt lat="43.89287" lon="6.50996">
        <ele>1135</ele>
        <time>2022-06-09T17:57:47Z</time>
      </trkpt>
      <trkpt lat="43.89287" lon="6.50977">
        <ele>1136</ele>
        <time>2022-06-09T17:57:51Z</time>
      </trkpt>
      <trkpt lat="43.89294" lon="6.50964">
        <ele>1138</ele>
        <time>2022-06-09T17:57:53Z</time>
      </trkpt>
      <trkpt lat="43.89305" lon="6.50972">
        <ele>1140</ele>
        <time>2022-06-09T17:57:56Z</time>
      </trkpt>
      <trkpt lat="43.89311" lon="6.50986">
        <ele>1141</ele>
        <time>2022-06-09T17:57:59Z</time>
      </trkpt>
      <trkpt lat="43.89319" lon="6.50997">
        <ele>1142</ele>
        <time>2022-06-09T17:58:02Z</time>
      </trkpt>
      <trkpt lat="43.89327" lon="6.50996">
        <ele>1144</ele>
        <time>2022-06-09T17:58:04Z</time>
      </trkpt>
      <trkpt lat="43.8933" lon="6.50983">
        <ele>1145</ele>
        <time>2022-06-09T17:58:06Z</time>
      </trkpt>
      <trkpt lat="43.89338" lon="6.50973">
        <ele>1147</ele>
        <time>2022-06-09T17:58:08Z</time>
      </trkpt>
      <trkpt lat="43.89337" lon="6.50971">
        <ele>1147</ele>
        <time>2022-06-09T17:58:09Z</time>
      </trkpt>
      <trkpt lat="43.89332" lon="6.50974">
        <ele>1146</ele>
        <time>2022-06-09T17:58:10Z</time>
      </trkpt>
      <trkpt lat="43.89332" lon="6.50983">
        <ele>1146</ele>
        <time>2022-06-09T17:58:12Z</time>
      </trkpt>
      <trkpt lat="43.89335" lon="6.50983">
        <ele>1146</ele>
        <time>2022-06-09T17:58:12Z</time>
      </trkpt>
      <trkpt lat="43.89335" lon="6.50981">
        <ele>1146</ele>
        <time>2022-06-09T17:58:13Z</time>
      </trkpt>
      <trkpt lat="43.89327" lon="6.50997">
        <ele>1144</ele>
        <time>2022-06-09T17:58:16Z</time>
      </trkpt>
      <trkpt lat="43.89329" lon="6.50995">
        <ele>1144</ele>
        <time>2022-06-09T17:58:16Z</time>
      </trkpt>
      <trkpt lat="43.8932" lon="6.50995">
        <ele>1142</ele>
        <time>2022-06-09T17:58:19Z</time>
      </trkpt>
      <trkpt lat="43.89302" lon="6.50973">
        <ele>1139</ele>
        <time>2022-06-09T17:58:24Z</time>
      </trkpt>
      <trkpt lat="43.89291" lon="6.50969">
        <ele>1137</ele>
        <time>2022-06-09T17:58:27Z</time>
      </trkpt>
      <trkpt lat="43.89287" lon="6.50974">
        <ele>1136</ele>
        <time>2022-06-09T17:58:28Z</time>
      </trkpt>
      <trkpt lat="43.89283" lon="6.50991">
        <ele>1134</ele>
        <time>2022-06-09T17:58:31Z</time>
      </trkpt>
      <trkpt lat="43.89281" lon="6.51031">
        <ele>1130</ele>
        <time>2022-06-09T17:58:38Z</time>
      </trkpt>
      <trkpt lat="43.89273" lon="6.51041">
        <ele>1127</ele>
        <time>2022-06-09T17:58:40Z</time>
      </trkpt>
      <trkpt lat="43.89266" lon="6.5104">
        <ele>1126</ele>
        <time>2022-06-09T17:58:42Z</time>
      </trkpt>
      <trkpt lat="43.89255" lon="6.5103">
        <ele>1125</ele>
        <time>2022-06-09T17:58:45Z</time>
      </trkpt>
      <trkpt lat="43.8925" lon="6.51017">
        <ele>1125</ele>
        <time>2022-06-09T17:58:48Z</time>
      </trkpt>
      <trkpt lat="43.89252" lon="6.50992">
        <ele>1128</ele>
        <time>2022-06-09T17:58:52Z</time>
      </trkpt>
      <trkpt lat="43.89248" lon="6.50985">
        <ele>1127</ele>
        <time>2022-06-09T17:58:53Z</time>
      </trkpt>
      <trkpt lat="43.89248" lon="6.50969">
        <ele>1128</ele>
        <time>2022-06-09T17:58:56Z</time>
      </trkpt>
      <trkpt lat="43.8924" lon="6.50937">
        <ele>1128</ele>
        <time>2022-06-09T17:59:02Z</time>
      </trkpt>
      <trkpt lat="43.89228" lon="6.50907">
        <ele>1127</ele>
        <time>2022-06-09T17:59:07Z</time>
      </trkpt>
      <trkpt lat="43.89205" lon="6.50789">
        <ele>1131</ele>
        <time>2022-06-09T17:59:28Z</time>
      </trkpt>
      <trkpt lat="43.8921" lon="6.50762">
        <ele>1132</ele>
        <time>2022-06-09T17:59:33Z</time>
      </trkpt>
      <trkpt lat="43.89217" lon="6.50747">
        <ele>1134</ele>
        <time>2022-06-09T17:59:36Z</time>
      </trkpt>
      <trkpt lat="43.89234" lon="6.50695">
        <ele>1136</ele>
        <time>2022-06-09T17:59:45Z</time>
      </trkpt>
      <trkpt lat="43.89238" lon="6.50668">
        <ele>1136</ele>
        <time>2022-06-09T17:59:50Z</time>
      </trkpt>
      <trkpt lat="43.89231" lon="6.50608">
        <ele>1135</ele>
        <time>2022-06-09T18:00:00Z</time>
      </trkpt>
      <trkpt lat="43.89234" lon="6.50549">
        <ele>1136</ele>
        <time>2022-06-09T18:00:10Z</time>
      </trkpt>
      <trkpt lat="43.89226" lon="6.50509">
        <ele>1133</ele>
        <time>2022-06-09T18:00:17Z</time>
      </trkpt>
      <trkpt lat="43.89238" lon="6.50451">
        <ele>1134</ele>
        <time>2022-06-09T18:00:27Z</time>
      </trkpt>
      <trkpt lat="43.89234" lon="6.50346">
        <ele>1131</ele>
        <time>2022-06-09T18:00:45Z</time>
      </trkpt>
      <trkpt lat="43.89236" lon="6.50329">
        <ele>1132</ele>
        <time>2022-06-09T18:00:48Z</time>
      </trkpt>
      <trkpt lat="43.89244" lon="6.50316">
        <ele>1135</ele>
        <time>2022-06-09T18:00:51Z</time>
      </trkpt>
      <trkpt lat="43.89264" lon="6.503">
        <ele>1144</ele>
        <time>2022-06-09T18:00:56Z</time>
      </trkpt>
      <trkpt lat="43.89276" lon="6.50285">
        <ele>1151</ele>
        <time>2022-06-09T18:01:00Z</time>
      </trkpt>
      <trkpt lat="43.89281" lon="6.50273">
        <ele>1154</ele>
        <time>2022-06-09T18:01:02Z</time>
      </trkpt>
      <trkpt lat="43.8928" lon="6.50261">
        <ele>1154</ele>
        <time>2022-06-09T18:01:04Z</time>
      </trkpt>
      <trkpt lat="43.89273" lon="6.50249">
        <ele>1151</ele>
        <time>2022-06-09T18:01:07Z</time>
      </trkpt>
      <trkpt lat="43.89266" lon="6.50228">
        <ele>1153</ele>
        <time>2022-06-09T18:01:11Z</time>
      </trkpt>
      <trkpt lat="43.89254" lon="6.50211">
        <ele>1151</ele>
        <time>2022-06-09T18:01:15Z</time>
      </trkpt>
      <trkpt lat="43.8924" lon="6.50198">
        <ele>1150</ele>
        <time>2022-06-09T18:01:19Z</time>
      </trkpt>
      <trkpt lat="43.89217" lon="6.50185">
        <ele>1147</ele>
        <time>2022-06-09T18:01:25Z</time>
      </trkpt>
      <trkpt lat="43.8919" lon="6.5018">
        <ele>1142</ele>
        <time>2022-06-09T18:01:31Z</time>
      </trkpt>
      <trkpt lat="43.89167" lon="6.50203">
        <ele>1132</ele>
        <time>2022-06-09T18:01:37Z</time>
      </trkpt>
      <trkpt lat="43.89158" lon="6.50199">
        <ele>1131</ele>
        <time>2022-06-09T18:01:40Z</time>
      </trkpt>
      <trkpt lat="43.89149" lon="6.50184">
        <ele>1132</ele>
        <time>2022-06-09T18:01:43Z</time>
      </trkpt>
      <trkpt lat="43.89136" lon="6.50182">
        <ele>1130</ele>
        <time>2022-06-09T18:01:46Z</time>
      </trkpt>
      <trkpt lat="43.89122" lon="6.50172">
        <ele>1129</ele>
        <time>2022-06-09T18:01:50Z</time>
      </trkpt>
      <trkpt lat="43.891" lon="6.50163">
        <ele>1126</ele>
        <time>2022-06-09T18:01:55Z</time>
      </trkpt>
      <trkpt lat="43.89084" lon="6.50163">
        <ele>1123</ele>
        <time>2022-06-09T18:01:59Z</time>
      </trkpt>
      <trkpt lat="43.89036" lon="6.50147">
        <ele>1114</ele>
        <time>2022-06-09T18:02:10Z</time>
      </trkpt>
      <trkpt lat="43.89018" lon="6.50149">
        <ele>1110</ele>
        <time>2022-06-09T18:02:15Z</time>
      </trkpt>
      <trkpt lat="43.89004" lon="6.50154">
        <ele>1106</ele>
        <time>2022-06-09T18:02:18Z</time>
      </trkpt>
      <trkpt lat="43.88987" lon="6.50167">
        <ele>1102</ele>
        <time>2022-06-09T18:02:22Z</time>
      </trkpt>
      <trkpt lat="43.88971" lon="6.50184">
        <ele>1098</ele>
        <time>2022-06-09T18:02:27Z</time>
      </trkpt>
      <trkpt lat="43.88964" lon="6.50195">
        <ele>1096</ele>
        <time>2022-06-09T18:02:30Z</time>
      </trkpt>
      <trkpt lat="43.88933" lon="6.50218">
        <ele>1090</ele>
        <time>2022-06-09T18:02:38Z</time>
      </trkpt>
      <trkpt lat="43.88921" lon="6.50222">
        <ele>1088</ele>
        <time>2022-06-09T18:02:41Z</time>
      </trkpt>
      <trkpt lat="43.88904" lon="6.50222">
        <ele>1087</ele>
        <time>2022-06-09T18:02:45Z</time>
      </trkpt>
      <trkpt lat="43.88895" lon="6.50217">
        <ele>1087</ele>
        <time>2022-06-09T18:02:47Z</time>
      </trkpt>
      <trkpt lat="43.88882" lon="6.50214">
        <ele>1087</ele>
        <time>2022-06-09T18:02:50Z</time>
      </trkpt>
      <trkpt lat="43.88869" lon="6.50195">
        <ele>1088</ele>
        <time>2022-06-09T18:02:54Z</time>
      </trkpt>
      <trkpt lat="43.88844" lon="6.50177">
        <ele>1089</ele>
        <time>2022-06-09T18:03:01Z</time>
      </trkpt>
      <trkpt lat="43.88837" lon="6.50181">
        <ele>1088</ele>
        <time>2022-06-09T18:03:03Z</time>
      </trkpt>
      <trkpt lat="43.88821" lon="6.50198">
        <ele>1086</ele>
        <time>2022-06-09T18:03:07Z</time>
      </trkpt>
      <trkpt lat="43.88802" lon="6.50208">
        <ele>1084</ele>
        <time>2022-06-09T18:03:12Z</time>
      </trkpt>
      <trkpt lat="43.88794" lon="6.50218">
        <ele>1083</ele>
        <time>2022-06-09T18:03:15Z</time>
      </trkpt>
      <trkpt lat="43.88775" lon="6.50233">
        <ele>1082</ele>
        <time>2022-06-09T18:03:20Z</time>
      </trkpt>
      <trkpt lat="43.88769" lon="6.50232">
        <ele>1082</ele>
        <time>2022-06-09T18:03:21Z</time>
      </trkpt>
      <trkpt lat="43.88764" lon="6.50226">
        <ele>1082</ele>
        <time>2022-06-09T18:03:23Z</time>
      </trkpt>
      <trkpt lat="43.88752" lon="6.50221">
        <ele>1082</ele>
        <time>2022-06-09T18:03:26Z</time>
      </trkpt>
      <trkpt lat="43.88721" lon="6.50215">
        <ele>1080</ele>
        <time>2022-06-09T18:03:33Z</time>
      </trkpt>
      <trkpt lat="43.88698" lon="6.50205">
        <ele>1079</ele>
        <time>2022-06-09T18:03:39Z</time>
      </trkpt>
      <trkpt lat="43.88675" lon="6.5022">
        <ele>1074</ele>
        <time>2022-06-09T18:03:45Z</time>
      </trkpt>
      <trkpt lat="43.88663" lon="6.50221">
        <ele>1074</ele>
        <time>2022-06-09T18:03:47Z</time>
      </trkpt>
      <trkpt lat="43.88624" lon="6.50234">
        <ele>1073</ele>
        <time>2022-06-09T18:03:57Z</time>
      </trkpt>
      <trkpt lat="43.88605" lon="6.5026">
        <ele>1071</ele>
        <time>2022-06-09T18:04:03Z</time>
      </trkpt>
      <trkpt lat="43.88579" lon="6.50264">
        <ele>1071</ele>
        <time>2022-06-09T18:04:09Z</time>
      </trkpt>
      <trkpt lat="43.88567" lon="6.50269">
        <ele>1073</ele>
        <time>2022-06-09T18:04:12Z</time>
      </trkpt>
      <trkpt lat="43.88538" lon="6.50293">
        <ele>1075</ele>
        <time>2022-06-09T18:04:20Z</time>
      </trkpt>
      <trkpt lat="43.88523" lon="6.50301">
        <ele>1076</ele>
        <time>2022-06-09T18:04:24Z</time>
      </trkpt>
      <trkpt lat="43.8849" lon="6.50338">
        <ele>1078</ele>
        <time>2022-06-09T18:04:34Z</time>
      </trkpt>
      <trkpt lat="43.88441" lon="6.50418">
        <ele>1076</ele>
        <time>2022-06-09T18:04:51Z</time>
      </trkpt>
      <trkpt lat="43.88409" lon="6.50465">
        <ele>1075</ele>
        <time>2022-06-09T18:05:02Z</time>
      </trkpt>
      <trkpt lat="43.88374" lon="6.50527">
        <ele>1076</ele>
        <time>2022-06-09T18:05:15Z</time>
      </trkpt>
      <trkpt lat="43.88355" lon="6.50552">
        <ele>1078</ele>
        <time>2022-06-09T18:05:22Z</time>
      </trkpt>
      <trkpt lat="43.88351" lon="6.50559">
        <ele>1078</ele>
        <time>2022-06-09T18:05:23Z</time>
      </trkpt>
      <trkpt lat="43.88346" lon="6.50579">
        <ele>1075</ele>
        <time>2022-06-09T18:05:27Z</time>
      </trkpt>
      <trkpt lat="43.88312" lon="6.50641">
        <ele>1069</ele>
        <time>2022-06-09T18:05:40Z</time>
      </trkpt>
      <trkpt lat="43.88303" lon="6.50663">
        <ele>1065</ele>
        <time>2022-06-09T18:05:44Z</time>
      </trkpt>
      <trkpt lat="43.88293" lon="6.50673">
        <ele>1064</ele>
        <time>2022-06-09T18:05:47Z</time>
      </trkpt>
      <trkpt lat="43.88287" lon="6.50674">
        <ele>1064</ele>
        <time>2022-06-09T18:05:48Z</time>
      </trkpt>
      <trkpt lat="43.88287" lon="6.50677">
        <ele>1064</ele>
        <time>2022-06-09T18:05:49Z</time>
      </trkpt>
      <trkpt lat="43.88277" lon="6.50679">
        <ele>1064</ele>
        <time>2022-06-09T18:05:51Z</time>
      </trkpt>
      <trkpt lat="43.88264" lon="6.50678">
        <ele>1064</ele>
        <time>2022-06-09T18:05:54Z</time>
      </trkpt>
      <trkpt lat="43.88261" lon="6.50684">
        <ele>1064</ele>
        <time>2022-06-09T18:05:55Z</time>
      </trkpt>
      <trkpt lat="43.88259" lon="6.50681">
        <ele>1064</ele>
        <time>2022-06-09T18:05:56Z</time>
      </trkpt>
      <trkpt lat="43.88264" lon="6.50674">
        <ele>1064</ele>
        <time>2022-06-09T18:05:58Z</time>
      </trkpt>
      <trkpt lat="43.88257" lon="6.50679">
        <ele>1064</ele>
        <time>2022-06-09T18:06:00Z</time>
      </trkpt>
      <trkpt lat="43.88252" lon="6.50677">
        <ele>1064</ele>
        <time>2022-06-09T18:06:01Z</time>
      </trkpt>
      <trkpt lat="43.88246" lon="6.50655">
        <ele>1063</ele>
        <time>2022-06-09T18:06:05Z</time>
      </trkpt>
      <trkpt lat="43.88231" lon="6.50621">
        <ele>1060</ele>
        <time>2022-06-09T18:06:11Z</time>
      </trkpt>
      <trkpt lat="43.88207" lon="6.50589">
        <ele>1049</ele>
        <time>2022-06-09T18:06:19Z</time>
      </trkpt>
      <trkpt lat="43.88191" lon="6.50557">
        <ele>1045</ele>
        <time>2022-06-09T18:06:26Z</time>
      </trkpt>
      <trkpt lat="43.88187" lon="6.50554">
        <ele>1044</ele>
        <time>2022-06-09T18:06:27Z</time>
      </trkpt>
      <trkpt lat="43.8819" lon="6.50562">
        <ele>1044</ele>
        <time>2022-06-09T18:06:28Z</time>
      </trkpt>
      <trkpt lat="43.8819" lon="6.50594">
        <ele>1040</ele>
        <time>2022-06-09T18:06:34Z</time>
      </trkpt>
      <trkpt lat="43.88193" lon="6.50606">
        <ele>1041</ele>
        <time>2022-06-09T18:06:36Z</time>
      </trkpt>
      <trkpt lat="43.88186" lon="6.50613">
        <ele>1038</ele>
        <time>2022-06-09T18:06:38Z</time>
      </trkpt>
      <trkpt lat="43.88183" lon="6.5061">
        <ele>1036</ele>
        <time>2022-06-09T18:06:39Z</time>
      </trkpt>
      <trkpt lat="43.88183" lon="6.50605">
        <ele>1036</ele>
        <time>2022-06-09T18:06:40Z</time>
      </trkpt>
      <trkpt lat="43.88181" lon="6.50606">
        <ele>1035</ele>
        <time>2022-06-09T18:06:40Z</time>
      </trkpt>
      <trkpt lat="43.88173" lon="6.50593">
        <ele>1031</ele>
        <time>2022-06-09T18:06:43Z</time>
      </trkpt>
      <trkpt lat="43.88159" lon="6.50556">
        <ele>1029</ele>
        <time>2022-06-09T18:06:50Z</time>
      </trkpt>
      <trkpt lat="43.8814" lon="6.50537">
        <ele>1022</ele>
        <time>2022-06-09T18:06:55Z</time>
      </trkpt>
      <trkpt lat="43.88128" lon="6.50534">
        <ele>1016</ele>
        <time>2022-06-09T18:06:58Z</time>
      </trkpt>
      <trkpt lat="43.88112" lon="6.50524">
        <ele>1009</ele>
        <time>2022-06-09T18:07:02Z</time>
      </trkpt>
      <trkpt lat="43.88096" lon="6.50509">
        <ele>1003</ele>
        <time>2022-06-09T18:07:07Z</time>
      </trkpt>
      <trkpt lat="43.88091" lon="6.50494">
        <ele>1002</ele>
        <time>2022-06-09T18:07:10Z</time>
      </trkpt>
      <trkpt lat="43.88085" lon="6.50456">
        <ele>999</ele>
        <time>2022-06-09T18:07:16Z</time>
      </trkpt>
      <trkpt lat="43.88082" lon="6.50393">
        <ele>995</ele>
        <time>2022-06-09T18:07:27Z</time>
      </trkpt>
      <trkpt lat="43.88078" lon="6.50378">
        <ele>991</ele>
        <time>2022-06-09T18:07:30Z</time>
      </trkpt>
      <trkpt lat="43.88082" lon="6.50346">
        <ele>987</ele>
        <time>2022-06-09T18:07:35Z</time>
      </trkpt>
      <trkpt lat="43.88069" lon="6.50309">
        <ele>978</ele>
        <time>2022-06-09T18:07:42Z</time>
      </trkpt>
      <trkpt lat="43.88067" lon="6.50294">
        <ele>975</ele>
        <time>2022-06-09T18:07:45Z</time>
      </trkpt>
      <trkpt lat="43.88059" lon="6.50286">
        <ele>972</ele>
        <time>2022-06-09T18:07:47Z</time>
      </trkpt>
      <trkpt lat="43.88055" lon="6.50275">
        <ele>970</ele>
        <time>2022-06-09T18:07:49Z</time>
      </trkpt>
      <trkpt lat="43.88037" lon="6.50262">
        <ele>965</ele>
        <time>2022-06-09T18:07:54Z</time>
      </trkpt>
      <trkpt lat="43.88032" lon="6.50261">
        <ele>963</ele>
        <time>2022-06-09T18:07:55Z</time>
      </trkpt>
      <trkpt lat="43.88017" lon="6.50266">
        <ele>960</ele>
        <time>2022-06-09T18:07:58Z</time>
      </trkpt>
      <trkpt lat="43.88008" lon="6.50266">
        <ele>958</ele>
        <time>2022-06-09T18:08:01Z</time>
      </trkpt>
      <trkpt lat="43.88006" lon="6.50261">
        <ele>957</ele>
        <time>2022-06-09T18:08:02Z</time>
      </trkpt>
      <trkpt lat="43.87987" lon="6.50251">
        <ele>954</ele>
        <time>2022-06-09T18:08:06Z</time>
      </trkpt>
      <trkpt lat="43.87964" lon="6.50234">
        <ele>952</ele>
        <time>2022-06-09T18:08:12Z</time>
      </trkpt>
      <trkpt lat="43.87952" lon="6.50229">
        <ele>951</ele>
        <time>2022-06-09T18:08:15Z</time>
      </trkpt>
      <trkpt lat="43.87945" lon="6.50228">
        <ele>950</ele>
        <time>2022-06-09T18:08:17Z</time>
      </trkpt>
      <trkpt lat="43.87931" lon="6.50231">
        <ele>948</ele>
        <time>2022-06-09T18:08:20Z</time>
      </trkpt>
      <trkpt lat="43.87919" lon="6.50242">
        <ele>946</ele>
        <time>2022-06-09T18:08:24Z</time>
      </trkpt>
      <trkpt lat="43.87882" lon="6.50301">
        <ele>942</ele>
        <time>2022-06-09T18:08:37Z</time>
      </trkpt>
      <trkpt lat="43.8785" lon="6.50328">
        <ele>939</ele>
        <time>2022-06-09T18:08:45Z</time>
      </trkpt>
      <trkpt lat="43.87833" lon="6.50348">
        <ele>937</ele>
        <time>2022-06-09T18:08:51Z</time>
      </trkpt>
      <trkpt lat="43.87778" lon="6.50433">
        <ele>933</ele>
        <time>2022-06-09T18:09:10Z</time>
      </trkpt>
      <trkpt lat="43.87708" lon="6.50561">
        <ele>926</ele>
        <time>2022-06-09T18:09:37Z</time>
      </trkpt>
      <trkpt lat="43.87666" lon="6.50648">
        <ele>922</ele>
        <time>2022-06-09T18:09:55Z</time>
      </trkpt>
      <trkpt lat="43.87656" lon="6.50674">
        <ele>920</ele>
        <time>2022-06-09T18:10:00Z</time>
      </trkpt>
      <trkpt lat="43.87643" lon="6.50734">
        <ele>919</ele>
        <time>2022-06-09T18:10:10Z</time>
      </trkpt>
      <trkpt lat="43.8762" lon="6.50805">
        <ele>916</ele>
        <time>2022-06-09T18:10:23Z</time>
      </trkpt>
      <trkpt lat="43.87613" lon="6.50817">
        <ele>916</ele>
        <time>2022-06-09T18:10:26Z</time>
      </trkpt>
      <trkpt lat="43.87597" lon="6.5084">
        <ele>914</ele>
        <time>2022-06-09T18:10:31Z</time>
      </trkpt>
      <trkpt lat="43.87587" lon="6.50849">
        <ele>914</ele>
        <time>2022-06-09T18:10:34Z</time>
      </trkpt>
      <trkpt lat="43.87568" lon="6.50853">
        <ele>913</ele>
        <time>2022-06-09T18:10:38Z</time>
      </trkpt>
      <trkpt lat="43.87523" lon="6.50826">
        <ele>914</ele>
        <time>2022-06-09T18:10:50Z</time>
      </trkpt>
      <trkpt lat="43.87515" lon="6.50828">
        <ele>914</ele>
        <time>2022-06-09T18:10:52Z</time>
      </trkpt>
      <trkpt lat="43.87499" lon="6.50842">
        <ele>914</ele>
        <time>2022-06-09T18:10:56Z</time>
      </trkpt>
      <trkpt lat="43.87438" lon="6.50956">
        <ele>908</ele>
        <time>2022-06-09T18:11:20Z</time>
      </trkpt>
      <trkpt lat="43.87397" lon="6.51015">
        <ele>905</ele>
        <time>2022-06-09T18:11:34Z</time>
      </trkpt>
      <trkpt lat="43.87378" lon="6.51033">
        <ele>904</ele>
        <time>2022-06-09T18:11:39Z</time>
      </trkpt>
      <trkpt lat="43.87332" lon="6.51061">
        <ele>901</ele>
        <time>2022-06-09T18:11:51Z</time>
      </trkpt>
      <trkpt lat="43.87313" lon="6.5107">
        <ele>900</ele>
        <time>2022-06-09T18:11:56Z</time>
      </trkpt>
      <trkpt lat="43.87294" lon="6.51073">
        <ele>899</ele>
        <time>2022-06-09T18:12:00Z</time>
      </trkpt>
      <trkpt lat="43.8726" lon="6.51084">
        <ele>897</ele>
        <time>2022-06-09T18:12:08Z</time>
      </trkpt>
      <trkpt lat="43.87165" lon="6.51134">
        <ele>896</ele>
        <time>2022-06-09T18:12:32Z</time>
      </trkpt>
      <trkpt lat="43.8715" lon="6.51139">
        <ele>896</ele>
        <time>2022-06-09T18:12:36Z</time>
      </trkpt>
      <trkpt lat="43.87118" lon="6.51144">
        <ele>896</ele>
        <time>2022-06-09T18:12:43Z</time>
      </trkpt>
      <trkpt lat="43.87105" lon="6.51149">
        <ele>896</ele>
        <time>2022-06-09T18:12:46Z</time>
      </trkpt>
      <trkpt lat="43.87093" lon="6.5116">
        <ele>896</ele>
        <time>2022-06-09T18:12:50Z</time>
      </trkpt>
      <trkpt lat="43.87073" lon="6.51186">
        <ele>898</ele>
        <time>2022-06-09T18:12:56Z</time>
      </trkpt>
      <trkpt lat="43.87064" lon="6.51183">
        <ele>898</ele>
        <time>2022-06-09T18:12:58Z</time>
      </trkpt>
      <trkpt lat="43.86997" lon="6.51123">
        <ele>894</ele>
        <time>2022-06-09T18:13:17Z</time>
      </trkpt>
      <trkpt lat="43.86964" lon="6.51086">
        <ele>888</ele>
        <time>2022-06-09T18:13:27Z</time>
      </trkpt>
      <trkpt lat="43.86955" lon="6.5108">
        <ele>886</ele>
        <time>2022-06-09T18:13:29Z</time>
      </trkpt>
      <trkpt lat="43.86946" lon="6.51083">
        <ele>885</ele>
        <time>2022-06-09T18:13:31Z</time>
      </trkpt>
      <trkpt lat="43.86939" lon="6.51092">
        <ele>885</ele>
        <time>2022-06-09T18:13:34Z</time>
      </trkpt>
      <trkpt lat="43.86917" lon="6.51135">
        <ele>887</ele>
        <time>2022-06-09T18:13:42Z</time>
      </trkpt>
      <trkpt lat="43.86897" lon="6.51152">
        <ele>890</ele>
        <time>2022-06-09T18:13:48Z</time>
      </trkpt>
      <trkpt lat="43.86885" lon="6.51156">
        <ele>891</ele>
        <time>2022-06-09T18:13:51Z</time>
      </trkpt>
      <trkpt lat="43.86864" lon="6.51157">
        <ele>891</ele>
        <time>2022-06-09T18:13:56Z</time>
      </trkpt>
      <trkpt lat="43.86867" lon="6.51157">
        <ele>891</ele>
        <time>2022-06-09T18:13:56Z</time>
      </trkpt>
      <trkpt lat="43.86864" lon="6.51151">
        <ele>890</ele>
        <time>2022-06-09T18:13:58Z</time>
      </trkpt>
      <trkpt lat="43.8684" lon="6.51134">
        <ele>885</ele>
        <time>2022-06-09T18:14:04Z</time>
      </trkpt>
      <trkpt lat="43.86821" lon="6.51104">
        <ele>876</ele>
        <time>2022-06-09T18:14:11Z</time>
      </trkpt>
      <trkpt lat="43.86808" lon="6.51094">
        <ele>874</ele>
        <time>2022-06-09T18:14:14Z</time>
      </trkpt>
      <trkpt lat="43.86784" lon="6.51089">
        <ele>873</ele>
        <time>2022-06-09T18:14:20Z</time>
      </trkpt>
      <trkpt lat="43.86774" lon="6.51091">
        <ele>874</ele>
        <time>2022-06-09T18:14:22Z</time>
      </trkpt>
      <trkpt lat="43.86757" lon="6.51099">
        <ele>876</ele>
        <time>2022-06-09T18:14:26Z</time>
      </trkpt>
      <trkpt lat="43.86742" lon="6.51102">
        <ele>877</ele>
        <time>2022-06-09T18:14:30Z</time>
      </trkpt>
      <trkpt lat="43.86711" lon="6.51115">
        <ele>880</ele>
        <time>2022-06-09T18:14:37Z</time>
      </trkpt>
      <trkpt lat="43.86694" lon="6.51112">
        <ele>880</ele>
        <time>2022-06-09T18:14:41Z</time>
      </trkpt>
      <trkpt lat="43.86679" lon="6.51114">
        <ele>881</ele>
        <time>2022-06-09T18:14:45Z</time>
      </trkpt>
      <trkpt lat="43.86648" lon="6.51109">
        <ele>878</ele>
        <time>2022-06-09T18:14:52Z</time>
      </trkpt>
      <trkpt lat="43.86627" lon="6.5111">
        <ele>875</ele>
        <time>2022-06-09T18:14:57Z</time>
      </trkpt>
      <trkpt lat="43.8655" lon="6.51122">
        <ele>868</ele>
        <time>2022-06-09T18:15:15Z</time>
      </trkpt>
      <trkpt lat="43.8652" lon="6.51129">
        <ele>866</ele>
        <time>2022-06-09T18:15:22Z</time>
      </trkpt>
      <trkpt lat="43.86441" lon="6.51172">
        <ele>862</ele>
        <time>2022-06-09T18:15:42Z</time>
      </trkpt>
      <trkpt lat="43.8641" lon="6.51219">
        <ele>867</ele>
        <time>2022-06-09T18:15:53Z</time>
      </trkpt>
      <trkpt lat="43.86339" lon="6.51288">
        <ele>862</ele>
        <time>2022-06-09T18:16:13Z</time>
      </trkpt>
      <trkpt lat="43.86327" lon="6.51307">
        <ele>864</ele>
        <time>2022-06-09T18:16:17Z</time>
      </trkpt>
      <trkpt lat="43.86284" lon="6.51361">
        <ele>868</ele>
        <time>2022-06-09T18:16:31Z</time>
      </trkpt>
      <trkpt lat="43.86265" lon="6.51366">
        <ele>864</ele>
        <time>2022-06-09T18:16:35Z</time>
      </trkpt>
      <trkpt lat="43.86243" lon="6.5138">
        <ele>862</ele>
        <time>2022-06-09T18:16:41Z</time>
      </trkpt>
      <trkpt lat="43.86203" lon="6.51418">
        <ele>864</ele>
        <time>2022-06-09T18:16:52Z</time>
      </trkpt>
      <trkpt lat="43.86161" lon="6.51442">
        <ele>860</ele>
        <time>2022-06-09T18:17:03Z</time>
      </trkpt>
      <trkpt lat="43.86133" lon="6.51469">
        <ele>859</ele>
        <time>2022-06-09T18:17:11Z</time>
      </trkpt>
      <trkpt lat="43.86075" lon="6.51552">
        <ele>861</ele>
        <time>2022-06-09T18:17:30Z</time>
      </trkpt>
      <trkpt lat="43.86057" lon="6.51566">
        <ele>863</ele>
        <time>2022-06-09T18:17:35Z</time>
      </trkpt>
      <trkpt lat="43.86049" lon="6.51569">
        <ele>863</ele>
        <time>2022-06-09T18:17:37Z</time>
      </trkpt>
      <trkpt lat="43.86031" lon="6.51552">
        <ele>858</ele>
        <time>2022-06-09T18:17:42Z</time>
      </trkpt>
      <trkpt lat="43.86018" lon="6.5153">
        <ele>853</ele>
        <time>2022-06-09T18:17:47Z</time>
      </trkpt>
      <trkpt lat="43.8599" lon="6.51514">
        <ele>849</ele>
        <time>2022-06-09T18:17:54Z</time>
      </trkpt>
      <trkpt lat="43.85981" lon="6.51503">
        <ele>847</ele>
        <time>2022-06-09T18:17:57Z</time>
      </trkpt>
      <trkpt lat="43.85972" lon="6.51484">
        <ele>845</ele>
        <time>2022-06-09T18:18:01Z</time>
      </trkpt>
      <trkpt lat="43.85959" lon="6.51466">
        <ele>843</ele>
        <time>2022-06-09T18:18:05Z</time>
      </trkpt>
      <trkpt lat="43.85951" lon="6.5146">
        <ele>843</ele>
        <time>2022-06-09T18:18:07Z</time>
      </trkpt>
      <trkpt lat="43.85892" lon="6.51438">
        <ele>841</ele>
        <time>2022-06-09T18:18:21Z</time>
      </trkpt>
      <trkpt lat="43.85865" lon="6.5142">
        <ele>837</ele>
        <time>2022-06-09T18:18:28Z</time>
      </trkpt>
      <trkpt lat="43.85856" lon="6.5141">
        <ele>835</ele>
        <time>2022-06-09T18:18:31Z</time>
      </trkpt>
      <trkpt lat="43.85827" lon="6.51394">
        <ele>834</ele>
        <time>2022-06-09T18:18:38Z</time>
      </trkpt>
      <trkpt lat="43.85824" lon="6.51391">
        <ele>834</ele>
        <time>2022-06-09T18:18:39Z</time>
      </trkpt>
      <trkpt lat="43.85821" lon="6.51368">
        <ele>833</ele>
        <time>2022-06-09T18:18:43Z</time>
      </trkpt>
      <trkpt lat="43.85808" lon="6.51355">
        <ele>832</ele>
        <time>2022-06-09T18:18:47Z</time>
      </trkpt>
      <trkpt lat="43.85803" lon="6.51344">
        <ele>832</ele>
        <time>2022-06-09T18:18:49Z</time>
      </trkpt>
      <trkpt lat="43.85786" lon="6.51321">
        <ele>830</ele>
        <time>2022-06-09T18:18:55Z</time>
      </trkpt>
      <trkpt lat="43.85778" lon="6.51301">
        <ele>828</ele>
        <time>2022-06-09T18:18:59Z</time>
      </trkpt>
      <trkpt lat="43.85771" lon="6.51295">
        <ele>827</ele>
        <time>2022-06-09T18:19:00Z</time>
      </trkpt>
      <trkpt lat="43.85754" lon="6.51288">
        <ele>827</ele>
        <time>2022-06-09T18:19:05Z</time>
      </trkpt>
      <trkpt lat="43.85742" lon="6.51288">
        <ele>827</ele>
        <time>2022-06-09T18:19:07Z</time>
      </trkpt>
      <trkpt lat="43.85728" lon="6.51298">
        <ele>828</ele>
        <time>2022-06-09T18:19:11Z</time>
      </trkpt>
      <trkpt lat="43.85722" lon="6.51314">
        <ele>829</ele>
        <time>2022-06-09T18:19:14Z</time>
      </trkpt>
      <trkpt lat="43.85714" lon="6.51326">
        <ele>830</ele>
        <time>2022-06-09T18:19:17Z</time>
      </trkpt>
      <trkpt lat="43.85687" lon="6.51338">
        <ele>831</ele>
        <time>2022-06-09T18:19:24Z</time>
      </trkpt>
      <trkpt lat="43.85683" lon="6.51338">
        <ele>831</ele>
        <time>2022-06-09T18:19:24Z</time>
      </trkpt>
      <trkpt lat="43.85673" lon="6.51331">
        <ele>830</ele>
        <time>2022-06-09T18:19:27Z</time>
      </trkpt>
      <trkpt lat="43.85657" lon="6.51315">
        <ele>827</ele>
        <time>2022-06-09T18:19:32Z</time>
      </trkpt>
      <trkpt lat="43.85649" lon="6.51297">
        <ele>825</ele>
        <time>2022-06-09T18:19:35Z</time>
      </trkpt>
      <trkpt lat="43.85634" lon="6.51273">
        <ele>822</ele>
        <time>2022-06-09T18:19:41Z</time>
      </trkpt>
      <trkpt lat="43.85623" lon="6.51274">
        <ele>821</ele>
        <time>2022-06-09T18:19:43Z</time>
      </trkpt>
      <trkpt lat="43.85615" lon="6.5128">
        <ele>820</ele>
        <time>2022-06-09T18:19:45Z</time>
      </trkpt>
      <trkpt lat="43.85609" lon="6.51281">
        <ele>820</ele>
        <time>2022-06-09T18:19:47Z</time>
      </trkpt>
      <trkpt lat="43.85618" lon="6.51296">
        <ele>821</ele>
        <time>2022-06-09T18:19:50Z</time>
      </trkpt>
      <trkpt lat="43.85642" lon="6.51305">
        <ele>825</ele>
        <time>2022-06-09T18:19:56Z</time>
      </trkpt>
      <trkpt lat="43.85653" lon="6.51312">
        <ele>827</ele>
        <time>2022-06-09T18:19:59Z</time>
      </trkpt>
      <trkpt lat="43.85668" lon="6.51325">
        <ele>829</ele>
        <time>2022-06-09T18:20:03Z</time>
      </trkpt>
      <trkpt lat="43.85672" lon="6.51333">
        <ele>830</ele>
        <time>2022-06-09T18:20:04Z</time>
      </trkpt>
      <trkpt lat="43.85679" lon="6.5134">
        <ele>831</ele>
        <time>2022-06-09T18:20:06Z</time>
      </trkpt>
      <trkpt lat="43.85715" lon="6.51325">
        <ele>830</ele>
        <time>2022-06-09T18:20:15Z</time>
      </trkpt>
      <trkpt lat="43.85719" lon="6.51313">
        <ele>829</ele>
        <time>2022-06-09T18:20:17Z</time>
      </trkpt>
      <trkpt lat="43.8571" lon="6.51301">
        <ele>828</ele>
        <time>2022-06-09T18:20:20Z</time>
      </trkpt>
      <trkpt lat="43.85708" lon="6.51292">
        <ele>827</ele>
        <time>2022-06-09T18:20:22Z</time>
      </trkpt>
      <trkpt lat="43.8571" lon="6.51275">
        <ele>825</ele>
        <time>2022-06-09T18:20:25Z</time>
      </trkpt>
      <trkpt lat="43.85707" lon="6.5127">
        <ele>825</ele>
        <time>2022-06-09T18:20:26Z</time>
      </trkpt>
      <trkpt lat="43.85694" lon="6.51269">
        <ele>825</ele>
        <time>2022-06-09T18:20:29Z</time>
      </trkpt>
      <trkpt lat="43.85669" lon="6.51228">
        <ele>821</ele>
        <time>2022-06-09T18:20:38Z</time>
      </trkpt>
      <trkpt lat="43.85638" lon="6.51202">
        <ele>814</ele>
        <time>2022-06-09T18:20:46Z</time>
      </trkpt>
      <trkpt lat="43.85624" lon="6.51197">
        <ele>812</ele>
        <time>2022-06-09T18:20:50Z</time>
      </trkpt>
      <trkpt lat="43.85614" lon="6.51202">
        <ele>812</ele>
        <time>2022-06-09T18:20:52Z</time>
      </trkpt>
      <trkpt lat="43.85602" lon="6.51204">
        <ele>811</ele>
        <time>2022-06-09T18:20:55Z</time>
      </trkpt>
      <trkpt lat="43.85569" lon="6.51237">
        <ele>811</ele>
        <time>2022-06-09T18:21:05Z</time>
      </trkpt>
      <trkpt lat="43.85554" lon="6.51279">
        <ele>810</ele>
        <time>2022-06-09T18:21:13Z</time>
      </trkpt>
      <trkpt lat="43.85552" lon="6.51295">
        <ele>810</ele>
        <time>2022-06-09T18:21:15Z</time>
      </trkpt>
      <trkpt lat="43.85553" lon="6.5132">
        <ele>811</ele>
        <time>2022-06-09T18:21:19Z</time>
      </trkpt>
      <trkpt lat="43.85578" lon="6.51355">
        <ele>816</ele>
        <time>2022-06-09T18:21:28Z</time>
      </trkpt>
      <trkpt lat="43.85588" lon="6.51377">
        <ele>819</ele>
        <time>2022-06-09T18:21:32Z</time>
      </trkpt>
      <trkpt lat="43.85589" lon="6.51398">
        <ele>819</ele>
        <time>2022-06-09T18:21:36Z</time>
      </trkpt>
      <trkpt lat="43.85574" lon="6.51452">
        <ele>823</ele>
        <time>2022-06-09T18:21:45Z</time>
      </trkpt>
      <trkpt lat="43.85584" lon="6.51506">
        <ele>829</ele>
        <time>2022-06-09T18:21:55Z</time>
      </trkpt>
      <trkpt lat="43.85583" lon="6.5151">
        <ele>830</ele>
        <time>2022-06-09T18:21:56Z</time>
      </trkpt>
      <trkpt lat="43.8557" lon="6.51515">
        <ele>833</ele>
        <time>2022-06-09T18:21:59Z</time>
      </trkpt>
      <trkpt lat="43.8554" lon="6.51466">
        <ele>829</ele>
        <time>2022-06-09T18:22:09Z</time>
      </trkpt>
      <trkpt lat="43.85528" lon="6.51434">
        <ele>822</ele>
        <time>2022-06-09T18:22:16Z</time>
      </trkpt>
      <trkpt lat="43.8549" lon="6.51393">
        <ele>814</ele>
        <time>2022-06-09T18:22:27Z</time>
      </trkpt>
      <trkpt lat="43.85482" lon="6.5138">
        <ele>813</ele>
        <time>2022-06-09T18:22:30Z</time>
      </trkpt>
      <trkpt lat="43.85468" lon="6.51372">
        <ele>814</ele>
        <time>2022-06-09T18:22:33Z</time>
      </trkpt>
      <trkpt lat="43.85449" lon="6.51338">
        <ele>808</ele>
        <time>2022-06-09T18:22:40Z</time>
      </trkpt>
      <trkpt lat="43.85414" lon="6.51301">
        <ele>804</ele>
        <time>2022-06-09T18:22:51Z</time>
      </trkpt>
      <trkpt lat="43.85406" lon="6.51297">
        <ele>804</ele>
        <time>2022-06-09T18:22:53Z</time>
      </trkpt>
      <trkpt lat="43.85393" lon="6.51299">
        <ele>805</ele>
        <time>2022-06-09T18:22:56Z</time>
      </trkpt>
      <trkpt lat="43.85386" lon="6.51294">
        <ele>804</ele>
        <time>2022-06-09T18:22:58Z</time>
      </trkpt>
      <trkpt lat="43.85365" lon="6.51286">
        <ele>803</ele>
        <time>2022-06-09T18:23:03Z</time>
      </trkpt>
      <trkpt lat="43.8535" lon="6.51275">
        <ele>802</ele>
        <time>2022-06-09T18:23:07Z</time>
      </trkpt>
      <trkpt lat="43.85335" lon="6.51258">
        <ele>799</ele>
        <time>2022-06-09T18:23:11Z</time>
      </trkpt>
      <trkpt lat="43.85321" lon="6.51251">
        <ele>797</ele>
        <time>2022-06-09T18:23:15Z</time>
      </trkpt>
      <trkpt lat="43.8531" lon="6.5124">
        <ele>795</ele>
        <time>2022-06-09T18:23:18Z</time>
      </trkpt>
      <trkpt lat="43.85259" lon="6.51212">
        <ele>790</ele>
        <time>2022-06-09T18:23:31Z</time>
      </trkpt>
      <trkpt lat="43.85244" lon="6.5121">
        <ele>790</ele>
        <time>2022-06-09T18:23:34Z</time>
      </trkpt>
      <trkpt lat="43.85196" lon="6.51166">
        <ele>787</ele>
        <time>2022-06-09T18:23:48Z</time>
      </trkpt>
      <trkpt lat="43.85183" lon="6.51128">
        <ele>783</ele>
        <time>2022-06-09T18:23:55Z</time>
      </trkpt>
      <trkpt lat="43.85174" lon="6.51051">
        <ele>773</ele>
        <time>2022-06-09T18:24:08Z</time>
      </trkpt>
      <trkpt lat="43.85163" lon="6.51004">
        <ele>768</ele>
        <time>2022-06-09T18:24:16Z</time>
      </trkpt>
      <trkpt lat="43.85146" lon="6.5091">
        <ele>755</ele>
        <time>2022-06-09T18:24:32Z</time>
      </trkpt>
      <trkpt lat="43.85135" lon="6.50886">
        <ele>754</ele>
        <time>2022-06-09T18:24:37Z</time>
      </trkpt>
      <trkpt lat="43.85126" lon="6.50874">
        <ele>753</ele>
        <time>2022-06-09T18:24:40Z</time>
      </trkpt>
      <trkpt lat="43.85118" lon="6.50869">
        <ele>752</ele>
        <time>2022-06-09T18:24:42Z</time>
      </trkpt>
      <trkpt lat="43.85105" lon="6.50866">
        <ele>752</ele>
        <time>2022-06-09T18:24:45Z</time>
      </trkpt>
      <trkpt lat="43.8508" lon="6.50855">
        <ele>751</ele>
        <time>2022-06-09T18:24:51Z</time>
      </trkpt>
      <trkpt lat="43.85067" lon="6.50839">
        <ele>746</ele>
        <time>2022-06-09T18:24:55Z</time>
      </trkpt>
      <trkpt lat="43.85039" lon="6.50848">
        <ele>745</ele>
        <time>2022-06-09T18:25:02Z</time>
      </trkpt>
      <trkpt lat="43.84919" lon="6.50909">
        <ele>738</ele>
        <time>2022-06-09T18:25:32Z</time>
      </trkpt>
      <trkpt lat="43.84889" lon="6.50934">
        <ele>737</ele>
        <time>2022-06-09T18:25:40Z</time>
      </trkpt>
      <trkpt lat="43.8485" lon="6.51006">
        <ele>735</ele>
        <time>2022-06-09T18:25:55Z</time>
      </trkpt>
      <trkpt lat="43.84835" lon="6.51028">
        <ele>732</ele>
        <time>2022-06-09T18:26:00Z</time>
      </trkpt>
      <trkpt lat="43.84813" lon="6.51073">
        <ele>732</ele>
        <time>2022-06-09T18:26:10Z</time>
      </trkpt>
      <trkpt lat="43.84787" lon="6.51141">
        <ele>733</ele>
        <time>2022-06-09T18:26:23Z</time>
      </trkpt>
      <trkpt lat="43.84778" lon="6.51159">
        <ele>733</ele>
        <time>2022-06-09T18:26:26Z</time>
      </trkpt>
      <trkpt lat="43.8477" lon="6.51186">
        <ele>733</ele>
        <time>2022-06-09T18:26:31Z</time>
      </trkpt>
      <trkpt lat="43.84727" lon="6.51211">
        <ele>730</ele>
        <time>2022-06-09T18:26:42Z</time>
      </trkpt>
      <trkpt lat="43.84719" lon="6.51211">
        <ele>729</ele>
        <time>2022-06-09T18:26:44Z</time>
      </trkpt>
      <trkpt lat="43.84742" lon="6.51187">
        <ele>730</ele>
        <time>2022-06-09T18:26:51Z</time>
      </trkpt>
      <trkpt lat="43.84758" lon="6.51182">
        <ele>731</ele>
        <time>2022-06-09T18:26:55Z</time>
      </trkpt>
      <trkpt lat="43.84773" lon="6.5122">
        <ele>736</ele>
        <time>2022-06-09T18:27:02Z</time>
      </trkpt>
      <trkpt lat="43.84761" lon="6.51258">
        <ele>735</ele>
        <time>2022-06-09T18:27:09Z</time>
      </trkpt>
      <trkpt lat="43.8475" lon="6.51281">
        <ele>734</ele>
        <time>2022-06-09T18:27:13Z</time>
      </trkpt>
      <trkpt lat="43.84727" lon="6.51316">
        <ele>732</ele>
        <time>2022-06-09T18:27:21Z</time>
      </trkpt>
      <trkpt lat="43.84723" lon="6.51318">
        <ele>732</ele>
        <time>2022-06-09T18:27:22Z</time>
      </trkpt>
      <trkpt lat="43.84718" lon="6.51332">
        <ele>732</ele>
        <time>2022-06-09T18:27:25Z</time>
      </trkpt>
      <trkpt lat="43.84715" lon="6.51334">
        <ele>732</ele>
        <time>2022-06-09T18:27:26Z</time>
      </trkpt>
      <trkpt lat="43.84709" lon="6.51355">
        <ele>732</ele>
        <time>2022-06-09T18:27:30Z</time>
      </trkpt>
      <trkpt lat="43.84708" lon="6.51367">
        <ele>733</ele>
        <time>2022-06-09T18:27:32Z</time>
      </trkpt>
      <trkpt lat="43.84701" lon="6.51381">
        <ele>732</ele>
        <time>2022-06-09T18:27:35Z</time>
      </trkpt>
      <trkpt lat="43.84683" lon="6.51384">
        <ele>730</ele>
        <time>2022-06-09T18:27:39Z</time>
      </trkpt>
      <trkpt lat="43.84677" lon="6.51382">
        <ele>729</ele>
        <time>2022-06-09T18:27:40Z</time>
      </trkpt>
      <trkpt lat="43.84662" lon="6.5137">
        <ele>728</ele>
        <time>2022-06-09T18:27:44Z</time>
      </trkpt>
      <trkpt lat="43.84656" lon="6.51368">
        <ele>727</ele>
        <time>2022-06-09T18:27:46Z</time>
      </trkpt>
      <trkpt lat="43.84649" lon="6.51356">
        <ele>727</ele>
        <time>2022-06-09T18:27:48Z</time>
      </trkpt>
      <trkpt lat="43.84646" lon="6.5134">
        <ele>726</ele>
        <time>2022-06-09T18:27:51Z</time>
      </trkpt>
      <trkpt lat="43.84648" lon="6.51295">
        <ele>726</ele>
        <time>2022-06-09T18:27:59Z</time>
      </trkpt>
      <trkpt lat="43.84643" lon="6.51289">
        <ele>726</ele>
        <time>2022-06-09T18:28:00Z</time>
      </trkpt>
      <trkpt lat="43.84629" lon="6.51282">
        <ele>726</ele>
        <time>2022-06-09T18:28:04Z</time>
      </trkpt>
      <trkpt lat="43.8462" lon="6.51273">
        <ele>726</ele>
        <time>2022-06-09T18:28:06Z</time>
      </trkpt>
      <trkpt lat="43.84629" lon="6.51265">
        <ele>726</ele>
        <time>2022-06-09T18:28:09Z</time>
      </trkpt>
      <trkpt lat="43.84633" lon="6.5125">
        <ele>726</ele>
        <time>2022-06-09T18:28:11Z</time>
      </trkpt>
      <trkpt lat="43.84632" lon="6.51233">
        <ele>726</ele>
        <time>2022-06-09T18:28:14Z</time>
      </trkpt>
      <trkpt lat="43.84626" lon="6.51203">
        <ele>725</ele>
        <time>2022-06-09T18:28:20Z</time>
      </trkpt>
      <trkpt lat="43.84624" lon="6.51137">
        <ele>724</ele>
        <time>2022-06-09T18:28:31Z</time>
      </trkpt>
      <trkpt lat="43.84623" lon="6.51023">
        <ele>724</ele>
        <time>2022-06-09T18:28:50Z</time>
      </trkpt>
      <trkpt lat="43.84627" lon="6.50891">
        <ele>723</ele>
        <time>2022-06-09T18:29:12Z</time>
      </trkpt>
      <trkpt lat="43.8463" lon="6.50882">
        <ele>723</ele>
        <time>2022-06-09T18:29:14Z</time>
      </trkpt>
      <trkpt lat="43.84634" lon="6.50878">
        <ele>723</ele>
        <time>2022-06-09T18:29:15Z</time>
      </trkpt>
      <trkpt lat="43.84646" lon="6.50875">
        <ele>723</ele>
        <time>2022-06-09T18:29:18Z</time>
      </trkpt>
      <trkpt lat="43.84661" lon="6.50877">
        <ele>723</ele>
        <time>2022-06-09T18:29:21Z</time>
      </trkpt>
      <trkpt lat="43.84669" lon="6.50882">
        <ele>723</ele>
        <time>2022-06-09T18:29:23Z</time>
      </trkpt>
      <trkpt lat="43.84695" lon="6.50878">
        <ele>724</ele>
        <time>2022-06-09T18:29:30Z</time>
      </trkpt>
      <trkpt lat="43.84719" lon="6.5087">
        <ele>725</ele>
        <time>2022-06-09T18:29:35Z</time>
      </trkpt>
      <trkpt lat="43.84751" lon="6.50866">
        <ele>726</ele>
        <time>2022-06-09T18:29:43Z</time>
      </trkpt>
      <trkpt lat="43.84758" lon="6.50858">
        <ele>726</ele>
        <time>2022-06-09T18:29:45Z</time>
      </trkpt>
      <trkpt lat="43.84762" lon="6.50837">
        <ele>726</ele>
        <time>2022-06-09T18:29:49Z</time>
      </trkpt>
      <trkpt lat="43.84768" lon="6.50832">
        <ele>726</ele>
        <time>2022-06-09T18:29:50Z</time>
      </trkpt>
      <trkpt lat="43.84788" lon="6.50824">
        <ele>727</ele>
        <time>2022-06-09T18:29:55Z</time>
      </trkpt>
      <trkpt lat="43.84794" lon="6.50817">
        <ele>727</ele>
        <time>2022-06-09T18:29:57Z</time>
      </trkpt>
      <trkpt lat="43.84799" lon="6.50809">
        <ele>727</ele>
        <time>2022-06-09T18:29:59Z</time>
      </trkpt>
      <trkpt lat="43.84806" lon="6.50783">
        <ele>727</ele>
        <time>2022-06-09T18:30:03Z</time>
      </trkpt>
      <trkpt lat="43.84807" lon="6.50743">
        <ele>727</ele>
        <time>2022-06-09T18:30:10Z</time>
      </trkpt>
      <trkpt lat="43.84803" lon="6.50675">
        <ele>729</ele>
        <time>2022-06-09T18:30:22Z</time>
      </trkpt>
      <trkpt lat="43.84807" lon="6.50654">
        <ele>731</ele>
        <time>2022-06-09T18:30:25Z</time>
      </trkpt>
      <trkpt lat="43.84809" lon="6.50617">
        <ele>734</ele>
        <time>2022-06-09T18:30:31Z</time>
      </trkpt>
      <trkpt lat="43.84813" lon="6.50628">
        <ele>734</ele>
        <time>2022-06-09T18:30:34Z</time>
      </trkpt>
      <trkpt lat="43.84816" lon="6.50629">
        <ele>735</ele>
        <time>2022-06-09T18:30:34Z</time>
      </trkpt>
      <trkpt lat="43.84815" lon="6.50613">
        <ele>736</ele>
        <time>2022-06-09T18:30:37Z</time>
      </trkpt>
      <trkpt lat="43.84807" lon="6.50573">
        <ele>737</ele>
        <time>2022-06-09T18:30:44Z</time>
      </trkpt>
      <trkpt lat="43.84802" lon="6.50508">
        <ele>738</ele>
        <time>2022-06-09T18:30:55Z</time>
      </trkpt>
      <trkpt lat="43.84801" lon="6.50421">
        <ele>738</ele>
        <time>2022-06-09T18:31:10Z</time>
      </trkpt>
      <trkpt lat="43.84803" lon="6.50398">
        <ele>737</ele>
        <time>2022-06-09T18:31:14Z</time>
      </trkpt>
      <trkpt lat="43.84784" lon="6.50377">
        <ele>733</ele>
        <time>2022-06-09T18:31:19Z</time>
      </trkpt>
      <trkpt lat="43.84767" lon="6.50332">
        <ele>729</ele>
        <time>2022-06-09T18:31:28Z</time>
      </trkpt>
      <trkpt lat="43.84763" lon="6.50257">
        <ele>730</ele>
        <time>2022-06-09T18:31:40Z</time>
      </trkpt>
      <trkpt lat="43.84745" lon="6.50176">
        <ele>737</ele>
        <time>2022-06-09T18:31:55Z</time>
      </trkpt>
      <trkpt lat="43.84738" lon="6.5013">
        <ele>744</ele>
        <time>2022-06-09T18:32:03Z</time>
      </trkpt>
      <trkpt lat="43.84744" lon="6.50106">
        <ele>744</ele>
        <time>2022-06-09T18:32:07Z</time>
      </trkpt>
      <trkpt lat="43.84744" lon="6.50083">
        <ele>747</ele>
        <time>2022-06-09T18:32:11Z</time>
      </trkpt>
      <trkpt lat="43.8474" lon="6.50046">
        <ele>752</ele>
        <time>2022-06-09T18:32:17Z</time>
      </trkpt>
      <trkpt lat="43.84742" lon="6.50033">
        <ele>753</ele>
        <time>2022-06-09T18:32:19Z</time>
      </trkpt>
      <trkpt lat="43.84749" lon="6.50014">
        <ele>751</ele>
        <time>2022-06-09T18:32:23Z</time>
      </trkpt>
      <trkpt lat="43.84761" lon="6.50002">
        <ele>752</ele>
        <time>2022-06-09T18:32:26Z</time>
      </trkpt>
      <trkpt lat="43.84765" lon="6.49993">
        <ele>754</ele>
        <time>2022-06-09T18:32:28Z</time>
      </trkpt>
      <trkpt lat="43.84764" lon="6.49929">
        <ele>765</ele>
        <time>2022-06-09T18:32:39Z</time>
      </trkpt>
      <trkpt lat="43.84767" lon="6.49905">
        <ele>769</ele>
        <time>2022-06-09T18:32:43Z</time>
      </trkpt>
      <trkpt lat="43.84757" lon="6.49886">
        <ele>770</ele>
        <time>2022-06-09T18:32:47Z</time>
      </trkpt>
      <trkpt lat="43.84753" lon="6.49871">
        <ele>771</ele>
        <time>2022-06-09T18:32:50Z</time>
      </trkpt>
      <trkpt lat="43.84754" lon="6.49864">
        <ele>772</ele>
        <time>2022-06-09T18:32:51Z</time>
      </trkpt>
      <trkpt lat="43.84748" lon="6.4985">
        <ele>774</ele>
        <time>2022-06-09T18:32:54Z</time>
      </trkpt>
      <trkpt lat="43.84748" lon="6.4983">
        <ele>776</ele>
        <time>2022-06-09T18:32:57Z</time>
      </trkpt>
      <trkpt lat="43.8476" lon="6.49791">
        <ele>779</ele>
        <time>2022-06-09T18:33:04Z</time>
      </trkpt>
      <trkpt lat="43.84792" lon="6.49727">
        <ele>788</ele>
        <time>2022-06-09T18:33:17Z</time>
      </trkpt>
      <trkpt lat="43.84803" lon="6.49713">
        <ele>790</ele>
        <time>2022-06-09T18:33:21Z</time>
      </trkpt>
      <trkpt lat="43.84817" lon="6.49707">
        <ele>792</ele>
        <time>2022-06-09T18:33:24Z</time>
      </trkpt>
      <trkpt lat="43.84801" lon="6.49718">
        <ele>790</ele>
        <time>2022-06-09T18:33:28Z</time>
      </trkpt>
      <trkpt lat="43.84782" lon="6.49752">
        <ele>785</ele>
        <time>2022-06-09T18:33:36Z</time>
      </trkpt>
      <trkpt lat="43.84777" lon="6.49771">
        <ele>784</ele>
        <time>2022-06-09T18:33:39Z</time>
      </trkpt>
      <trkpt lat="43.84768" lon="6.49787">
        <ele>781</ele>
        <time>2022-06-09T18:33:42Z</time>
      </trkpt>
      <trkpt lat="43.84743" lon="6.49793">
        <ele>780</ele>
        <time>2022-06-09T18:33:48Z</time>
      </trkpt>
      <trkpt lat="43.84727" lon="6.49786">
        <ele>786</ele>
        <time>2022-06-09T18:33:52Z</time>
      </trkpt>
      <trkpt lat="43.84693" lon="6.49731">
        <ele>798</ele>
        <time>2022-06-09T18:34:04Z</time>
      </trkpt>
      <trkpt lat="43.8462" lon="6.49598">
        <ele>821</ele>
        <time>2022-06-09T18:34:33Z</time>
      </trkpt>
      <trkpt lat="43.84616" lon="6.49582">
        <ele>821</ele>
        <time>2022-06-09T18:34:35Z</time>
      </trkpt>
      <trkpt lat="43.84608" lon="6.49572">
        <ele>824</ele>
        <time>2022-06-09T18:34:38Z</time>
      </trkpt>
      <trkpt lat="43.84601" lon="6.49569">
        <ele>826</ele>
        <time>2022-06-09T18:34:40Z</time>
      </trkpt>
      <trkpt lat="43.84598" lon="6.49551">
        <ele>826</ele>
        <time>2022-06-09T18:34:43Z</time>
      </trkpt>
      <trkpt lat="43.84579" lon="6.49504">
        <ele>828</ele>
        <time>2022-06-09T18:34:52Z</time>
      </trkpt>
      <trkpt lat="43.84575" lon="6.49483">
        <ele>830</ele>
        <time>2022-06-09T18:34:56Z</time>
      </trkpt>
      <trkpt lat="43.84573" lon="6.49456">
        <ele>832</ele>
        <time>2022-06-09T18:35:00Z</time>
      </trkpt>
      <trkpt lat="43.84574" lon="6.49353">
        <ele>844</ele>
        <time>2022-06-09T18:35:17Z</time>
      </trkpt>
      <trkpt lat="43.84579" lon="6.49343">
        <ele>846</ele>
        <time>2022-06-09T18:35:19Z</time>
      </trkpt>
      <trkpt lat="43.8458" lon="6.49333">
        <ele>848</ele>
        <time>2022-06-09T18:35:21Z</time>
      </trkpt>
      <trkpt lat="43.84579" lon="6.49296">
        <ele>853</ele>
        <time>2022-06-09T18:35:27Z</time>
      </trkpt>
      <trkpt lat="43.84558" lon="6.49266">
        <ele>852</ele>
        <time>2022-06-09T18:35:34Z</time>
      </trkpt>
      <trkpt lat="43.84561" lon="6.49237">
        <ele>857</ele>
        <time>2022-06-09T18:35:39Z</time>
      </trkpt>
      <trkpt lat="43.84546" lon="6.49176">
        <ele>862</ele>
        <time>2022-06-09T18:35:50Z</time>
      </trkpt>
      <trkpt lat="43.84534" lon="6.49161">
        <ele>862</ele>
        <time>2022-06-09T18:35:54Z</time>
      </trkpt>
      <trkpt lat="43.84532" lon="6.49162">
        <ele>861</ele>
        <time>2022-06-09T18:35:55Z</time>
      </trkpt>
      <trkpt lat="43.84538" lon="6.49159">
        <ele>863</ele>
        <time>2022-06-09T18:35:56Z</time>
      </trkpt>
      <trkpt lat="43.84534" lon="6.49134">
        <ele>865</ele>
        <time>2022-06-09T18:36:00Z</time>
      </trkpt>
      <trkpt lat="43.84541" lon="6.49122">
        <ele>868</ele>
        <time>2022-06-09T18:36:03Z</time>
      </trkpt>
      <trkpt lat="43.84564" lon="6.49124">
        <ele>873</ele>
        <time>2022-06-09T18:36:08Z</time>
      </trkpt>
      <trkpt lat="43.84588" lon="6.49147">
        <ele>875</ele>
        <time>2022-06-09T18:36:15Z</time>
      </trkpt>
      <trkpt lat="43.84641" lon="6.49186">
        <ele>880</ele>
        <time>2022-06-09T18:36:29Z</time>
      </trkpt>
      <trkpt lat="43.84671" lon="6.49191">
        <ele>884</ele>
        <time>2022-06-09T18:36:36Z</time>
      </trkpt>
      <trkpt lat="43.84685" lon="6.49173">
        <ele>885</ele>
        <time>2022-06-09T18:36:41Z</time>
      </trkpt>
      <trkpt lat="43.84692" lon="6.4915">
        <ele>888</ele>
        <time>2022-06-09T18:36:45Z</time>
      </trkpt>
      <trkpt lat="43.84711" lon="6.49121">
        <ele>893</ele>
        <time>2022-06-09T18:36:51Z</time>
      </trkpt>
      <trkpt lat="43.8476" lon="6.49093">
        <ele>895</ele>
        <time>2022-06-09T18:37:04Z</time>
      </trkpt>
      <trkpt lat="43.84793" lon="6.49051">
        <ele>908</ele>
        <time>2022-06-09T18:37:14Z</time>
      </trkpt>
      <trkpt lat="43.8482" lon="6.49035">
        <ele>912</ele>
        <time>2022-06-09T18:37:21Z</time>
      </trkpt>
      <trkpt lat="43.8489" lon="6.49021">
        <ele>910</ele>
        <time>2022-06-09T18:37:38Z</time>
      </trkpt>
      <trkpt lat="43.84896" lon="6.49018">
        <ele>911</ele>
        <time>2022-06-09T18:37:39Z</time>
      </trkpt>
      <trkpt lat="43.8491" lon="6.49003">
        <ele>914</ele>
        <time>2022-06-09T18:37:43Z</time>
      </trkpt>
      <trkpt lat="43.84939" lon="6.48989">
        <ele>913</ele>
        <time>2022-06-09T18:37:50Z</time>
      </trkpt>
      <trkpt lat="43.84943" lon="6.48975">
        <ele>914</ele>
        <time>2022-06-09T18:37:53Z</time>
      </trkpt>
      <trkpt lat="43.84936" lon="6.48884">
        <ele>926</ele>
        <time>2022-06-09T18:38:08Z</time>
      </trkpt>
      <trkpt lat="43.84941" lon="6.48851">
        <ele>925</ele>
        <time>2022-06-09T18:38:14Z</time>
      </trkpt>
      <trkpt lat="43.84942" lon="6.48787">
        <ele>925</ele>
        <time>2022-06-09T18:38:25Z</time>
      </trkpt>
      <trkpt lat="43.84948" lon="6.48757">
        <ele>922</ele>
        <time>2022-06-09T18:38:30Z</time>
      </trkpt>
      <trkpt lat="43.84939" lon="6.48727">
        <ele>926</ele>
        <time>2022-06-09T18:38:36Z</time>
      </trkpt>
      <trkpt lat="43.8494" lon="6.48713">
        <ele>925</ele>
        <time>2022-06-09T18:38:38Z</time>
      </trkpt>
      <trkpt lat="43.84937" lon="6.48691">
        <ele>926</ele>
        <time>2022-06-09T18:38:42Z</time>
      </trkpt>
      <trkpt lat="43.84925" lon="6.48665">
        <ele>932</ele>
        <time>2022-06-09T18:38:47Z</time>
      </trkpt>
      <trkpt lat="43.84914" lon="6.48652">
        <ele>936</ele>
        <time>2022-06-09T18:38:50Z</time>
      </trkpt>
      <trkpt lat="43.84905" lon="6.48618">
        <ele>937</ele>
        <time>2022-06-09T18:38:56Z</time>
      </trkpt>
      <trkpt lat="43.84903" lon="6.48598">
        <ele>936</ele>
        <time>2022-06-09T18:39:00Z</time>
      </trkpt>
      <trkpt lat="43.84908" lon="6.48572">
        <ele>935</ele>
        <time>2022-06-09T18:39:04Z</time>
      </trkpt>
      <trkpt lat="43.84912" lon="6.48563">
        <ele>935</ele>
        <time>2022-06-09T18:39:06Z</time>
      </trkpt>
      <trkpt lat="43.84903" lon="6.48533">
        <ele>940</ele>
        <time>2022-06-09T18:39:12Z</time>
      </trkpt>
      <trkpt lat="43.84893" lon="6.48525">
        <ele>944</ele>
        <time>2022-06-09T18:39:14Z</time>
      </trkpt>
      <trkpt lat="43.84881" lon="6.48486">
        <ele>953</ele>
        <time>2022-06-09T18:39:21Z</time>
      </trkpt>
      <trkpt lat="43.84896" lon="6.48474">
        <ele>953</ele>
        <time>2022-06-09T18:39:25Z</time>
      </trkpt>
      <trkpt lat="43.84903" lon="6.48458">
        <ele>956</ele>
        <time>2022-06-09T18:39:29Z</time>
      </trkpt>
      <trkpt lat="43.8491" lon="6.48449">
        <ele>958</ele>
        <time>2022-06-09T18:39:31Z</time>
      </trkpt>
      <trkpt lat="43.8491" lon="6.48443">
        <ele>960</ele>
        <time>2022-06-09T18:39:32Z</time>
      </trkpt>
      <trkpt lat="43.84922" lon="6.48416">
        <ele>966</ele>
        <time>2022-06-09T18:39:37Z</time>
      </trkpt>
      <trkpt lat="43.84936" lon="6.48406">
        <ele>967</ele>
        <time>2022-06-09T18:39:41Z</time>
      </trkpt>
      <trkpt lat="43.84941" lon="6.48406">
        <ele>965</ele>
        <time>2022-06-09T18:39:42Z</time>
      </trkpt>
      <trkpt lat="43.84949" lon="6.48399">
        <ele>966</ele>
        <time>2022-06-09T18:39:44Z</time>
      </trkpt>
      <trkpt lat="43.84956" lon="6.48399">
        <ele>964</ele>
        <time>2022-06-09T18:39:46Z</time>
      </trkpt>
      <trkpt lat="43.84962" lon="6.48407">
        <ele>960</ele>
        <time>2022-06-09T18:39:48Z</time>
      </trkpt>
      <trkpt lat="43.84976" lon="6.48416">
        <ele>954</ele>
        <time>2022-06-09T18:39:51Z</time>
      </trkpt>
      <trkpt lat="43.84979" lon="6.48413">
        <ele>955</ele>
        <time>2022-06-09T18:39:52Z</time>
      </trkpt>
      <trkpt lat="43.84993" lon="6.48377">
        <ele>962</ele>
        <time>2022-06-09T18:39:59Z</time>
      </trkpt>
      <trkpt lat="43.84997" lon="6.48355">
        <ele>968</ele>
        <time>2022-06-09T18:40:03Z</time>
      </trkpt>
      <trkpt lat="43.84995" lon="6.48327">
        <ele>976</ele>
        <time>2022-06-09T18:40:08Z</time>
      </trkpt>
      <trkpt lat="43.85001" lon="6.48268">
        <ele>989</ele>
        <time>2022-06-09T18:40:18Z</time>
      </trkpt>
      <trkpt lat="43.85016" lon="6.48237">
        <ele>991</ele>
        <time>2022-06-09T18:40:24Z</time>
      </trkpt>
      <trkpt lat="43.85021" lon="6.48212">
        <ele>994</ele>
        <time>2022-06-09T18:40:28Z</time>
      </trkpt>
      <trkpt lat="43.85026" lon="6.482">
        <ele>995</ele>
        <time>2022-06-09T18:40:31Z</time>
      </trkpt>
      <trkpt lat="43.85032" lon="6.48195">
        <ele>995</ele>
        <time>2022-06-09T18:40:32Z</time>
      </trkpt>
      <trkpt lat="43.85048" lon="6.4819">
        <ele>991</ele>
        <time>2022-06-09T18:40:36Z</time>
      </trkpt>
      <trkpt lat="43.85061" lon="6.48196">
        <ele>987</ele>
        <time>2022-06-09T18:40:39Z</time>
      </trkpt>
      <trkpt lat="43.8507" lon="6.48194">
        <ele>985</ele>
        <time>2022-06-09T18:40:42Z</time>
      </trkpt>
      <trkpt lat="43.8508" lon="6.48187">
        <ele>984</ele>
        <time>2022-06-09T18:40:44Z</time>
      </trkpt>
      <trkpt lat="43.85082" lon="6.48176">
        <ele>986</ele>
        <time>2022-06-09T18:40:46Z</time>
      </trkpt>
      <trkpt lat="43.85092" lon="6.48171">
        <ele>986</ele>
        <time>2022-06-09T18:40:49Z</time>
      </trkpt>
      <trkpt lat="43.85093" lon="6.48165">
        <ele>987</ele>
        <time>2022-06-09T18:40:50Z</time>
      </trkpt>
      <trkpt lat="43.85092" lon="6.48157">
        <ele>989</ele>
        <time>2022-06-09T18:40:51Z</time>
      </trkpt>
      <trkpt lat="43.85078" lon="6.48149">
        <ele>993</ele>
        <time>2022-06-09T18:40:55Z</time>
      </trkpt>
      <trkpt lat="43.85063" lon="6.48136">
        <ele>998</ele>
        <time>2022-06-09T18:40:59Z</time>
      </trkpt>
      <trkpt lat="43.85053" lon="6.48134">
        <ele>1001</ele>
        <time>2022-06-09T18:41:01Z</time>
      </trkpt>
      <trkpt lat="43.8498" lon="6.48148">
        <ele>1009</ele>
        <time>2022-06-09T18:41:18Z</time>
      </trkpt>
      <trkpt lat="43.84973" lon="6.48156">
        <ele>1008</ele>
        <time>2022-06-09T18:41:20Z</time>
      </trkpt>
      <trkpt lat="43.84969" lon="6.48167">
        <ele>1007</ele>
        <time>2022-06-09T18:41:22Z</time>
      </trkpt>
      <trkpt lat="43.8496" lon="6.48174">
        <ele>1006</ele>
        <time>2022-06-09T18:41:25Z</time>
      </trkpt>
      <trkpt lat="43.84962" lon="6.48177">
        <ele>1006</ele>
        <time>2022-06-09T18:41:25Z</time>
      </trkpt>
      <trkpt lat="43.84952" lon="6.48128">
        <ele>1009</ele>
        <time>2022-06-09T18:41:34Z</time>
      </trkpt>
      <trkpt lat="43.84944" lon="6.4811">
        <ele>1010</ele>
        <time>2022-06-09T18:41:38Z</time>
      </trkpt>
      <trkpt lat="43.8494" lon="6.48085">
        <ele>1010</ele>
        <time>2022-06-09T18:41:42Z</time>
      </trkpt>
      <trkpt lat="43.8491" lon="6.48025">
        <ele>1009</ele>
        <time>2022-06-09T18:41:54Z</time>
      </trkpt>
      <trkpt lat="43.84902" lon="6.48015">
        <ele>1008</ele>
        <time>2022-06-09T18:41:57Z</time>
      </trkpt>
      <trkpt lat="43.84896" lon="6.47989">
        <ele>1008</ele>
        <time>2022-06-09T18:42:01Z</time>
      </trkpt>
      <trkpt lat="43.84901" lon="6.47971">
        <ele>1011</ele>
        <time>2022-06-09T18:42:05Z</time>
      </trkpt>
      <trkpt lat="43.849" lon="6.47946">
        <ele>1012</ele>
        <time>2022-06-09T18:42:09Z</time>
      </trkpt>
      <trkpt lat="43.84886" lon="6.47911">
        <ele>1012</ele>
        <time>2022-06-09T18:42:16Z</time>
      </trkpt>
      <trkpt lat="43.84865" lon="6.47807">
        <ele>1021</ele>
        <time>2022-06-09T18:42:34Z</time>
      </trkpt>
      <trkpt lat="43.84865" lon="6.47731">
        <ele>1034</ele>
        <time>2022-06-09T18:42:47Z</time>
      </trkpt>
      <trkpt lat="43.84861" lon="6.47726">
        <ele>1035</ele>
        <time>2022-06-09T18:42:48Z</time>
      </trkpt>
      <trkpt lat="43.8485" lon="6.47724">
        <ele>1034</ele>
        <time>2022-06-09T18:42:50Z</time>
      </trkpt>
      <trkpt lat="43.84842" lon="6.47714">
        <ele>1036</ele>
        <time>2022-06-09T18:42:53Z</time>
      </trkpt>
      <trkpt lat="43.84853" lon="6.47681">
        <ele>1042</ele>
        <time>2022-06-09T18:42:59Z</time>
      </trkpt>
      <trkpt lat="43.84859" lon="6.47648">
        <ele>1047</ele>
        <time>2022-06-09T18:43:05Z</time>
      </trkpt>
      <trkpt lat="43.84877" lon="6.47612">
        <ele>1051</ele>
        <time>2022-06-09T18:43:12Z</time>
      </trkpt>
      <trkpt lat="43.84882" lon="6.47586">
        <ele>1054</ele>
        <time>2022-06-09T18:43:17Z</time>
      </trkpt>
      <trkpt lat="43.8489" lon="6.47565">
        <ele>1056</ele>
        <time>2022-06-09T18:43:21Z</time>
      </trkpt>
      <trkpt lat="43.84896" lon="6.47537">
        <ele>1060</ele>
        <time>2022-06-09T18:43:26Z</time>
      </trkpt>
      <trkpt lat="43.84902" lon="6.47525">
        <ele>1061</ele>
        <time>2022-06-09T18:43:28Z</time>
      </trkpt>
      <trkpt lat="43.84907" lon="6.47494">
        <ele>1066</ele>
        <time>2022-06-09T18:43:33Z</time>
      </trkpt>
      <trkpt lat="43.84906" lon="6.4748">
        <ele>1068</ele>
        <time>2022-06-09T18:43:36Z</time>
      </trkpt>
      <trkpt lat="43.8491" lon="6.47437">
        <ele>1077</ele>
        <time>2022-06-09T18:43:43Z</time>
      </trkpt>
      <trkpt lat="43.84909" lon="6.47416">
        <ele>1081</ele>
        <time>2022-06-09T18:43:47Z</time>
      </trkpt>
      <trkpt lat="43.84926" lon="6.47394">
        <ele>1085</ele>
        <time>2022-06-09T18:43:52Z</time>
      </trkpt>
      <trkpt lat="43.84926" lon="6.47379">
        <ele>1087</ele>
        <time>2022-06-09T18:43:55Z</time>
      </trkpt>
      <trkpt lat="43.84937" lon="6.47337">
        <ele>1094</ele>
        <time>2022-06-09T18:44:02Z</time>
      </trkpt>
      <trkpt lat="43.84948" lon="6.47337">
        <ele>1095</ele>
        <time>2022-06-09T18:44:05Z</time>
      </trkpt>
      <trkpt lat="43.84956" lon="6.47344">
        <ele>1094</ele>
        <time>2022-06-09T18:44:07Z</time>
      </trkpt>
      <trkpt lat="43.8498" lon="6.47357">
        <ele>1094</ele>
        <time>2022-06-09T18:44:13Z</time>
      </trkpt>
      <trkpt lat="43.84983" lon="6.47357">
        <ele>1094</ele>
        <time>2022-06-09T18:44:14Z</time>
      </trkpt>
      <trkpt lat="43.84986" lon="6.47347">
        <ele>1095</ele>
        <time>2022-06-09T18:44:15Z</time>
      </trkpt>
      <trkpt lat="43.84987" lon="6.47338">
        <ele>1096</ele>
        <time>2022-06-09T18:44:17Z</time>
      </trkpt>
      <trkpt lat="43.84982" lon="6.47326">
        <ele>1097</ele>
        <time>2022-06-09T18:44:19Z</time>
      </trkpt>
      <trkpt lat="43.84948" lon="6.47281">
        <ele>1103</ele>
        <time>2022-06-09T18:44:30Z</time>
      </trkpt>
      <trkpt lat="43.8494" lon="6.47276">
        <ele>1103</ele>
        <time>2022-06-09T18:44:32Z</time>
      </trkpt>
      <trkpt lat="43.84922" lon="6.4725">
        <ele>1106</ele>
        <time>2022-06-09T18:44:38Z</time>
      </trkpt>
      <trkpt lat="43.84912" lon="6.47245">
        <ele>1108</ele>
        <time>2022-06-09T18:44:41Z</time>
      </trkpt>
      <trkpt lat="43.84899" lon="6.47246">
        <ele>1111</ele>
        <time>2022-06-09T18:44:44Z</time>
      </trkpt>
      <trkpt lat="43.8488" lon="6.47253">
        <ele>1115</ele>
        <time>2022-06-09T18:44:49Z</time>
      </trkpt>
      <trkpt lat="43.84875" lon="6.47262">
        <ele>1114</ele>
        <time>2022-06-09T18:44:50Z</time>
      </trkpt>
      <trkpt lat="43.84857" lon="6.47273">
        <ele>1117</ele>
        <time>2022-06-09T18:44:55Z</time>
      </trkpt>
      <trkpt lat="43.84837" lon="6.47292">
        <ele>1117</ele>
        <time>2022-06-09T18:45:01Z</time>
      </trkpt>
      <trkpt lat="43.84788" lon="6.47328">
        <ele>1122</ele>
        <time>2022-06-09T18:45:14Z</time>
      </trkpt>
      <trkpt lat="43.8477" lon="6.47343">
        <ele>1123</ele>
        <time>2022-06-09T18:45:19Z</time>
      </trkpt>
      <trkpt lat="43.84748" lon="6.47366">
        <ele>1124</ele>
        <time>2022-06-09T18:45:25Z</time>
      </trkpt>
      <trkpt lat="43.84706" lon="6.47395">
        <ele>1132</ele>
        <time>2022-06-09T18:45:36Z</time>
      </trkpt>
      <trkpt lat="43.84673" lon="6.47447">
        <ele>1129</ele>
        <time>2022-06-09T18:45:48Z</time>
      </trkpt>
      <trkpt lat="43.84645" lon="6.47471">
        <ele>1132</ele>
        <time>2022-06-09T18:45:55Z</time>
      </trkpt>
      <trkpt lat="43.84637" lon="6.47473">
        <ele>1133</ele>
        <time>2022-06-09T18:45:57Z</time>
      </trkpt>
      <trkpt lat="43.84624" lon="6.47487">
        <ele>1133</ele>
        <time>2022-06-09T18:46:01Z</time>
      </trkpt>
      <trkpt lat="43.84609" lon="6.47496">
        <ele>1135</ele>
        <time>2022-06-09T18:46:05Z</time>
      </trkpt>
      <trkpt lat="43.84601" lon="6.47498">
        <ele>1137</ele>
        <time>2022-06-09T18:46:07Z</time>
      </trkpt>
      <trkpt lat="43.8459" lon="6.47492">
        <ele>1142</ele>
        <time>2022-06-09T18:46:09Z</time>
      </trkpt>
      <trkpt lat="43.84569" lon="6.47496">
        <ele>1147</ele>
        <time>2022-06-09T18:46:14Z</time>
      </trkpt>
      <trkpt lat="43.84553" lon="6.47512">
        <ele>1147</ele>
        <time>2022-06-09T18:46:19Z</time>
      </trkpt>
      <trkpt lat="43.84539" lon="6.47541">
        <ele>1142</ele>
        <time>2022-06-09T18:46:25Z</time>
      </trkpt>
      <trkpt lat="43.84522" lon="6.47558">
        <ele>1142</ele>
        <time>2022-06-09T18:46:30Z</time>
      </trkpt>
      <trkpt lat="43.84666" lon="6.46396">
        <ele>1384</ele>
        <time>2022-06-09T18:49:48Z</time>
      </trkpt>
      <trkpt lat="43.84663" lon="6.46404">
        <ele>1383</ele>
        <time>2022-06-09T18:49:50Z</time>
      </trkpt>
      <trkpt lat="43.84659" lon="6.46407">
        <ele>1382</ele>
        <time>2022-06-09T18:49:51Z</time>
      </trkpt>
      <trkpt lat="43.8465" lon="6.46392">
        <ele>1379</ele>
        <time>2022-06-09T18:49:54Z</time>
      </trkpt>
      <trkpt lat="43.84647" lon="6.46365">
        <ele>1378</ele>
        <time>2022-06-09T18:49:59Z</time>
      </trkpt>
      <trkpt lat="43.84619" lon="6.46271">
        <ele>1362</ele>
        <time>2022-06-09T18:50:16Z</time>
      </trkpt>
      <trkpt lat="43.84614" lon="6.4624">
        <ele>1358</ele>
        <time>2022-06-09T18:50:21Z</time>
      </trkpt>
      <trkpt lat="43.84604" lon="6.46201">
        <ele>1350</ele>
        <time>2022-06-09T18:50:28Z</time>
      </trkpt>
      <trkpt lat="43.84603" lon="6.46184">
        <ele>1349</ele>
        <time>2022-06-09T18:50:31Z</time>
      </trkpt>
      <trkpt lat="43.84592" lon="6.46139">
        <ele>1342</ele>
        <time>2022-06-09T18:50:39Z</time>
      </trkpt>
      <trkpt lat="43.8458" lon="6.4611">
        <ele>1336</ele>
        <time>2022-06-09T18:50:45Z</time>
      </trkpt>
      <trkpt lat="43.84567" lon="6.46097">
        <ele>1331</ele>
        <time>2022-06-09T18:50:49Z</time>
      </trkpt>
      <trkpt lat="43.84557" lon="6.46081">
        <ele>1328</ele>
        <time>2022-06-09T18:50:52Z</time>
      </trkpt>
      <trkpt lat="43.84554" lon="6.4608">
        <ele>1327</ele>
        <time>2022-06-09T18:50:53Z</time>
      </trkpt>
      <trkpt lat="43.8455" lon="6.46088">
        <ele>1326</ele>
        <time>2022-06-09T18:50:54Z</time>
      </trkpt>
      <trkpt lat="43.84549" lon="6.4611">
        <ele>1325</ele>
        <time>2022-06-09T18:50:58Z</time>
      </trkpt>
      <trkpt lat="43.84546" lon="6.46117">
        <ele>1324</ele>
        <time>2022-06-09T18:51:00Z</time>
      </trkpt>
      <trkpt lat="43.8454" lon="6.46116">
        <ele>1322</ele>
        <time>2022-06-09T18:51:01Z</time>
      </trkpt>
      <trkpt lat="43.84507" lon="6.46127">
        <ele>1310</ele>
        <time>2022-06-09T18:51:09Z</time>
      </trkpt>
      <trkpt lat="43.84483" lon="6.46131">
        <ele>1301</ele>
        <time>2022-06-09T18:51:15Z</time>
      </trkpt>
      <trkpt lat="43.84463" lon="6.46142">
        <ele>1293</ele>
        <time>2022-06-09T18:51:20Z</time>
      </trkpt>
      <trkpt lat="43.8446" lon="6.46162">
        <ele>1290</ele>
        <time>2022-06-09T18:51:23Z</time>
      </trkpt>
      <trkpt lat="43.84452" lon="6.46186">
        <ele>1286</ele>
        <time>2022-06-09T18:51:27Z</time>
      </trkpt>
      <trkpt lat="43.84451" lon="6.46221">
        <ele>1284</ele>
        <time>2022-06-09T18:51:33Z</time>
      </trkpt>
      <trkpt lat="43.84441" lon="6.46237">
        <ele>1279</ele>
        <time>2022-06-09T18:51:37Z</time>
      </trkpt>
      <trkpt lat="43.84438" lon="6.46263">
        <ele>1278</ele>
        <time>2022-06-09T18:51:41Z</time>
      </trkpt>
      <trkpt lat="43.84424" lon="6.46293">
        <ele>1273</ele>
        <time>2022-06-09T18:51:47Z</time>
      </trkpt>
      <trkpt lat="43.8442" lon="6.46293">
        <ele>1271</ele>
        <time>2022-06-09T18:51:48Z</time>
      </trkpt>
      <trkpt lat="43.84414" lon="6.4626">
        <ele>1267</ele>
        <time>2022-06-09T18:51:54Z</time>
      </trkpt>
      <trkpt lat="43.84402" lon="6.46216">
        <ele>1263</ele>
        <time>2022-06-09T18:52:02Z</time>
      </trkpt>
      <trkpt lat="43.84398" lon="6.46211">
        <ele>1262</ele>
        <time>2022-06-09T18:52:03Z</time>
      </trkpt>
      <trkpt lat="43.8438" lon="6.46194">
        <ele>1255</ele>
        <time>2022-06-09T18:52:08Z</time>
      </trkpt>
      <trkpt lat="43.84369" lon="6.46187">
        <ele>1251</ele>
        <time>2022-06-09T18:52:11Z</time>
      </trkpt>
      <trkpt lat="43.84319" lon="6.46169">
        <ele>1233</ele>
        <time>2022-06-09T18:52:23Z</time>
      </trkpt>
      <trkpt lat="43.84308" lon="6.46163">
        <ele>1229</ele>
        <time>2022-06-09T18:52:26Z</time>
      </trkpt>
      <trkpt lat="43.84298" lon="6.46161">
        <ele>1226</ele>
        <time>2022-06-09T18:52:28Z</time>
      </trkpt>
      <trkpt lat="43.84295" lon="6.46167">
        <ele>1224</ele>
        <time>2022-06-09T18:52:30Z</time>
      </trkpt>
      <trkpt lat="43.84295" lon="6.46184">
        <ele>1222</ele>
        <time>2022-06-09T18:52:32Z</time>
      </trkpt>
      <trkpt lat="43.84285" lon="6.46193">
        <ele>1217</ele>
        <time>2022-06-09T18:52:35Z</time>
      </trkpt>
      <trkpt lat="43.8427" lon="6.46196">
        <ele>1210</ele>
        <time>2022-06-09T18:52:39Z</time>
      </trkpt>
      <trkpt lat="43.84266" lon="6.46218">
        <ele>1206</ele>
        <time>2022-06-09T18:52:43Z</time>
      </trkpt>
      <trkpt lat="43.84266" lon="6.46239">
        <ele>1203</ele>
        <time>2022-06-09T18:52:46Z</time>
      </trkpt>
      <trkpt lat="43.84239" lon="6.46262">
        <ele>1191</ele>
        <time>2022-06-09T18:52:54Z</time>
      </trkpt>
      <trkpt lat="43.84204" lon="6.46272">
        <ele>1179</ele>
        <time>2022-06-09T18:53:02Z</time>
      </trkpt>
      <trkpt lat="43.84191" lon="6.46263">
        <ele>1174</ele>
        <time>2022-06-09T18:53:05Z</time>
      </trkpt>
      <trkpt lat="43.84138" lon="6.46252">
        <ele>1157</ele>
        <time>2022-06-09T18:53:18Z</time>
      </trkpt>
      <trkpt lat="43.84115" lon="6.46232">
        <ele>1153</ele>
        <time>2022-06-09T18:53:24Z</time>
      </trkpt>
      <trkpt lat="43.84097" lon="6.46224">
        <ele>1149</ele>
        <time>2022-06-09T18:53:29Z</time>
      </trkpt>
      <trkpt lat="43.84073" lon="6.4622">
        <ele>1141</ele>
        <time>2022-06-09T18:53:34Z</time>
      </trkpt>
      <trkpt lat="43.8406" lon="6.46203">
        <ele>1141</ele>
        <time>2022-06-09T18:53:38Z</time>
      </trkpt>
      <trkpt lat="43.84049" lon="6.46194">
        <ele>1139</ele>
        <time>2022-06-09T18:53:41Z</time>
      </trkpt>
      <trkpt lat="43.84029" lon="6.46179">
        <ele>1135</ele>
        <time>2022-06-09T18:53:47Z</time>
      </trkpt>
      <trkpt lat="43.84001" lon="6.46165">
        <ele>1128</ele>
        <time>2022-06-09T18:53:54Z</time>
      </trkpt>
      <trkpt lat="43.83997" lon="6.46158">
        <ele>1127</ele>
        <time>2022-06-09T18:53:55Z</time>
      </trkpt>
      <trkpt lat="43.83988" lon="6.46154">
        <ele>1125</ele>
        <time>2022-06-09T18:53:57Z</time>
      </trkpt>
      <trkpt lat="43.83974" lon="6.46137">
        <ele>1124</ele>
        <time>2022-06-09T18:54:02Z</time>
      </trkpt>
      <trkpt lat="43.83962" lon="6.46131">
        <ele>1121</ele>
        <time>2022-06-09T18:54:05Z</time>
      </trkpt>
      <trkpt lat="43.83944" lon="6.46116">
        <ele>1118</ele>
        <time>2022-06-09T18:54:10Z</time>
      </trkpt>
      <trkpt lat="43.83933" lon="6.46118">
        <ele>1115</ele>
        <time>2022-06-09T18:54:12Z</time>
      </trkpt>
      <trkpt lat="43.83923" lon="6.46116">
        <ele>1113</ele>
        <time>2022-06-09T18:54:14Z</time>
      </trkpt>
      <trkpt lat="43.83893" lon="6.46165">
        <ele>1103</ele>
        <time>2022-06-09T18:54:25Z</time>
      </trkpt>
      <trkpt lat="43.83875" lon="6.46182">
        <ele>1098</ele>
        <time>2022-06-09T18:54:30Z</time>
      </trkpt>
      <trkpt lat="43.83868" lon="6.46199">
        <ele>1094</ele>
        <time>2022-06-09T18:54:34Z</time>
      </trkpt>
      <trkpt lat="43.83855" lon="6.46207">
        <ele>1092</ele>
        <time>2022-06-09T18:54:37Z</time>
      </trkpt>
      <trkpt lat="43.83845" lon="6.46217">
        <ele>1089</ele>
        <time>2022-06-09T18:54:40Z</time>
      </trkpt>
      <trkpt lat="43.83836" lon="6.46234">
        <ele>1085</ele>
        <time>2022-06-09T18:54:43Z</time>
      </trkpt>
      <trkpt lat="43.83838" lon="6.46249">
        <ele>1082</ele>
        <time>2022-06-09T18:54:46Z</time>
      </trkpt>
      <trkpt lat="43.83847" lon="6.4627">
        <ele>1078</ele>
        <time>2022-06-09T18:54:50Z</time>
      </trkpt>
      <trkpt lat="43.83853" lon="6.46307">
        <ele>1072</ele>
        <time>2022-06-09T18:54:57Z</time>
      </trkpt>
      <trkpt lat="43.83851" lon="6.46325">
        <ele>1068</ele>
        <time>2022-06-09T18:55:00Z</time>
      </trkpt>
      <trkpt lat="43.83854" lon="6.46357">
        <ele>1062</ele>
        <time>2022-06-09T18:55:05Z</time>
      </trkpt>
      <trkpt lat="43.83852" lon="6.46382">
        <ele>1057</ele>
        <time>2022-06-09T18:55:09Z</time>
      </trkpt>
      <trkpt lat="43.83845" lon="6.46401">
        <ele>1051</ele>
        <time>2022-06-09T18:55:13Z</time>
      </trkpt>
      <trkpt lat="43.83834" lon="6.46421">
        <ele>1046</ele>
        <time>2022-06-09T18:55:17Z</time>
      </trkpt>
      <trkpt lat="43.83804" lon="6.46452">
        <ele>1037</ele>
        <time>2022-06-09T18:55:26Z</time>
      </trkpt>
      <trkpt lat="43.83797" lon="6.46456">
        <ele>1035</ele>
        <time>2022-06-09T18:55:28Z</time>
      </trkpt>
      <trkpt lat="43.83794" lon="6.46454">
        <ele>1035</ele>
        <time>2022-06-09T18:55:28Z</time>
      </trkpt>
      <trkpt lat="43.83794" lon="6.46467">
        <ele>1033</ele>
        <time>2022-06-09T18:55:31Z</time>
      </trkpt>
      <trkpt lat="43.83788" lon="6.4648">
        <ele>1030</ele>
        <time>2022-06-09T18:55:33Z</time>
      </trkpt>
      <trkpt lat="43.83788" lon="6.46445">
        <ele>1036</ele>
        <time>2022-06-09T18:55:39Z</time>
      </trkpt>
      <trkpt lat="43.83764" lon="6.46412">
        <ele>1038</ele>
        <time>2022-06-09T18:55:47Z</time>
      </trkpt>
      <trkpt lat="43.83769" lon="6.46378">
        <ele>1045</ele>
        <time>2022-06-09T18:55:53Z</time>
      </trkpt>
      <trkpt lat="43.83777" lon="6.46356">
        <ele>1051</ele>
        <time>2022-06-09T18:55:57Z</time>
      </trkpt>
      <trkpt lat="43.83771" lon="6.46346">
        <ele>1052</ele>
        <time>2022-06-09T18:55:59Z</time>
      </trkpt>
      <trkpt lat="43.83752" lon="6.46337">
        <ele>1052</ele>
        <time>2022-06-09T18:56:04Z</time>
      </trkpt>
      <trkpt lat="43.83736" lon="6.46326">
        <ele>1050</ele>
        <time>2022-06-09T18:56:08Z</time>
      </trkpt>
      <trkpt lat="43.83717" lon="6.46302">
        <ele>1050</ele>
        <time>2022-06-09T18:56:14Z</time>
      </trkpt>
      <trkpt lat="43.8371" lon="6.46284">
        <ele>1052</ele>
        <time>2022-06-09T18:56:17Z</time>
      </trkpt>
      <trkpt lat="43.83704" lon="6.46256">
        <ele>1057</ele>
        <time>2022-06-09T18:56:22Z</time>
      </trkpt>
      <trkpt lat="43.83689" lon="6.46208">
        <ele>1058</ele>
        <time>2022-06-09T18:56:31Z</time>
      </trkpt>
      <trkpt lat="43.83687" lon="6.46169">
        <ele>1061</ele>
        <time>2022-06-09T18:56:38Z</time>
      </trkpt>
      <trkpt lat="43.83692" lon="6.4615">
        <ele>1060</ele>
        <time>2022-06-09T18:56:41Z</time>
      </trkpt>
      <trkpt lat="43.8372" lon="6.46109">
        <ele>1062</ele>
        <time>2022-06-09T18:56:51Z</time>
      </trkpt>
      <trkpt lat="43.83729" lon="6.46083">
        <ele>1061</ele>
        <time>2022-06-09T18:56:56Z</time>
      </trkpt>
      <trkpt lat="43.8377" lon="6.46032">
        <ele>1062</ele>
        <time>2022-06-09T18:57:08Z</time>
      </trkpt>
      <trkpt lat="43.83786" lon="6.46001">
        <ele>1064</ele>
        <time>2022-06-09T18:57:15Z</time>
      </trkpt>
      <trkpt lat="43.83792" lon="6.45982">
        <ele>1066</ele>
        <time>2022-06-09T18:57:18Z</time>
      </trkpt>
      <trkpt lat="43.83796" lon="6.45956">
        <ele>1068</ele>
        <time>2022-06-09T18:57:23Z</time>
      </trkpt>
      <trkpt lat="43.83799" lon="6.45894">
        <ele>1069</ele>
        <time>2022-06-09T18:57:33Z</time>
      </trkpt>
      <trkpt lat="43.83795" lon="6.45821">
        <ele>1066</ele>
        <time>2022-06-09T18:57:46Z</time>
      </trkpt>
      <trkpt lat="43.838" lon="6.45772">
        <ele>1061</ele>
        <time>2022-06-09T18:57:54Z</time>
      </trkpt>
      <trkpt lat="43.83827" lon="6.45717">
        <ele>1063</ele>
        <time>2022-06-09T18:58:05Z</time>
      </trkpt>
      <trkpt lat="43.83859" lon="6.45641">
        <ele>1058</ele>
        <time>2022-06-09T18:58:20Z</time>
      </trkpt>
      <trkpt lat="43.83873" lon="6.4559">
        <ele>1053</ele>
        <time>2022-06-09T18:58:29Z</time>
      </trkpt>
      <trkpt lat="43.83885" lon="6.45511">
        <ele>1046</ele>
        <time>2022-06-09T18:58:43Z</time>
      </trkpt>
      <trkpt lat="43.8389" lon="6.45502">
        <ele>1047</ele>
        <time>2022-06-09T18:58:45Z</time>
      </trkpt>
      <trkpt lat="43.83891" lon="6.45485">
        <ele>1048</ele>
        <time>2022-06-09T18:58:48Z</time>
      </trkpt>
      <trkpt lat="43.83888" lon="6.45461">
        <ele>1047</ele>
        <time>2022-06-09T18:58:52Z</time>
      </trkpt>
      <trkpt lat="43.83871" lon="6.45427">
        <ele>1041</ele>
        <time>2022-06-09T18:58:59Z</time>
      </trkpt>
      <trkpt lat="43.83861" lon="6.45386">
        <ele>1042</ele>
        <time>2022-06-09T18:59:06Z</time>
      </trkpt>
      <trkpt lat="43.83831" lon="6.45335">
        <ele>1038</ele>
        <time>2022-06-09T18:59:17Z</time>
      </trkpt>
      <trkpt lat="43.8383" lon="6.45322">
        <ele>1038</ele>
        <time>2022-06-09T18:59:19Z</time>
      </trkpt>
      <trkpt lat="43.83833" lon="6.45302">
        <ele>1040</ele>
        <time>2022-06-09T18:59:23Z</time>
      </trkpt>
      <trkpt lat="43.83832" lon="6.45283">
        <ele>1040</ele>
        <time>2022-06-09T18:59:26Z</time>
      </trkpt>
      <trkpt lat="43.83835" lon="6.45249">
        <ele>1041</ele>
        <time>2022-06-09T18:59:32Z</time>
      </trkpt>
      <trkpt lat="43.83842" lon="6.45231">
        <ele>1039</ele>
        <time>2022-06-09T18:59:35Z</time>
      </trkpt>
      <trkpt lat="43.83881" lon="6.45186">
        <ele>1039</ele>
        <time>2022-06-09T18:59:47Z</time>
      </trkpt>
      <trkpt lat="43.83944" lon="6.45175">
        <ele>1051</ele>
        <time>2022-06-09T19:00:02Z</time>
      </trkpt>
      <trkpt lat="43.83963" lon="6.4518">
        <ele>1057</ele>
        <time>2022-06-09T19:00:06Z</time>
      </trkpt>
      <trkpt lat="43.83995" lon="6.45173">
        <ele>1061</ele>
        <time>2022-06-09T19:00:14Z</time>
      </trkpt>
      <trkpt lat="43.84004" lon="6.45169">
        <ele>1062</ele>
        <time>2022-06-09T19:00:16Z</time>
      </trkpt>
      <trkpt lat="43.8404" lon="6.45133">
        <ele>1063</ele>
        <time>2022-06-09T19:00:26Z</time>
      </trkpt>
      <trkpt lat="43.8406" lon="6.45089">
        <ele>1060</ele>
        <time>2022-06-09T19:00:35Z</time>
      </trkpt>
      <trkpt lat="43.84069" lon="6.45078">
        <ele>1061</ele>
        <time>2022-06-09T19:00:38Z</time>
      </trkpt>
      <trkpt lat="43.84083" lon="6.45051">
        <ele>1061</ele>
        <time>2022-06-09T19:00:44Z</time>
      </trkpt>
      <trkpt lat="43.84087" lon="6.45038">
        <ele>1060</ele>
        <time>2022-06-09T19:00:46Z</time>
      </trkpt>
      <trkpt lat="43.84106" lon="6.45025">
        <ele>1061</ele>
        <time>2022-06-09T19:00:51Z</time>
      </trkpt>
      <trkpt lat="43.84114" lon="6.45011">
        <ele>1060</ele>
        <time>2022-06-09T19:00:54Z</time>
      </trkpt>
      <trkpt lat="43.84115" lon="6.44989">
        <ele>1058</ele>
        <time>2022-06-09T19:00:58Z</time>
      </trkpt>
      <trkpt lat="43.8411" lon="6.44965">
        <ele>1055</ele>
        <time>2022-06-09T19:01:02Z</time>
      </trkpt>
      <trkpt lat="43.84109" lon="6.44922">
        <ele>1052</ele>
        <time>2022-06-09T19:01:09Z</time>
      </trkpt>
      <trkpt lat="43.84111" lon="6.4491">
        <ele>1052</ele>
        <time>2022-06-09T19:01:11Z</time>
      </trkpt>
      <trkpt lat="43.84118" lon="6.44897">
        <ele>1053</ele>
        <time>2022-06-09T19:01:14Z</time>
      </trkpt>
      <trkpt lat="43.84135" lon="6.44889">
        <ele>1056</ele>
        <time>2022-06-09T19:01:18Z</time>
      </trkpt>
      <trkpt lat="43.84146" lon="6.44877">
        <ele>1058</ele>
        <time>2022-06-09T19:01:21Z</time>
      </trkpt>
      <trkpt lat="43.84146" lon="6.4487">
        <ele>1058</ele>
        <time>2022-06-09T19:01:22Z</time>
      </trkpt>
      <trkpt lat="43.8414" lon="6.44863">
        <ele>1056</ele>
        <time>2022-06-09T19:01:24Z</time>
      </trkpt>
      <trkpt lat="43.84134" lon="6.44861">
        <ele>1055</ele>
        <time>2022-06-09T19:01:26Z</time>
      </trkpt>
      <trkpt lat="43.84126" lon="6.44864">
        <ele>1054</ele>
        <time>2022-06-09T19:01:28Z</time>
      </trkpt>
      <trkpt lat="43.84111" lon="6.44888">
        <ele>1051</ele>
        <time>2022-06-09T19:01:33Z</time>
      </trkpt>
      <trkpt lat="43.84095" lon="6.44908">
        <ele>1048</ele>
        <time>2022-06-09T19:01:38Z</time>
      </trkpt>
      <trkpt lat="43.84092" lon="6.44919">
        <ele>1048</ele>
        <time>2022-06-09T19:01:40Z</time>
      </trkpt>
      <trkpt lat="43.84093" lon="6.44939">
        <ele>1050</ele>
        <time>2022-06-09T19:01:43Z</time>
      </trkpt>
      <trkpt lat="43.8408" lon="6.44979">
        <ele>1050</ele>
        <time>2022-06-09T19:01:51Z</time>
      </trkpt>
      <trkpt lat="43.84074" lon="6.45012">
        <ele>1052</ele>
        <time>2022-06-09T19:01:57Z</time>
      </trkpt>
      <trkpt lat="43.8407" lon="6.4502">
        <ele>1051</ele>
        <time>2022-06-09T19:01:58Z</time>
      </trkpt>
      <trkpt lat="43.84054" lon="6.45036">
        <ele>1048</ele>
        <time>2022-06-09T19:02:03Z</time>
      </trkpt>
      <trkpt lat="43.84048" lon="6.45016">
        <ele>1043</ele>
        <time>2022-06-09T19:02:06Z</time>
      </trkpt>
      <trkpt lat="43.84048" lon="6.45005">
        <ele>1041</ele>
        <time>2022-06-09T19:02:08Z</time>
      </trkpt>
      <trkpt lat="43.8404" lon="6.44996">
        <ele>1036</ele>
        <time>2022-06-09T19:02:11Z</time>
      </trkpt>
      <trkpt lat="43.84022" lon="6.45004">
        <ele>1031</ele>
        <time>2022-06-09T19:02:15Z</time>
      </trkpt>
      <trkpt lat="43.84016" lon="6.45011">
        <ele>1030</ele>
        <time>2022-06-09T19:02:17Z</time>
      </trkpt>
      <trkpt lat="43.84006" lon="6.44984">
        <ele>1023</ele>
        <time>2022-06-09T19:02:22Z</time>
      </trkpt>
      <trkpt lat="43.84004" lon="6.44958">
        <ele>1019</ele>
        <time>2022-06-09T19:02:26Z</time>
      </trkpt>
      <trkpt lat="43.83996" lon="6.44964">
        <ele>1016</ele>
        <time>2022-06-09T19:02:29Z</time>
      </trkpt>
      <trkpt lat="43.83973" lon="6.44964">
        <ele>1005</ele>
        <time>2022-06-09T19:02:34Z</time>
      </trkpt>
      <trkpt lat="43.83969" lon="6.44948">
        <ele>1001</ele>
        <time>2022-06-09T19:02:37Z</time>
      </trkpt>
      <trkpt lat="43.8396" lon="6.44945">
        <ele>996</ele>
        <time>2022-06-09T19:02:39Z</time>
      </trkpt>
      <trkpt lat="43.8395" lon="6.44954">
        <ele>992</ele>
        <time>2022-06-09T19:02:42Z</time>
      </trkpt>
      <trkpt lat="43.83943" lon="6.44979">
        <ele>993</ele>
        <time>2022-06-09T19:02:46Z</time>
      </trkpt>
      <trkpt lat="43.83927" lon="6.44993">
        <ele>988</ele>
        <time>2022-06-09T19:02:51Z</time>
      </trkpt>
      <trkpt lat="43.83927" lon="6.44962">
        <ele>982</ele>
        <time>2022-06-09T19:02:56Z</time>
      </trkpt>
      <trkpt lat="43.83924" lon="6.44958">
        <ele>980</ele>
        <time>2022-06-09T19:02:57Z</time>
      </trkpt>
      <trkpt lat="43.8391" lon="6.44961">
        <ele>974</ele>
        <time>2022-06-09T19:03:00Z</time>
      </trkpt>
      <trkpt lat="43.83901" lon="6.4497">
        <ele>971</ele>
        <time>2022-06-09T19:03:03Z</time>
      </trkpt>
      <trkpt lat="43.83893" lon="6.44961">
        <ele>965</ele>
        <time>2022-06-09T19:03:05Z</time>
      </trkpt>
      <trkpt lat="43.83877" lon="6.44977">
        <ele>960</ele>
        <time>2022-06-09T19:03:10Z</time>
      </trkpt>
      <trkpt lat="43.83856" lon="6.44979">
        <ele>951</ele>
        <time>2022-06-09T19:03:15Z</time>
      </trkpt>
      <trkpt lat="43.83843" lon="6.44984">
        <ele>946</ele>
        <time>2022-06-09T19:03:18Z</time>
      </trkpt>
      <trkpt lat="43.83838" lon="6.44989">
        <ele>945</ele>
        <time>2022-06-09T19:03:19Z</time>
      </trkpt>
      <trkpt lat="43.83823" lon="6.44991">
        <ele>939</ele>
        <time>2022-06-09T19:03:23Z</time>
      </trkpt>
      <trkpt lat="43.83835" lon="6.44972">
        <ele>938</ele>
        <time>2022-06-09T19:03:27Z</time>
      </trkpt>
      <trkpt lat="43.83847" lon="6.4496">
        <ele>941</ele>
        <time>2022-06-09T19:03:31Z</time>
      </trkpt>
      <trkpt lat="43.83862" lon="6.44952">
        <ele>947</ele>
        <time>2022-06-09T19:03:34Z</time>
      </trkpt>
      <trkpt lat="43.83879" lon="6.44939">
        <ele>953</ele>
        <time>2022-06-09T19:03:39Z</time>
      </trkpt>
      <trkpt lat="43.8388" lon="6.44932">
        <ele>951</ele>
        <time>2022-06-09T19:03:40Z</time>
      </trkpt>
      <trkpt lat="43.83875" lon="6.44829">
        <ele>956</ele>
        <time>2022-06-09T19:03:57Z</time>
      </trkpt>
      <trkpt lat="43.83859" lon="6.44802">
        <ele>954</ele>
        <time>2022-06-09T19:04:03Z</time>
      </trkpt>
      <trkpt lat="43.83853" lon="6.44787">
        <ele>955</ele>
        <time>2022-06-09T19:04:06Z</time>
      </trkpt>
      <trkpt lat="43.8385" lon="6.44771">
        <ele>958</ele>
        <time>2022-06-09T19:04:09Z</time>
      </trkpt>
      <trkpt lat="43.83836" lon="6.44744">
        <ele>959</ele>
        <time>2022-06-09T19:04:15Z</time>
      </trkpt>
      <trkpt lat="43.83834" lon="6.44714">
        <ele>970</ele>
        <time>2022-06-09T19:04:20Z</time>
      </trkpt>
      <trkpt lat="43.8383" lon="6.44707">
        <ele>972</ele>
        <time>2022-06-09T19:04:21Z</time>
      </trkpt>
      <trkpt lat="43.83797" lon="6.44662">
        <ele>983</ele>
        <time>2022-06-09T19:04:32Z</time>
      </trkpt>
      <trkpt lat="43.83785" lon="6.44659">
        <ele>981</ele>
        <time>2022-06-09T19:04:35Z</time>
      </trkpt>
      <trkpt lat="43.8376" lon="6.44645">
        <ele>981</ele>
        <time>2022-06-09T19:04:41Z</time>
      </trkpt>
      <trkpt lat="43.83748" lon="6.44648">
        <ele>977</ele>
        <time>2022-06-09T19:04:44Z</time>
      </trkpt>
      <trkpt lat="43.83739" lon="6.44654">
        <ele>974</ele>
        <time>2022-06-09T19:04:46Z</time>
      </trkpt>
      <trkpt lat="43.83713" lon="6.44659">
        <ele>970</ele>
        <time>2022-06-09T19:04:52Z</time>
      </trkpt>
      <trkpt lat="43.83702" lon="6.44667">
        <ele>967</ele>
        <time>2022-06-09T19:04:55Z</time>
      </trkpt>
      <trkpt lat="43.83697" lon="6.44675">
        <ele>962</ele>
        <time>2022-06-09T19:04:57Z</time>
      </trkpt>
      <trkpt lat="43.83693" lon="6.44675">
        <ele>962</ele>
        <time>2022-06-09T19:04:58Z</time>
      </trkpt>
      <trkpt lat="43.8368" lon="6.44668">
        <ele>965</ele>
        <time>2022-06-09T19:05:01Z</time>
      </trkpt>
      <trkpt lat="43.83659" lon="6.44642">
        <ele>974</ele>
        <time>2022-06-09T19:05:08Z</time>
      </trkpt>
      <trkpt lat="43.83629" lon="6.44617">
        <ele>979</ele>
        <time>2022-06-09T19:05:16Z</time>
      </trkpt>
      <trkpt lat="43.83612" lon="6.44611">
        <ele>979</ele>
        <time>2022-06-09T19:05:20Z</time>
      </trkpt>
      <trkpt lat="43.83603" lon="6.44603">
        <ele>980</ele>
        <time>2022-06-09T19:05:23Z</time>
      </trkpt>
      <trkpt lat="43.83582" lon="6.44593">
        <ele>979</ele>
        <time>2022-06-09T19:05:28Z</time>
      </trkpt>
      <trkpt lat="43.8356" lon="6.44575">
        <ele>981</ele>
        <time>2022-06-09T19:05:34Z</time>
      </trkpt>
      <trkpt lat="43.83554" lon="6.44561">
        <ele>979</ele>
        <time>2022-06-09T19:05:37Z</time>
      </trkpt>
      <trkpt lat="43.8355" lon="6.44534">
        <ele>976</ele>
        <time>2022-06-09T19:05:41Z</time>
      </trkpt>
      <trkpt lat="43.83549" lon="6.4452">
        <ele>974</ele>
        <time>2022-06-09T19:05:44Z</time>
      </trkpt>
      <trkpt lat="43.83553" lon="6.4449">
        <ele>971</ele>
        <time>2022-06-09T19:05:49Z</time>
      </trkpt>
      <trkpt lat="43.83576" lon="6.44429">
        <ele>968</ele>
        <time>2022-06-09T19:06:00Z</time>
      </trkpt>
      <trkpt lat="43.83598" lon="6.44331">
        <ele>959</ele>
        <time>2022-06-09T19:06:18Z</time>
      </trkpt>
      <trkpt lat="43.83612" lon="6.443">
        <ele>958</ele>
        <time>2022-06-09T19:06:24Z</time>
      </trkpt>
      <trkpt lat="43.83635" lon="6.44261">
        <ele>963</ele>
        <time>2022-06-09T19:06:32Z</time>
      </trkpt>
      <trkpt lat="43.83643" lon="6.44238">
        <ele>964</ele>
        <time>2022-06-09T19:06:37Z</time>
      </trkpt>
      <trkpt lat="43.83641" lon="6.4421">
        <ele>956</ele>
        <time>2022-06-09T19:06:41Z</time>
      </trkpt>
      <trkpt lat="43.83646" lon="6.44187">
        <ele>956</ele>
        <time>2022-06-09T19:06:45Z</time>
      </trkpt>
      <trkpt lat="43.83648" lon="6.44139">
        <ele>950</ele>
        <time>2022-06-09T19:06:53Z</time>
      </trkpt>
      <trkpt lat="43.83656" lon="6.44077">
        <ele>949</ele>
        <time>2022-06-09T19:07:04Z</time>
      </trkpt>
      <trkpt lat="43.83663" lon="6.44048">
        <ele>949</ele>
        <time>2022-06-09T19:07:09Z</time>
      </trkpt>
      <trkpt lat="43.83673" lon="6.44035">
        <ele>952</ele>
        <time>2022-06-09T19:07:12Z</time>
      </trkpt>
      <trkpt lat="43.83695" lon="6.44017">
        <ele>954</ele>
        <time>2022-06-09T19:07:18Z</time>
      </trkpt>
      <trkpt lat="43.83706" lon="6.44004">
        <ele>954</ele>
        <time>2022-06-09T19:07:22Z</time>
      </trkpt>
      <trkpt lat="43.8372" lon="6.43998">
        <ele>956</ele>
        <time>2022-06-09T19:07:25Z</time>
      </trkpt>
      <trkpt lat="43.83736" lon="6.43998">
        <ele>960</ele>
        <time>2022-06-09T19:07:29Z</time>
      </trkpt>
      <trkpt lat="43.8374" lon="6.43996">
        <ele>961</ele>
        <time>2022-06-09T19:07:30Z</time>
      </trkpt>
      <trkpt lat="43.83745" lon="6.43984">
        <ele>961</ele>
        <time>2022-06-09T19:07:32Z</time>
      </trkpt>
      <trkpt lat="43.83751" lon="6.43949">
        <ele>959</ele>
        <time>2022-06-09T19:07:38Z</time>
      </trkpt>
      <trkpt lat="43.83761" lon="6.43924">
        <ele>962</ele>
        <time>2022-06-09T19:07:43Z</time>
      </trkpt>
      <trkpt lat="43.83765" lon="6.43897">
        <ele>964</ele>
        <time>2022-06-09T19:07:48Z</time>
      </trkpt>
      <trkpt lat="43.83757" lon="6.43846">
        <ele>960</ele>
        <time>2022-06-09T19:07:57Z</time>
      </trkpt>
      <trkpt lat="43.83758" lon="6.43838">
        <ele>961</ele>
        <time>2022-06-09T19:07:58Z</time>
      </trkpt>
      <trkpt lat="43.83752" lon="6.43811">
        <ele>958</ele>
        <time>2022-06-09T19:08:03Z</time>
      </trkpt>
      <trkpt lat="43.83749" lon="6.43773">
        <ele>958</ele>
        <time>2022-06-09T19:08:09Z</time>
      </trkpt>
      <trkpt lat="43.83755" lon="6.43739">
        <ele>958</ele>
        <time>2022-06-09T19:08:15Z</time>
      </trkpt>
      <trkpt lat="43.83763" lon="6.43728">
        <ele>957</ele>
        <time>2022-06-09T19:08:18Z</time>
      </trkpt>
      <trkpt lat="43.83795" lon="6.43699">
        <ele>953</ele>
        <time>2022-06-09T19:08:27Z</time>
      </trkpt>
      <trkpt lat="43.8383" lon="6.43661">
        <ele>940</ele>
        <time>2022-06-09T19:08:37Z</time>
      </trkpt>
      <trkpt lat="43.83846" lon="6.43648">
        <ele>937</ele>
        <time>2022-06-09T19:08:41Z</time>
      </trkpt>
      <trkpt lat="43.83883" lon="6.43636">
        <ele>938</ele>
        <time>2022-06-09T19:08:50Z</time>
      </trkpt>
      <trkpt lat="43.83893" lon="6.43631">
        <ele>938</ele>
        <time>2022-06-09T19:08:53Z</time>
      </trkpt>
      <trkpt lat="43.83903" lon="6.4362">
        <ele>935</ele>
        <time>2022-06-09T19:08:56Z</time>
      </trkpt>
      <trkpt lat="43.83935" lon="6.43606">
        <ele>936</ele>
        <time>2022-06-09T19:09:03Z</time>
      </trkpt>
      <trkpt lat="43.83954" lon="6.43583">
        <ele>931</ele>
        <time>2022-06-09T19:09:09Z</time>
      </trkpt>
      <trkpt lat="43.84007" lon="6.43531">
        <ele>930</ele>
        <time>2022-06-09T19:09:24Z</time>
      </trkpt>
      <trkpt lat="43.8401" lon="6.43521">
        <ele>928</ele>
        <time>2022-06-09T19:09:26Z</time>
      </trkpt>
      <trkpt lat="43.84012" lon="6.43499">
        <ele>923</ele>
        <time>2022-06-09T19:09:30Z</time>
      </trkpt>
      <trkpt lat="43.8401" lon="6.43486">
        <ele>921</ele>
        <time>2022-06-09T19:09:32Z</time>
      </trkpt>
      <trkpt lat="43.83997" lon="6.43462">
        <ele>913</ele>
        <time>2022-06-09T19:09:37Z</time>
      </trkpt>
      <trkpt lat="43.83993" lon="6.43447">
        <ele>911</ele>
        <time>2022-06-09T19:09:40Z</time>
      </trkpt>
      <trkpt lat="43.83973" lon="6.43412">
        <ele>902</ele>
        <time>2022-06-09T19:09:48Z</time>
      </trkpt>
      <trkpt lat="43.83967" lon="6.43414">
        <ele>899</ele>
        <time>2022-06-09T19:09:49Z</time>
      </trkpt>
      <trkpt lat="43.83941" lon="6.43492">
        <ele>898</ele>
        <time>2022-06-09T19:10:03Z</time>
      </trkpt>
      <trkpt lat="43.83935" lon="6.43499">
        <ele>897</ele>
        <time>2022-06-09T19:10:05Z</time>
      </trkpt>
      <trkpt lat="43.83917" lon="6.43507">
        <ele>894</ele>
        <time>2022-06-09T19:10:10Z</time>
      </trkpt>
      <trkpt lat="43.83915" lon="6.43503">
        <ele>892</ele>
        <time>2022-06-09T19:10:11Z</time>
      </trkpt>
      <trkpt lat="43.83917" lon="6.43467">
        <ele>888</ele>
        <time>2022-06-09T19:10:17Z</time>
      </trkpt>
      <trkpt lat="43.8391" lon="6.43433">
        <ele>882</ele>
        <time>2022-06-09T19:10:23Z</time>
      </trkpt>
      <trkpt lat="43.83891" lon="6.43421">
        <ele>876</ele>
        <time>2022-06-09T19:10:27Z</time>
      </trkpt>
      <trkpt lat="43.83875" lon="6.43389">
        <ele>877</ele>
        <time>2022-06-09T19:10:34Z</time>
      </trkpt>
      <trkpt lat="43.83848" lon="6.43355">
        <ele>875</ele>
        <time>2022-06-09T19:10:43Z</time>
      </trkpt>
      <trkpt lat="43.83813" lon="6.43293">
        <ele>877</ele>
        <time>2022-06-09T19:10:56Z</time>
      </trkpt>
      <trkpt lat="43.83781" lon="6.43229">
        <ele>880</ele>
        <time>2022-06-09T19:11:09Z</time>
      </trkpt>
      <trkpt lat="43.83755" lon="6.43191">
        <ele>876</ele>
        <time>2022-06-09T19:11:18Z</time>
      </trkpt>
      <trkpt lat="43.83733" lon="6.43145">
        <ele>878</ele>
        <time>2022-06-09T19:11:27Z</time>
      </trkpt>
      <trkpt lat="43.83719" lon="6.43127">
        <ele>876</ele>
        <time>2022-06-09T19:11:31Z</time>
      </trkpt>
      <trkpt lat="43.83709" lon="6.43102">
        <ele>877</ele>
        <time>2022-06-09T19:11:36Z</time>
      </trkpt>
      <trkpt lat="43.83709" lon="6.4298">
        <ele>880</ele>
        <time>2022-06-09T19:11:57Z</time>
      </trkpt>
      <trkpt lat="43.83705" lon="6.42895">
        <ele>872</ele>
        <time>2022-06-09T19:12:11Z</time>
      </trkpt>
      <trkpt lat="43.83702" lon="6.42881">
        <ele>869</ele>
        <time>2022-06-09T19:12:14Z</time>
      </trkpt>
      <trkpt lat="43.83705" lon="6.42872">
        <ele>870</ele>
        <time>2022-06-09T19:12:15Z</time>
      </trkpt>
      <trkpt lat="43.83707" lon="6.42872">
        <ele>871</ele>
        <time>2022-06-09T19:12:16Z</time>
      </trkpt>
      <trkpt lat="43.83706" lon="6.4286">
        <ele>869</ele>
        <time>2022-06-09T19:12:18Z</time>
      </trkpt>
      <trkpt lat="43.83715" lon="6.42817">
        <ele>866</ele>
        <time>2022-06-09T19:12:25Z</time>
      </trkpt>
      <trkpt lat="43.83743" lon="6.42786">
        <ele>870</ele>
        <time>2022-06-09T19:12:34Z</time>
      </trkpt>
      <trkpt lat="43.8375" lon="6.42764">
        <ele>868</ele>
        <time>2022-06-09T19:12:38Z</time>
      </trkpt>
      <trkpt lat="43.83757" lon="6.42755">
        <ele>868</ele>
        <time>2022-06-09T19:12:40Z</time>
      </trkpt>
      <trkpt lat="43.83768" lon="6.42746">
        <ele>869</ele>
        <time>2022-06-09T19:12:43Z</time>
      </trkpt>
      <trkpt lat="43.83838" lon="6.4271">
        <ele>884</ele>
        <time>2022-06-09T19:13:00Z</time>
      </trkpt>
      <trkpt lat="43.83844" lon="6.42696">
        <ele>884</ele>
        <time>2022-06-09T19:13:03Z</time>
      </trkpt>
      <trkpt lat="43.83832" lon="6.42627">
        <ele>864</ele>
        <time>2022-06-09T19:13:15Z</time>
      </trkpt>
      <trkpt lat="43.83834" lon="6.42606">
        <ele>860</ele>
        <time>2022-06-09T19:13:19Z</time>
      </trkpt>
      <trkpt lat="43.83846" lon="6.42596">
        <ele>863</ele>
        <time>2022-06-09T19:13:22Z</time>
      </trkpt>
      <trkpt lat="43.83883" lon="6.42588">
        <ele>876</ele>
        <time>2022-06-09T19:13:31Z</time>
      </trkpt>
      <trkpt lat="43.83898" lon="6.42589">
        <ele>883</ele>
        <time>2022-06-09T19:13:34Z</time>
      </trkpt>
      <trkpt lat="43.83902" lon="6.42579">
        <ele>882</ele>
        <time>2022-06-09T19:13:36Z</time>
      </trkpt>
      <trkpt lat="43.839" lon="6.42557">
        <ele>876</ele>
        <time>2022-06-09T19:13:40Z</time>
      </trkpt>
      <trkpt lat="43.83894" lon="6.42532">
        <ele>867</ele>
        <time>2022-06-09T19:13:44Z</time>
      </trkpt>
      <trkpt lat="43.83896" lon="6.42501">
        <ele>860</ele>
        <time>2022-06-09T19:13:50Z</time>
      </trkpt>
      <trkpt lat="43.83899" lon="6.42489">
        <ele>860</ele>
        <time>2022-06-09T19:13:52Z</time>
      </trkpt>
      <trkpt lat="43.83924" lon="6.42468">
        <ele>866</ele>
        <time>2022-06-09T19:13:59Z</time>
      </trkpt>
      <trkpt lat="43.83944" lon="6.42459">
        <ele>873</ele>
        <time>2022-06-09T19:14:03Z</time>
      </trkpt>
      <trkpt lat="43.83941" lon="6.42441">
        <ele>869</ele>
        <time>2022-06-09T19:14:07Z</time>
      </trkpt>
      <trkpt lat="43.83943" lon="6.42431">
        <ele>869</ele>
        <time>2022-06-09T19:14:08Z</time>
      </trkpt>
      <trkpt lat="43.83962" lon="6.42401">
        <ele>881</ele>
        <time>2022-06-09T19:14:15Z</time>
      </trkpt>
      <trkpt lat="43.83958" lon="6.42381">
        <ele>886</ele>
        <time>2022-06-09T19:14:19Z</time>
      </trkpt>
      <trkpt lat="43.83951" lon="6.42371">
        <ele>887</ele>
        <time>2022-06-09T19:14:21Z</time>
      </trkpt>
      <trkpt lat="43.83937" lon="6.42372">
        <ele>880</ele>
        <time>2022-06-09T19:14:24Z</time>
      </trkpt>
      <trkpt lat="43.83927" lon="6.42369">
        <ele>876</ele>
        <time>2022-06-09T19:14:27Z</time>
      </trkpt>
      <trkpt lat="43.83918" lon="6.42345">
        <ele>879</ele>
        <time>2022-06-09T19:14:31Z</time>
      </trkpt>
      <trkpt lat="43.83907" lon="6.42326">
        <ele>885</ele>
        <time>2022-06-09T19:14:35Z</time>
      </trkpt>
      <trkpt lat="43.83679" lon="6.42183">
        <ele>893</ele>
        <time>2022-06-09T19:15:34Z</time>
      </trkpt>
      <trkpt lat="43.83667" lon="6.42154">
        <ele>894</ele>
        <time>2022-06-09T19:15:39Z</time>
      </trkpt>
      <trkpt lat="43.83669" lon="6.42138">
        <ele>897</ele>
        <time>2022-06-09T19:15:42Z</time>
      </trkpt>
      <trkpt lat="43.83666" lon="6.42118">
        <ele>900</ele>
        <time>2022-06-09T19:15:45Z</time>
      </trkpt>
      <trkpt lat="43.83674" lon="6.42083">
        <ele>909</ele>
        <time>2022-06-09T19:15:52Z</time>
      </trkpt>
      <trkpt lat="43.83674" lon="6.42054">
        <ele>917</ele>
        <time>2022-06-09T19:15:56Z</time>
      </trkpt>
      <trkpt lat="43.83669" lon="6.42031">
        <ele>921</ele>
        <time>2022-06-09T19:16:01Z</time>
      </trkpt>
      <trkpt lat="43.83656" lon="6.42019">
        <ele>922</ele>
        <time>2022-06-09T19:16:04Z</time>
      </trkpt>
      <trkpt lat="43.83644" lon="6.42012">
        <ele>922</ele>
        <time>2022-06-09T19:16:07Z</time>
      </trkpt>
      <trkpt lat="43.83635" lon="6.42009">
        <ele>921</ele>
        <time>2022-06-09T19:16:09Z</time>
      </trkpt>
      <trkpt lat="43.83615" lon="6.4201">
        <ele>918</ele>
        <time>2022-06-09T19:16:14Z</time>
      </trkpt>
      <trkpt lat="43.83595" lon="6.42003">
        <ele>917</ele>
        <time>2022-06-09T19:16:19Z</time>
      </trkpt>
      <trkpt lat="43.83576" lon="6.41991">
        <ele>916</ele>
        <time>2022-06-09T19:16:24Z</time>
      </trkpt>
      <trkpt lat="43.83556" lon="6.41964">
        <ele>917</ele>
        <time>2022-06-09T19:16:30Z</time>
      </trkpt>
      <trkpt lat="43.83551" lon="6.41943">
        <ele>921</ele>
        <time>2022-06-09T19:16:34Z</time>
      </trkpt>
      <trkpt lat="43.8355" lon="6.41923">
        <ele>926</ele>
        <time>2022-06-09T19:16:37Z</time>
      </trkpt>
      <trkpt lat="43.83546" lon="6.41911">
        <ele>928</ele>
        <time>2022-06-09T19:16:40Z</time>
      </trkpt>
      <trkpt lat="43.83539" lon="6.41896">
        <ele>930</ele>
        <time>2022-06-09T19:16:43Z</time>
      </trkpt>
      <trkpt lat="43.83524" lon="6.41875">
        <ele>930</ele>
        <time>2022-06-09T19:16:48Z</time>
      </trkpt>
      <trkpt lat="43.83512" lon="6.41847">
        <ele>933</ele>
        <time>2022-06-09T19:16:53Z</time>
      </trkpt>
      <trkpt lat="43.83499" lon="6.41836">
        <ele>931</ele>
        <time>2022-06-09T19:16:57Z</time>
      </trkpt>
      <trkpt lat="43.83488" lon="6.41807">
        <ele>936</ele>
        <time>2022-06-09T19:17:02Z</time>
      </trkpt>
      <trkpt lat="43.83485" lon="6.41807">
        <ele>935</ele>
        <time>2022-06-09T19:17:03Z</time>
      </trkpt>
      <trkpt lat="43.83457" lon="6.41722">
        <ele>951</ele>
        <time>2022-06-09T19:17:19Z</time>
      </trkpt>
      <trkpt lat="43.83444" lon="6.41709">
        <ele>950</ele>
        <time>2022-06-09T19:17:22Z</time>
      </trkpt>
      <trkpt lat="43.83421" lon="6.41679">
        <ele>949</ele>
        <time>2022-06-09T19:17:30Z</time>
      </trkpt>
      <trkpt lat="43.83389" lon="6.41606">
        <ele>957</ele>
        <time>2022-06-09T19:17:44Z</time>
      </trkpt>
      <trkpt lat="43.8338" lon="6.41593">
        <ele>957</ele>
        <time>2022-06-09T19:17:47Z</time>
      </trkpt>
      <trkpt lat="43.83366" lon="6.41552">
        <ele>960</ele>
        <time>2022-06-09T19:17:55Z</time>
      </trkpt>
      <trkpt lat="43.83368" lon="6.41529">
        <ele>966</ele>
        <time>2022-06-09T19:17:59Z</time>
      </trkpt>
      <trkpt lat="43.83363" lon="6.41507">
        <ele>968</ele>
        <time>2022-06-09T19:18:03Z</time>
      </trkpt>
      <trkpt lat="43.83362" lon="6.41486">
        <ele>971</ele>
        <time>2022-06-09T19:18:06Z</time>
      </trkpt>
      <trkpt lat="43.83364" lon="6.41452">
        <ele>976</ele>
        <time>2022-06-09T19:18:12Z</time>
      </trkpt>
      <trkpt lat="43.83355" lon="6.41393">
        <ele>980</ele>
        <time>2022-06-09T19:18:22Z</time>
      </trkpt>
      <trkpt lat="43.83355" lon="6.41362">
        <ele>985</ele>
        <time>2022-06-09T19:18:27Z</time>
      </trkpt>
      <trkpt lat="43.83343" lon="6.41318">
        <ele>985</ele>
        <time>2022-06-09T19:18:35Z</time>
      </trkpt>
      <trkpt lat="43.83326" lon="6.41276">
        <ele>979</ele>
        <time>2022-06-09T19:18:43Z</time>
      </trkpt>
      <trkpt lat="43.83322" lon="6.41259">
        <ele>979</ele>
        <time>2022-06-09T19:18:46Z</time>
      </trkpt>
      <trkpt lat="43.83323" lon="6.41252">
        <ele>980</ele>
        <time>2022-06-09T19:18:47Z</time>
      </trkpt>
      <trkpt lat="43.8332" lon="6.41232">
        <ele>978</ele>
        <time>2022-06-09T19:18:51Z</time>
      </trkpt>
      <trkpt lat="43.83325" lon="6.4121">
        <ele>979</ele>
        <time>2022-06-09T19:18:55Z</time>
      </trkpt>
      <trkpt lat="43.83343" lon="6.41192">
        <ele>989</ele>
        <time>2022-06-09T19:19:00Z</time>
      </trkpt>
      <trkpt lat="43.8335" lon="6.41175">
        <ele>994</ele>
        <time>2022-06-09T19:19:03Z</time>
      </trkpt>
      <trkpt lat="43.83346" lon="6.41138">
        <ele>997</ele>
        <time>2022-06-09T19:19:10Z</time>
      </trkpt>
      <trkpt lat="43.83348" lon="6.41128">
        <ele>1000</ele>
        <time>2022-06-09T19:19:11Z</time>
      </trkpt>
      <trkpt lat="43.83347" lon="6.41114">
        <ele>1002</ele>
        <time>2022-06-09T19:19:14Z</time>
      </trkpt>
      <trkpt lat="43.83341" lon="6.41089">
        <ele>1003</ele>
        <time>2022-06-09T19:19:18Z</time>
      </trkpt>
      <trkpt lat="43.83329" lon="6.41068">
        <ele>1001</ele>
        <time>2022-06-09T19:19:23Z</time>
      </trkpt>
      <trkpt lat="43.8332" lon="6.4106">
        <ele>1000</ele>
        <time>2022-06-09T19:19:25Z</time>
      </trkpt>
      <trkpt lat="43.8331" lon="6.41046">
        <ele>1001</ele>
        <time>2022-06-09T19:19:28Z</time>
      </trkpt>
      <trkpt lat="43.83304" lon="6.41043">
        <ele>1000</ele>
        <time>2022-06-09T19:19:30Z</time>
      </trkpt>
      <trkpt lat="43.833" lon="6.41037">
        <ele>1000</ele>
        <time>2022-06-09T19:19:31Z</time>
      </trkpt>
      <trkpt lat="43.83296" lon="6.41036">
        <ele>999</ele>
        <time>2022-06-09T19:19:32Z</time>
      </trkpt>
      <trkpt lat="43.83287" lon="6.41021">
        <ele>1002</ele>
        <time>2022-06-09T19:19:36Z</time>
      </trkpt>
      <trkpt lat="43.83278" lon="6.41015">
        <ele>1001</ele>
        <time>2022-06-09T19:19:38Z</time>
      </trkpt>
      <trkpt lat="43.83271" lon="6.41003">
        <ele>1004</ele>
        <time>2022-06-09T19:19:41Z</time>
      </trkpt>
      <trkpt lat="43.83262" lon="6.40997">
        <ele>1004</ele>
        <time>2022-06-09T19:19:43Z</time>
      </trkpt>
      <trkpt lat="43.83257" lon="6.4099">
        <ele>1004</ele>
        <time>2022-06-09T19:19:45Z</time>
      </trkpt>
      <trkpt lat="43.83248" lon="6.40985">
        <ele>1003</ele>
        <time>2022-06-09T19:19:47Z</time>
      </trkpt>
      <trkpt lat="43.83238" lon="6.40972">
        <ele>1002</ele>
        <time>2022-06-09T19:19:50Z</time>
      </trkpt>
      <trkpt lat="43.83234" lon="6.40971">
        <ele>1001</ele>
        <time>2022-06-09T19:19:51Z</time>
      </trkpt>
      <trkpt lat="43.83218" lon="6.40955">
        <ele>998</ele>
        <time>2022-06-09T19:19:56Z</time>
      </trkpt>
      <trkpt lat="43.83202" lon="6.40933">
        <ele>997</ele>
        <time>2022-06-09T19:20:01Z</time>
      </trkpt>
      <trkpt lat="43.83197" lon="6.40919">
        <ele>998</ele>
        <time>2022-06-09T19:20:03Z</time>
      </trkpt>
      <trkpt lat="43.83193" lon="6.4088">
        <ele>1003</ele>
        <time>2022-06-09T19:20:10Z</time>
      </trkpt>
      <trkpt lat="43.83186" lon="6.40849">
        <ele>1005</ele>
        <time>2022-06-09T19:20:16Z</time>
      </trkpt>
      <trkpt lat="43.83184" lon="6.40822">
        <ele>1009</ele>
        <time>2022-06-09T19:20:20Z</time>
      </trkpt>
      <trkpt lat="43.83184" lon="6.40798">
        <ele>1013</ele>
        <time>2022-06-09T19:20:24Z</time>
      </trkpt>
      <trkpt lat="43.83187" lon="6.40791">
        <ele>1016</ele>
        <time>2022-06-09T19:20:26Z</time>
      </trkpt>
      <trkpt lat="43.83191" lon="6.40743">
        <ele>1027</ele>
        <time>2022-06-09T19:20:34Z</time>
      </trkpt>
      <trkpt lat="43.83187" lon="6.40703">
        <ele>1033</ele>
        <time>2022-06-09T19:20:40Z</time>
      </trkpt>
      <trkpt lat="43.83178" lon="6.40687">
        <ele>1032</ele>
        <time>2022-06-09T19:20:44Z</time>
      </trkpt>
      <trkpt lat="43.83156" lon="6.40626">
        <ele>1042</ele>
        <time>2022-06-09T19:20:55Z</time>
      </trkpt>
      <trkpt lat="43.83153" lon="6.40612">
        <ele>1047</ele>
        <time>2022-06-09T19:20:58Z</time>
      </trkpt>
      <trkpt lat="43.83148" lon="6.40604">
        <ele>1048</ele>
        <time>2022-06-09T19:21:00Z</time>
      </trkpt>
      <trkpt lat="43.83134" lon="6.4059">
        <ele>1051</ele>
        <time>2022-06-09T19:21:04Z</time>
      </trkpt>
      <trkpt lat="43.83117" lon="6.4058">
        <ele>1052</ele>
        <time>2022-06-09T19:21:08Z</time>
      </trkpt>
      <trkpt lat="43.83081" lon="6.40577">
        <ele>1049</ele>
        <time>2022-06-09T19:21:16Z</time>
      </trkpt>
      <trkpt lat="43.82934" lon="6.40699">
        <ele>1060</ele>
        <time>2022-06-09T19:21:56Z</time>
      </trkpt>
      <trkpt lat="43.82928" lon="6.40709">
        <ele>1059</ele>
        <time>2022-06-09T19:21:59Z</time>
      </trkpt>
      <trkpt lat="43.82839" lon="6.40726">
        <ele>1069</ele>
        <time>2022-06-09T19:22:20Z</time>
      </trkpt>
      <trkpt lat="43.82828" lon="6.40719">
        <ele>1072</ele>
        <time>2022-06-09T19:22:22Z</time>
      </trkpt>
      <trkpt lat="43.82811" lon="6.40697">
        <ele>1078</ele>
        <time>2022-06-09T19:22:28Z</time>
      </trkpt>
      <trkpt lat="43.82804" lon="6.40693">
        <ele>1079</ele>
        <time>2022-06-09T19:22:30Z</time>
      </trkpt>
      <trkpt lat="43.82769" lon="6.40702">
        <ele>1076</ele>
        <time>2022-06-09T19:22:38Z</time>
      </trkpt>
      <trkpt lat="43.82731" lon="6.40661">
        <ele>1086</ele>
        <time>2022-06-09T19:22:49Z</time>
      </trkpt>
      <trkpt lat="43.82728" lon="6.40654">
        <ele>1088</ele>
        <time>2022-06-09T19:22:51Z</time>
      </trkpt>
      <trkpt lat="43.82736" lon="6.40649">
        <ele>1089</ele>
        <time>2022-06-09T19:22:53Z</time>
      </trkpt>
      <trkpt lat="43.8275" lon="6.40648">
        <ele>1089</ele>
        <time>2022-06-09T19:22:56Z</time>
      </trkpt>
      <trkpt lat="43.82762" lon="6.40635">
        <ele>1093</ele>
        <time>2022-06-09T19:22:59Z</time>
      </trkpt>
      <trkpt lat="43.82762" lon="6.40627">
        <ele>1095</ele>
        <time>2022-06-09T19:23:01Z</time>
      </trkpt>
      <trkpt lat="43.82742" lon="6.40613">
        <ele>1098</ele>
        <time>2022-06-09T19:23:06Z</time>
      </trkpt>
      <trkpt lat="43.82733" lon="6.40602">
        <ele>1101</ele>
        <time>2022-06-09T19:23:09Z</time>
      </trkpt>
      <trkpt lat="43.82711" lon="6.4059">
        <ele>1105</ele>
        <time>2022-06-09T19:23:14Z</time>
      </trkpt>
      <trkpt lat="43.82696" lon="6.40589">
        <ele>1107</ele>
        <time>2022-06-09T19:23:18Z</time>
      </trkpt>
      <trkpt lat="43.82678" lon="6.40592">
        <ele>1107</ele>
        <time>2022-06-09T19:23:22Z</time>
      </trkpt>
      <trkpt lat="43.82647" lon="6.40577">
        <ele>1112</ele>
        <time>2022-06-09T19:23:30Z</time>
      </trkpt>
      <trkpt lat="43.82633" lon="6.40563">
        <ele>1117</ele>
        <time>2022-06-09T19:23:34Z</time>
      </trkpt>
      <trkpt lat="43.82626" lon="6.4055">
        <ele>1121</ele>
        <time>2022-06-09T19:23:36Z</time>
      </trkpt>
      <trkpt lat="43.82616" lon="6.40542">
        <ele>1124</ele>
        <time>2022-06-09T19:23:39Z</time>
      </trkpt>
      <trkpt lat="43.82604" lon="6.40541">
        <ele>1124</ele>
        <time>2022-06-09T19:23:42Z</time>
      </trkpt>
      <trkpt lat="43.82576" lon="6.40524">
        <ele>1128</ele>
        <time>2022-06-09T19:23:49Z</time>
      </trkpt>
      <trkpt lat="43.8255" lon="6.40516">
        <ele>1127</ele>
        <time>2022-06-09T19:23:55Z</time>
      </trkpt>
      <trkpt lat="43.82532" lon="6.40496">
        <ele>1131</ele>
        <time>2022-06-09T19:24:01Z</time>
      </trkpt>
      <trkpt lat="43.82517" lon="6.4047">
        <ele>1137</ele>
        <time>2022-06-09T19:24:06Z</time>
      </trkpt>
      <trkpt lat="43.82507" lon="6.40466">
        <ele>1137</ele>
        <time>2022-06-09T19:24:09Z</time>
      </trkpt>
      <trkpt lat="43.82477" lon="6.4044">
        <ele>1141</ele>
        <time>2022-06-09T19:24:17Z</time>
      </trkpt>
      <trkpt lat="43.82455" lon="6.40431">
        <ele>1141</ele>
        <time>2022-06-09T19:24:22Z</time>
      </trkpt>
      <trkpt lat="43.82445" lon="6.40422">
        <ele>1142</ele>
        <time>2022-06-09T19:24:25Z</time>
      </trkpt>
      <trkpt lat="43.82434" lon="6.4042">
        <ele>1141</ele>
        <time>2022-06-09T19:24:28Z</time>
      </trkpt>
      <trkpt lat="43.82427" lon="6.40413">
        <ele>1142</ele>
        <time>2022-06-09T19:24:30Z</time>
      </trkpt>
      <trkpt lat="43.82413" lon="6.40409">
        <ele>1142</ele>
        <time>2022-06-09T19:24:33Z</time>
      </trkpt>
      <trkpt lat="43.82383" lon="6.40392">
        <ele>1144</ele>
        <time>2022-06-09T19:24:41Z</time>
      </trkpt>
      <trkpt lat="43.82371" lon="6.4039">
        <ele>1143</ele>
        <time>2022-06-09T19:24:44Z</time>
      </trkpt>
      <trkpt lat="43.82361" lon="6.40383">
        <ele>1144</ele>
        <time>2022-06-09T19:24:46Z</time>
      </trkpt>
      <trkpt lat="43.82325" lon="6.40323">
        <ele>1148</ele>
        <time>2022-06-09T19:24:59Z</time>
      </trkpt>
      <trkpt lat="43.8231" lon="6.4026">
        <ele>1155</ele>
        <time>2022-06-09T19:25:10Z</time>
      </trkpt>
      <trkpt lat="43.82305" lon="6.4023">
        <ele>1159</ele>
        <time>2022-06-09T19:25:16Z</time>
      </trkpt>
      <trkpt lat="43.82347" lon="6.4025">
        <ele>1164</ele>
        <time>2022-06-09T19:25:26Z</time>
      </trkpt>
      <trkpt lat="43.82355" lon="6.40248">
        <ele>1166</ele>
        <time>2022-06-09T19:25:28Z</time>
      </trkpt>
      <trkpt lat="43.82357" lon="6.40241">
        <ele>1168</ele>
        <time>2022-06-09T19:25:29Z</time>
      </trkpt>
      <trkpt lat="43.82337" lon="6.40185">
        <ele>1175</ele>
        <time>2022-06-09T19:25:40Z</time>
      </trkpt>
      <trkpt lat="43.82312" lon="6.40069">
        <ele>1188</ele>
        <time>2022-06-09T19:26:00Z</time>
      </trkpt>
      <trkpt lat="43.82279" lon="6.39935">
        <ele>1209</ele>
        <time>2022-06-09T19:26:24Z</time>
      </trkpt>
      <trkpt lat="43.82273" lon="6.39922">
        <ele>1211</ele>
        <time>2022-06-09T19:26:27Z</time>
      </trkpt>
      <trkpt lat="43.82267" lon="6.39913">
        <ele>1211</ele>
        <time>2022-06-09T19:26:29Z</time>
      </trkpt>
      <trkpt lat="43.82261" lon="6.39911">
        <ele>1211</ele>
        <time>2022-06-09T19:26:30Z</time>
      </trkpt>
      <trkpt lat="43.82221" lon="6.39922">
        <ele>1210</ele>
        <time>2022-06-09T19:26:40Z</time>
      </trkpt>
      <trkpt lat="43.82215" lon="6.39927">
        <ele>1210</ele>
        <time>2022-06-09T19:26:41Z</time>
      </trkpt>
      <trkpt lat="43.82203" lon="6.39931">
        <ele>1210</ele>
        <time>2022-06-09T19:26:44Z</time>
      </trkpt>
      <trkpt lat="43.82191" lon="6.39931">
        <ele>1211</ele>
        <time>2022-06-09T19:26:47Z</time>
      </trkpt>
      <trkpt lat="43.82173" lon="6.39926">
        <ele>1214</ele>
        <time>2022-06-09T19:26:51Z</time>
      </trkpt>
      <trkpt lat="43.82145" lon="6.39905">
        <ele>1219</ele>
        <time>2022-06-09T19:26:59Z</time>
      </trkpt>
      <trkpt lat="43.82133" lon="6.39903">
        <ele>1220</ele>
        <time>2022-06-09T19:27:01Z</time>
      </trkpt>
      <trkpt lat="43.82113" lon="6.39909">
        <ele>1220</ele>
        <time>2022-06-09T19:27:06Z</time>
      </trkpt>
      <trkpt lat="43.82089" lon="6.3991">
        <ele>1221</ele>
        <time>2022-06-09T19:27:12Z</time>
      </trkpt>
      <trkpt lat="43.82078" lon="6.39905">
        <ele>1222</ele>
        <time>2022-06-09T19:27:15Z</time>
      </trkpt>
      <trkpt lat="43.82036" lon="6.39868">
        <ele>1227</ele>
        <time>2022-06-09T19:27:26Z</time>
      </trkpt>
      <trkpt lat="43.82027" lon="6.39852">
        <ele>1230</ele>
        <time>2022-06-09T19:27:30Z</time>
      </trkpt>
      <trkpt lat="43.81999" lon="6.39817">
        <ele>1235</ele>
        <time>2022-06-09T19:27:38Z</time>
      </trkpt>
      <trkpt lat="43.81983" lon="6.39801">
        <ele>1238</ele>
        <time>2022-06-09T19:27:43Z</time>
      </trkpt>
      <trkpt lat="43.81966" lon="6.39757">
        <ele>1244</ele>
        <time>2022-06-09T19:27:51Z</time>
      </trkpt>
      <trkpt lat="43.81956" lon="6.39743">
        <ele>1245</ele>
        <time>2022-06-09T19:27:55Z</time>
      </trkpt>
      <trkpt lat="43.81941" lon="6.39729">
        <ele>1245</ele>
        <time>2022-06-09T19:27:59Z</time>
      </trkpt>
      <trkpt lat="43.81921" lon="6.39723">
        <ele>1243</ele>
        <time>2022-06-09T19:28:04Z</time>
      </trkpt>
      <trkpt lat="43.81907" lon="6.39701">
        <ele>1244</ele>
        <time>2022-06-09T19:28:09Z</time>
      </trkpt>
      <trkpt lat="43.81899" lon="6.39681">
        <ele>1244</ele>
        <time>2022-06-09T19:28:13Z</time>
      </trkpt>
      <trkpt lat="43.81889" lon="6.3963">
        <ele>1245</ele>
        <time>2022-06-09T19:28:21Z</time>
      </trkpt>
      <trkpt lat="43.8189" lon="6.39579">
        <ele>1247</ele>
        <time>2022-06-09T19:28:30Z</time>
      </trkpt>
      <trkpt lat="43.81885" lon="6.39572">
        <ele>1246</ele>
        <time>2022-06-09T19:28:32Z</time>
      </trkpt>
      <trkpt lat="43.8188" lon="6.39543">
        <ele>1245</ele>
        <time>2022-06-09T19:28:37Z</time>
      </trkpt>
      <trkpt lat="43.81865" lon="6.39496">
        <ele>1242</ele>
        <time>2022-06-09T19:28:45Z</time>
      </trkpt>
      <trkpt lat="43.81857" lon="6.3948">
        <ele>1240</ele>
        <time>2022-06-09T19:28:49Z</time>
      </trkpt>
      <trkpt lat="43.81842" lon="6.39467">
        <ele>1237</ele>
        <time>2022-06-09T19:28:53Z</time>
      </trkpt>
      <trkpt lat="43.81833" lon="6.39464">
        <ele>1235</ele>
        <time>2022-06-09T19:28:55Z</time>
      </trkpt>
      <trkpt lat="43.81825" lon="6.39464">
        <ele>1234</ele>
        <time>2022-06-09T19:28:57Z</time>
      </trkpt>
      <trkpt lat="43.81817" lon="6.39468">
        <ele>1233</ele>
        <time>2022-06-09T19:28:59Z</time>
      </trkpt>
      <trkpt lat="43.81809" lon="6.39466">
        <ele>1231</ele>
        <time>2022-06-09T19:29:01Z</time>
      </trkpt>
      <trkpt lat="43.81798" lon="6.39455">
        <ele>1229</ele>
        <time>2022-06-09T19:29:04Z</time>
      </trkpt>
      <trkpt lat="43.81795" lon="6.3945">
        <ele>1229</ele>
        <time>2022-06-09T19:29:05Z</time>
      </trkpt>
      <trkpt lat="43.81794" lon="6.39438">
        <ele>1228</ele>
        <time>2022-06-09T19:29:07Z</time>
      </trkpt>
      <trkpt lat="43.81794" lon="6.39406">
        <ele>1228</ele>
        <time>2022-06-09T19:29:12Z</time>
      </trkpt>
      <trkpt lat="43.81789" lon="6.39393">
        <ele>1227</ele>
        <time>2022-06-09T19:29:15Z</time>
      </trkpt>
      <trkpt lat="43.8178" lon="6.39381">
        <ele>1226</ele>
        <time>2022-06-09T19:29:18Z</time>
      </trkpt>
      <trkpt lat="43.8177" lon="6.39376">
        <ele>1224</ele>
        <time>2022-06-09T19:29:20Z</time>
      </trkpt>
      <trkpt lat="43.81741" lon="6.39378">
        <ele>1221</ele>
        <time>2022-06-09T19:29:27Z</time>
      </trkpt>
      <trkpt lat="43.81735" lon="6.39372">
        <ele>1220</ele>
        <time>2022-06-09T19:29:29Z</time>
      </trkpt>
      <trkpt lat="43.81716" lon="6.39378">
        <ele>1219</ele>
        <time>2022-06-09T19:29:33Z</time>
      </trkpt>
      <trkpt lat="43.81703" lon="6.39385">
        <ele>1218</ele>
        <time>2022-06-09T19:29:37Z</time>
      </trkpt>
      <trkpt lat="43.8168" lon="6.39404">
        <ele>1216</ele>
        <time>2022-06-09T19:29:43Z</time>
      </trkpt>
      <trkpt lat="43.81656" lon="6.39415">
        <ele>1214</ele>
        <time>2022-06-09T19:29:49Z</time>
      </trkpt>
      <trkpt lat="43.81635" lon="6.39433">
        <ele>1213</ele>
        <time>2022-06-09T19:29:55Z</time>
      </trkpt>
      <trkpt lat="43.81622" lon="6.39437">
        <ele>1213</ele>
        <time>2022-06-09T19:29:58Z</time>
      </trkpt>
      <trkpt lat="43.81582" lon="6.3942">
        <ele>1210</ele>
        <time>2022-06-09T19:30:07Z</time>
      </trkpt>
      <trkpt lat="43.81561" lon="6.39406">
        <ele>1209</ele>
        <time>2022-06-09T19:30:13Z</time>
      </trkpt>
      <trkpt lat="43.81534" lon="6.39383">
        <ele>1209</ele>
        <time>2022-06-09T19:30:20Z</time>
      </trkpt>
      <trkpt lat="43.81501" lon="6.39367">
        <ele>1208</ele>
        <time>2022-06-09T19:30:28Z</time>
      </trkpt>
      <trkpt lat="43.81478" lon="6.39366">
        <ele>1207</ele>
        <time>2022-06-09T19:30:34Z</time>
      </trkpt>
      <trkpt lat="43.81447" lon="6.39376">
        <ele>1206</ele>
        <time>2022-06-09T19:30:41Z</time>
      </trkpt>
      <trkpt lat="43.81374" lon="6.39394">
        <ele>1205</ele>
        <time>2022-06-09T19:30:59Z</time>
      </trkpt>
      <trkpt lat="43.81335" lon="6.3939">
        <ele>1204</ele>
        <time>2022-06-09T19:31:08Z</time>
      </trkpt>
      <trkpt lat="43.81316" lon="6.39382">
        <ele>1204</ele>
        <time>2022-06-09T19:31:12Z</time>
      </trkpt>
      <trkpt lat="43.81274" lon="6.39371">
        <ele>1203</ele>
        <time>2022-06-09T19:31:22Z</time>
      </trkpt>
      <trkpt lat="43.81227" lon="6.39333">
        <ele>1203</ele>
        <time>2022-06-09T19:31:35Z</time>
      </trkpt>
      <trkpt lat="43.81094" lon="6.39247">
        <ele>1203</ele>
        <time>2022-06-09T19:32:09Z</time>
      </trkpt>
      <trkpt lat="43.81083" lon="6.39242">
        <ele>1202</ele>
        <time>2022-06-09T19:32:12Z</time>
      </trkpt>
      <trkpt lat="43.81052" lon="6.39245">
        <ele>1202</ele>
        <time>2022-06-09T19:32:19Z</time>
      </trkpt>
      <trkpt lat="43.8104" lon="6.39241">
        <ele>1202</ele>
        <time>2022-06-09T19:32:22Z</time>
      </trkpt>
      <trkpt lat="43.80998" lon="6.39212">
        <ele>1204</ele>
        <time>2022-06-09T19:32:33Z</time>
      </trkpt>
      <trkpt lat="43.80983" lon="6.39204">
        <ele>1205</ele>
        <time>2022-06-09T19:32:37Z</time>
      </trkpt>
      <trkpt lat="43.80964" lon="6.392">
        <ele>1206</ele>
        <time>2022-06-09T19:32:41Z</time>
      </trkpt>
      <trkpt lat="43.80944" lon="6.39186">
        <ele>1208</ele>
        <time>2022-06-09T19:32:47Z</time>
      </trkpt>
      <trkpt lat="43.80916" lon="6.39158">
        <ele>1209</ele>
        <time>2022-06-09T19:32:55Z</time>
      </trkpt>
      <trkpt lat="43.80899" lon="6.39114">
        <ele>1209</ele>
        <time>2022-06-09T19:33:03Z</time>
      </trkpt>
      <trkpt lat="43.80858" lon="6.39046">
        <ele>1209</ele>
        <time>2022-06-09T19:33:18Z</time>
      </trkpt>
      <trkpt lat="43.80844" lon="6.39045">
        <ele>1209</ele>
        <time>2022-06-09T19:33:21Z</time>
      </trkpt>
      <trkpt lat="43.80836" lon="6.39035">
        <ele>1209</ele>
        <time>2022-06-09T19:33:24Z</time>
      </trkpt>
      <trkpt lat="43.80833" lon="6.39025">
        <ele>1209</ele>
        <time>2022-06-09T19:33:26Z</time>
      </trkpt>
      <trkpt lat="43.80833" lon="6.38997">
        <ele>1209</ele>
        <time>2022-06-09T19:33:30Z</time>
      </trkpt>
      <trkpt lat="43.80831" lon="6.38992">
        <ele>1210</ele>
        <time>2022-06-09T19:33:31Z</time>
      </trkpt>
      <trkpt lat="43.8082" lon="6.3899">
        <ele>1210</ele>
        <time>2022-06-09T19:33:34Z</time>
      </trkpt>
      <trkpt lat="43.80816" lon="6.38992">
        <ele>1210</ele>
        <time>2022-06-09T19:33:35Z</time>
      </trkpt>
      <trkpt lat="43.80802" lon="6.39009">
        <ele>1210</ele>
        <time>2022-06-09T19:33:39Z</time>
      </trkpt>
      <trkpt lat="43.80786" lon="6.39016">
        <ele>1211</ele>
        <time>2022-06-09T19:33:43Z</time>
      </trkpt>
      <trkpt lat="43.80756" lon="6.39042">
        <ele>1214</ele>
        <time>2022-06-09T19:33:51Z</time>
      </trkpt>
      <trkpt lat="43.80736" lon="6.39048">
        <ele>1213</ele>
        <time>2022-06-09T19:33:56Z</time>
      </trkpt>
      <trkpt lat="43.80704" lon="6.39049">
        <ele>1209</ele>
        <time>2022-06-09T19:34:04Z</time>
      </trkpt>
      <trkpt lat="43.8068" lon="6.39059">
        <ele>1208</ele>
        <time>2022-06-09T19:34:09Z</time>
      </trkpt>
      <trkpt lat="43.80637" lon="6.39093">
        <ele>1207</ele>
        <time>2022-06-09T19:34:21Z</time>
      </trkpt>
      <trkpt lat="43.80618" lon="6.39115">
        <ele>1208</ele>
        <time>2022-06-09T19:34:27Z</time>
      </trkpt>
      <trkpt lat="43.80604" lon="6.39127">
        <ele>1208</ele>
        <time>2022-06-09T19:34:31Z</time>
      </trkpt>
      <trkpt lat="43.80588" lon="6.39147">
        <ele>1209</ele>
        <time>2022-06-09T19:34:36Z</time>
      </trkpt>
      <trkpt lat="43.8055" lon="6.39212">
        <ele>1209</ele>
        <time>2022-06-09T19:34:50Z</time>
      </trkpt>
      <trkpt lat="43.80516" lon="6.39279">
        <ele>1207</ele>
        <time>2022-06-09T19:35:04Z</time>
      </trkpt>
      <trkpt lat="43.8049" lon="6.39324">
        <ele>1201</ele>
        <time>2022-06-09T19:35:13Z</time>
      </trkpt>
      <trkpt lat="43.80465" lon="6.39375">
        <ele>1194</ele>
        <time>2022-06-09T19:35:24Z</time>
      </trkpt>
      <trkpt lat="43.80457" lon="6.39398">
        <ele>1192</ele>
        <time>2022-06-09T19:35:28Z</time>
      </trkpt>
      <trkpt lat="43.80453" lon="6.39412">
        <ele>1191</ele>
        <time>2022-06-09T19:35:31Z</time>
      </trkpt>
      <trkpt lat="43.80449" lon="6.3945">
        <ele>1185</ele>
        <time>2022-06-09T19:35:37Z</time>
      </trkpt>
      <trkpt lat="43.80445" lon="6.39461">
        <ele>1182</ele>
        <time>2022-06-09T19:35:39Z</time>
      </trkpt>
      <trkpt lat="43.80435" lon="6.39476">
        <ele>1177</ele>
        <time>2022-06-09T19:35:43Z</time>
      </trkpt>
      <trkpt lat="43.80432" lon="6.39496">
        <ele>1173</ele>
        <time>2022-06-09T19:35:46Z</time>
      </trkpt>
      <trkpt lat="43.80452" lon="6.39511">
        <ele>1175</ele>
        <time>2022-06-09T19:35:51Z</time>
      </trkpt>
      <trkpt lat="43.80464" lon="6.39516">
        <ele>1177</ele>
        <time>2022-06-09T19:35:54Z</time>
      </trkpt>
      <trkpt lat="43.80481" lon="6.39534">
        <ele>1176</ele>
        <time>2022-06-09T19:35:59Z</time>
      </trkpt>
      <trkpt lat="43.80498" lon="6.39544">
        <ele>1178</ele>
        <time>2022-06-09T19:36:04Z</time>
      </trkpt>
      <trkpt lat="43.80515" lon="6.39571">
        <ele>1177</ele>
        <time>2022-06-09T19:36:10Z</time>
      </trkpt>
      <trkpt lat="43.80515" lon="6.39585">
        <ele>1172</ele>
        <time>2022-06-09T19:36:12Z</time>
      </trkpt>
      <trkpt lat="43.8051" lon="6.39587">
        <ele>1170</ele>
        <time>2022-06-09T19:36:13Z</time>
      </trkpt>
      <trkpt lat="43.80503" lon="6.39584">
        <ele>1168</ele>
        <time>2022-06-09T19:36:15Z</time>
      </trkpt>
      <trkpt lat="43.80502" lon="6.39589">
        <ele>1166</ele>
        <time>2022-06-09T19:36:16Z</time>
      </trkpt>
      <trkpt lat="43.80533" lon="6.39655">
        <ele>1157</ele>
        <time>2022-06-09T19:36:29Z</time>
      </trkpt>
      <trkpt lat="43.8055" lon="6.39717">
        <ele>1151</ele>
        <time>2022-06-09T19:36:40Z</time>
      </trkpt>
      <trkpt lat="43.80554" lon="6.39752">
        <ele>1146</ele>
        <time>2022-06-09T19:36:46Z</time>
      </trkpt>
      <trkpt lat="43.80549" lon="6.39802">
        <ele>1139</ele>
        <time>2022-06-09T19:36:55Z</time>
      </trkpt>
      <trkpt lat="43.80533" lon="6.39863">
        <ele>1129</ele>
        <time>2022-06-09T19:37:06Z</time>
      </trkpt>
      <trkpt lat="43.80528" lon="6.39892">
        <ele>1126</ele>
        <time>2022-06-09T19:37:11Z</time>
      </trkpt>
      <trkpt lat="43.80503" lon="6.39946">
        <ele>1115</ele>
        <time>2022-06-09T19:37:21Z</time>
      </trkpt>
      <trkpt lat="43.80491" lon="6.39961">
        <ele>1110</ele>
        <time>2022-06-09T19:37:25Z</time>
      </trkpt>
      <trkpt lat="43.80471" lon="6.39978">
        <ele>1103</ele>
        <time>2022-06-09T19:37:31Z</time>
      </trkpt>
      <trkpt lat="43.8044" lon="6.39997">
        <ele>1091</ele>
        <time>2022-06-09T19:37:39Z</time>
      </trkpt>
      <trkpt lat="43.80432" lon="6.40005">
        <ele>1088</ele>
        <time>2022-06-09T19:37:41Z</time>
      </trkpt>
      <trkpt lat="43.80381" lon="6.40042">
        <ele>1070</ele>
        <time>2022-06-09T19:37:54Z</time>
      </trkpt>
      <trkpt lat="43.8037" lon="6.40044">
        <ele>1066</ele>
        <time>2022-06-09T19:37:57Z</time>
      </trkpt>
      <trkpt lat="43.80352" lon="6.40057">
        <ele>1061</ele>
        <time>2022-06-09T19:38:02Z</time>
      </trkpt>
      <trkpt lat="43.79924" lon="6.40247">
        <ele>968</ele>
        <time>2022-06-09T19:39:47Z</time>
      </trkpt>
    </trkseg>
  </trk>
</gpx>